[[{"header":{"parameterUnit":"m.s-1","parameterCategory":1,"la1":30.6,"la2":29.2853,"lo1":-89.7004,"lo2":-87.6739,"dy":0.0162,"dx":0.0183,"nx":112,"ny":82,"refTime":"2023-02-26T06:00:00:Z","depth":0,"parameterNumber":2,"parameterNumberName":"U-component_of_WINDS"},"data":[0.0,0.0,0.0,0.0,0.0,0.0,0.0,0.0,0.0,0.0,0.0,0.0,0.0,0.0,0.0,0.0,0.0,0.0,0.0,0.0,0.0,0.0,0.0,0.0,0.0,0.0,0.0,0.0,0.0,0.0,0.0,0.0,0.0,0.0,0.0,0.0,0.0,0.0,0.0,0.0,0.0,0.0,0.0,0.0,0.0,0.0,0.0,0.0,0.0,0.0,0.0,0.0,0.0,0.0,0.0,0.0,0.0,0.0,0.0,0.0,0.0,0.0,0.0,0.0,0.0,0.0,0.0,0.0,0.0,0.0,0.0,0.0,0.0,0.0,0.0,0.0,0.0,0.0,0.0,0.0,0.0,0.0,0.0,0.0,0.0,0.0,0.0,0.0,0.0,0.0,5.9951,6.0094,6.0701,6.1093,6.1093,6.1093,6.1093,6.1093,0.0,0.0,0.0,0.0,0.0,0.0,0.0,0.0,0.0,0.0,0.0,0.0,0.0,0.0,0.0,0.0,0.0,0.0,0.0,0.0,0.0,0.0,0.0,0.0,0.0,0.0,0.0,0.0,0.0,0.0,0.0,0.0,0.0,0.0,0.0,0.0,0.0,0.0,0.0,0.0,0.0,0.0,0.0,0.0,0.0,0.0,0.0,0.0,0.0,0.0,0.0,0.0,0.0,0.0,0.0,0.0,0.0,0.0,0.0,0.0,0.0,0.0,0.0,0.0,0.0,0.0,0.0,0.0,0.0,0.0,0.0,0.0,0.0,0.0,0.0,0.0,0.0,0.0,0.0,0.0,0.0,0.0,0.0,0.0,0.0,0.0,0.0,0.0,0.0,0.0,0.0,0.0,0.0,0.0,0.0,0.0,0.0,0.0,0.0,0.0,0.0,0.0,0.0,0.0,6.0165,6.0843,6.1022,6.1093,6.1093,6.1093,6.1093,6.1093,0.0,0.0,0.0,0.0,0.0,0.0,0.0,0.0,0.0,0.0,0.0,0.0,0.0,0.0,0.0,0.0,0.0,0.0,0.0,0.0,0.0,0.0,0.0,0.0,0.0,0.0,0.0,0.0,0.0,0.0,0.0,0.0,0.0,0.0,0.0,0.0,0.0,0.0,0.0,0.0,0.0,0.0,0.0,0.0,0.0,0.0,0.0,0.0,0.0,0.0,0.0,0.0,0.0,0.0,0.0,0.0,0.0,0.0,0.0,0.0,0.0,0.0,0.0,0.0,0.0,0.0,0.0,0.0,0.0,0.0,0.0,0.0,0.0,0.0,0.0,0.0,0.0,0.0,0.0,0.0,0.0,0.0,0.0,0.0,0.0,0.0,0.0,0.0,0.0,0.0,0.0,0.0,0.0,0.0,0.0,0.0,0.0,0.0,0.0,0.0,0.0,0.0,0.0,6.0558,6.0701,6.1058,6.1093,6.1093,6.1093,6.1093,6.1093,6.1093,6.1093,0.0,0.0,0.0,0.0,0.0,0.0,0.0,0.0,0.0,0.0,0.0,0.0,0.0,0.0,0.0,0.0,0.0,0.0,0.0,0.0,0.0,0.0,0.0,0.0,0.0,0.0,0.0,0.0,0.0,0.0,0.0,0.0,0.0,0.0,0.0,0.0,0.0,0.0,0.0,0.0,0.0,0.0,0.0,0.0,0.0,0.0,0.0,0.0,0.0,0.0,0.0,0.0,0.0,0.0,0.0,0.0,0.0,0.0,0.0,0.0,0.0,0.0,0.0,0.0,0.0,0.0,0.0,0.0,0.0,0.0,0.0,0.0,0.0,0.0,0.0,0.0,0.0,0.0,0.0,0.0,0.0,0.0,0.0,0.0,0.0,0.0,0.0,0.0,0.0,0.0,0.0,0.0,0.0,0.0,0.0,0.0,0.0,0.0,0.0,0.0,0.0,0.0,6.1093,6.1093,6.1093,6.1093,6.1165,6.1379,6.1379,6.145,6.1628,6.1628,0.0,0.0,0.0,0.0,0.0,0.0,0.0,0.0,0.0,0.0,0.0,0.0,0.0,0.0,0.0,0.0,0.0,0.0,0.0,0.0,0.0,0.0,0.0,0.0,0.0,0.0,0.0,0.0,0.0,0.0,0.0,0.0,0.0,0.0,0.0,0.0,0.0,0.0,0.0,0.0,0.0,0.0,0.0,0.0,0.0,0.0,0.0,0.0,0.0,0.0,0.0,0.0,0.0,0.0,0.0,0.0,0.0,0.0,0.0,0.0,0.0,0.0,0.0,0.0,0.0,0.0,0.0,0.0,0.0,0.0,0.0,0.0,0.0,0.0,0.0,0.0,0.0,0.0,0.0,0.0,0.0,0.0,0.0,0.0,0.0,0.0,0.0,0.0,0.0,0.0,0.0,0.0,0.0,0.0,0.0,0.0,0.0,0.0,0.0,0.0,0.0,0.0,6.1093,6.1093,6.1093,6.1093,6.1414,6.2128,6.2199,6.2485,6.3199,6.3234,0.0,0.0,0.0,0.0,0.0,0.0,0.0,0.0,0.0,0.0,0.0,0.0,0.0,0.0,0.0,0.0,0.0,0.0,0.0,0.0,0.0,0.0,0.0,0.0,0.0,0.0,0.0,0.0,0.0,0.0,0.0,0.0,0.0,0.0,0.0,0.0,0.0,0.0,0.0,0.0,0.0,0.0,0.0,0.0,0.0,0.0,0.0,0.0,0.0,0.0,0.0,0.0,0.0,0.0,0.0,0.0,0.0,0.0,0.0,0.0,0.0,0.0,0.0,0.0,0.0,0.0,0.0,0.0,0.0,0.0,0.0,0.0,0.0,0.0,0.0,0.0,0.0,0.0,0.0,0.0,0.0,0.0,0.0,0.0,0.0,0.0,0.0,0.0,0.0,0.0,0.0,0.0,0.0,0.0,0.0,0.0,0.0,0.0,0.0,0.0,0.0,0.0,6.1341,6.16,6.1843,6.2235,6.2663,6.2949,6.2985,6.3092,6.3377,0.0,0.0,0.0,0.0,0.0,0.0,0.0,0.0,0.0,0.0,0.0,0.0,0.0,0.0,0.0,0.0,0.0,0.0,0.0,0.0,0.0,0.0,0.0,0.0,0.0,0.0,0.0,0.0,0.0,0.0,0.0,0.0,0.0,0.0,0.0,0.0,0.0,0.0,0.0,0.0,0.0,0.0,0.0,0.0,0.0,0.0,0.0,0.0,0.0,0.0,0.0,0.0,0.0,0.0,0.0,0.0,0.0,0.0,0.0,0.0,0.0,0.0,0.0,0.0,0.0,0.0,0.0,0.0,0.0,0.0,0.0,0.0,0.0,0.0,0.0,0.0,0.0,0.0,0.0,0.0,0.0,0.0,0.0,0.0,0.0,0.0,0.0,0.0,0.0,0.0,0.0,0.0,0.0,0.0,0.0,0.0,0.0,0.0,0.0,0.0,0.0,0.0,6.1486,6.1981,6.2382,6.2628,6.3092,6.3484,6.377,6.377,6.3877,6.4126,0.0,0.0,0.0,0.0,0.0,0.0,0.0,0.0,0.0,0.0,0.0,0.0,0.0,0.0,0.0,0.0,0.0,0.0,0.0,0.0,0.0,0.0,0.0,0.0,0.0,0.0,0.0,0.0,0.0,0.0,0.0,0.0,0.0,0.0,0.0,0.0,0.0,0.0,0.0,0.0,0.0,0.0,0.0,0.0,0.0,0.0,0.0,0.0,0.0,0.0,0.0,0.0,0.0,0.0,0.0,0.0,0.0,0.0,0.0,0.0,0.0,0.0,0.0,0.0,0.0,0.0,0.0,0.0,0.0,0.0,0.0,0.0,0.0,0.0,0.0,0.0,0.0,0.0,0.0,0.0,0.0,0.0,0.0,0.0,0.0,0.0,0.0,0.0,0.0,0.0,0.0,0.0,0.0,0.0,0.0,0.0,0.0,0.0,0.0,0.0,0.0,0.0,6.2307,6.2949,6.3413,6.3413,6.3413,6.3734,6.4555,6.4626,6.4983,0.0,0.0,0.0,0.0,0.0,0.0,0.0,0.0,0.0,0.0,0.0,0.0,0.0,0.0,0.0,0.0,0.0,0.0,0.0,0.0,0.0,0.0,0.0,0.0,0.0,0.0,0.0,0.0,0.0,0.0,0.0,0.0,0.0,0.0,0.0,0.0,0.0,0.0,0.0,0.0,0.0,0.0,0.0,0.0,0.0,0.0,0.0,0.0,0.0,0.0,0.0,0.0,0.0,0.0,0.0,0.0,0.0,0.0,0.0,0.0,0.0,0.0,0.0,0.0,0.0,0.0,0.0,0.0,0.0,0.0,0.0,0.0,0.0,0.0,0.0,0.0,0.0,0.0,0.0,0.0,0.0,0.0,0.0,0.0,0.0,0.0,0.0,0.0,0.0,0.0,0.0,0.0,0.0,0.0,0.0,0.0,0.0,0.0,0.0,0.0,0.0,0.0,0.0,6.3056,6.3547,6.3982,6.4234,6.4733,6.5034,6.5054,6.4989,6.5095,6.5344,0.0,0.0,0.0,0.0,0.0,0.0,0.0,0.0,0.0,0.0,0.0,0.0,0.0,0.0,0.0,0.0,0.0,0.0,0.0,0.0,0.0,0.0,0.0,0.0,0.0,0.0,0.0,0.0,0.0,0.0,0.0,0.0,0.0,0.0,0.0,0.0,0.0,0.0,0.0,0.0,0.0,0.0,0.0,0.0,0.0,0.0,0.0,0.0,0.0,0.0,0.0,0.0,0.0,0.0,0.0,0.0,0.0,0.0,0.0,0.0,0.0,0.0,0.0,0.0,0.0,0.0,0.0,0.0,0.0,0.0,0.0,0.0,0.0,0.0,0.0,0.0,0.0,0.0,0.0,0.0,0.0,0.0,0.0,0.0,0.0,0.0,0.0,0.0,0.0,0.0,0.0,0.0,0.0,0.0,0.0,0.0,0.0,0.0,0.0,0.0,0.0,0.0,6.3626,6.4043,6.4407,6.4604,6.503,6.5247,6.5011,6.5011,6.5011,6.5011,0.0,0.0,0.0,0.0,0.0,0.0,0.0,0.0,0.0,0.0,0.0,0.0,0.0,0.0,0.0,0.0,0.0,0.0,0.0,0.0,0.0,0.0,0.0,0.0,0.0,0.0,0.0,0.0,0.0,0.0,0.0,0.0,0.0,0.0,0.0,0.0,0.0,0.0,0.0,0.0,0.0,0.0,0.0,0.0,0.0,0.0,0.0,0.0,0.0,0.0,0.0,0.0,0.0,0.0,0.0,0.0,0.0,0.0,0.0,0.0,0.0,0.0,0.0,0.0,0.0,0.0,0.0,0.0,0.0,0.0,0.0,0.0,0.0,0.0,0.0,0.0,0.0,0.0,0.0,0.0,0.0,0.0,0.0,0.0,0.0,0.0,0.0,0.0,0.0,0.0,0.0,0.0,0.0,0.0,0.0,0.0,0.0,0.0,0.0,0.0,0.0,0.0,6.422,6.4489,6.4706,6.4706,6.4776,6.4811,6.4742,6.4812,6.4847,6.4847,0.0,0.0,0.0,0.0,0.0,0.0,0.0,0.0,0.0,0.0,0.0,0.0,0.0,0.0,0.0,0.0,0.0,0.0,0.0,0.0,0.0,0.0,0.0,0.0,0.0,0.0,0.0,0.0,0.0,0.0,0.0,0.0,0.0,0.0,0.0,0.0,0.0,0.0,0.0,0.0,0.0,0.0,0.0,0.0,0.0,0.0,0.0,0.0,0.0,0.0,0.0,0.0,0.0,0.0,0.0,0.0,0.0,0.0,0.0,0.0,6.2307,6.1664,0.0,0.0,0.0,0.0,0.0,0.0,0.0,0.0,0.0,0.0,0.0,0.0,0.0,0.0,0.0,0.0,0.0,0.0,0.0,0.0,0.0,0.0,0.0,0.0,0.0,0.0,0.0,0.0,0.0,0.0,0.0,0.0,0.0,0.0,0.0,0.0,0.0,0.0,0.0,0.0,6.4964,6.4806,6.4706,6.4706,6.5233,6.5479,6.5194,6.568,6.6028,6.6028,6.6028,0.0,0.0,0.0,0.0,0.0,0.0,0.0,0.0,0.0,0.0,0.0,0.0,0.0,0.0,0.0,0.0,0.0,0.0,0.0,0.0,0.0,0.0,0.0,0.0,0.0,0.0,0.0,0.0,0.0,0.0,0.0,0.0,0.0,0.0,0.0,0.0,0.0,0.0,0.0,0.0,0.0,0.0,0.0,0.0,0.0,0.0,0.0,0.0,0.0,0.0,0.0,0.0,0.0,0.0,0.0,0.0,0.0,0.0,0.0,6.2985,6.2592,0.0,0.0,0.0,0.0,0.0,0.0,0.0,0.0,0.0,0.0,0.0,0.0,0.0,0.0,0.0,0.0,0.0,0.0,0.0,0.0,0.0,0.0,0.0,0.0,0.0,0.0,0.0,0.0,0.0,0.0,0.0,0.0,0.0,0.0,0.0,0.0,0.0,0.0,0.0,0.0,6.5508,6.5373,6.5259,6.5259,6.5607,6.5777,6.5555,6.5937,6.6145,6.6145,6.6145,0.0,0.0,0.0,0.0,0.0,0.0,0.0,0.0,0.0,0.0,0.0,0.0,0.0,0.0,0.0,0.0,0.0,0.0,0.0,0.0,0.0,0.0,0.0,0.0,0.0,0.0,0.0,0.0,0.0,0.0,0.0,0.0,0.0,0.0,0.0,0.0,0.0,0.0,0.0,0.0,0.0,0.0,0.0,0.0,0.0,0.0,0.0,0.0,0.0,0.0,0.0,0.0,0.0,6.3092,6.3448,6.3591,6.3591,6.3698,6.3805,6.3805,6.3663,6.3413,6.3698,0.0,0.0,0.0,0.0,0.0,0.0,0.0,0.0,0.0,0.0,0.0,0.0,0.0,0.0,0.0,0.0,0.0,0.0,0.0,0.0,0.0,0.0,6.5467,6.5399,6.523,6.5021,6.4591,0.0,0.0,0.0,0.0,0.0,0.0,0.0,0.0,0.0,0.0,0.0,6.5899,6.5912,6.5876,6.5876,6.6014,6.6083,6.6083,6.6186,6.6255,6.6255,6.6255,6.6531,0.0,0.0,0.0,0.0,0.0,0.0,0.0,0.0,0.0,0.0,0.0,0.0,0.0,0.0,0.0,0.0,0.0,0.0,0.0,0.0,0.0,0.0,0.0,0.0,0.0,0.0,0.0,0.0,0.0,0.0,0.0,0.0,5.8481,5.8645,0.0,0.0,0.0,0.0,0.0,0.0,0.0,0.0,0.0,0.0,0.0,0.0,0.0,6.2449,6.3092,6.3199,6.3234,6.3234,6.3341,6.377,6.4448,6.4448,6.484,6.5482,6.5482,0.0,6.3484,6.4912,0.0,0.0,0.0,0.0,0.0,0.0,0.0,0.0,0.0,0.0,0.0,0.0,0.0,0.0,0.0,0.0,0.0,0.0,0.0,0.0,0.0,0.0,6.6707,6.6348,6.6493,6.6601,6.6209,6.5303,6.4776,6.5618,6.5759,6.6039,0.0,0.0,0.0,0.0,0.0,0.0,6.6342,6.611,6.5876,6.5876,6.6462,6.6842,6.6842,6.7428,6.7807,6.7807,6.7807,6.7842,6.7945,6.7945,0.0,0.0,0.0,0.0,0.0,0.0,0.0,0.0,0.0,0.0,0.0,0.0,0.0,0.0,0.0,0.0,0.0,0.0,0.0,0.0,0.0,0.0,0.0,0.0,0.0,0.0,0.0,0.0,0.0,5.9166,5.9559,6.0023,6.038,6.0558,0.0,0.0,0.0,0.0,0.0,0.0,0.0,0.0,0.0,6.2913,6.2913,6.3056,6.3377,6.3841,6.4091,6.4091,6.4519,6.4947,6.5268,6.5268,6.5482,6.5804,6.5804,6.5411,6.4804,6.5518,6.559,6.5304,0.0,0.0,0.0,0.0,6.6482,6.6517,6.6946,6.7088,6.7088,6.7088,0.0,0.0,0.0,0.0,0.0,0.0,0.0,6.7375,6.7583,6.7445,6.7236,6.688,6.6845,6.6917,6.6808,6.6211,6.5826,6.6391,6.6426,6.6673,6.7479,6.7411,0.0,0.0,0.0,6.7217,6.7069,6.7073,6.7118,6.7118,6.7428,6.7601,6.7601,6.7911,6.8083,6.8083,6.8083,6.8083,6.8083,6.8083,6.7684,0.0,0.0,0.0,0.0,0.0,0.0,0.0,0.0,0.0,0.0,0.0,0.0,0.0,0.0,0.0,0.0,0.0,0.0,0.0,0.0,0.0,0.0,0.0,0.0,0.0,0.0,0.0,0.0,6.0201,6.0451,6.1022,6.1093,6.1165,0.0,0.0,0.0,0.0,0.0,0.0,6.2556,6.3092,6.3484,6.3698,6.3698,6.3805,6.4019,6.4626,6.4912,6.4912,6.5518,6.5804,6.5804,6.6018,6.6125,6.6125,6.6303,6.6375,6.6375,6.6161,6.6125,6.6125,6.6303,6.6375,6.6446,6.7053,6.7267,6.7338,6.7909,6.8088,6.8088,6.8088,6.823,6.8409,6.8409,0.0,0.0,0.0,0.0,6.8627,6.8255,6.8185,6.8116,6.7657,6.7585,6.7585,6.7585,6.7403,6.7186,6.7158,6.7088,6.7158,6.7799,6.762,0.0,6.7834,6.7858,6.7759,6.7683,6.7895,6.8083,6.8083,6.8083,6.8083,6.8083,6.8083,6.8083,6.8083,6.8083,6.8083,6.8083,6.8083,6.7765,6.7112,0.0,0.0,0.0,0.0,0.0,0.0,0.0,0.0,0.0,0.0,0.0,0.0,0.0,0.0,0.0,0.0,0.0,0.0,0.0,0.0,0.0,0.0,0.0,0.0,0.0,0.0,0.0,0.0,0.0,6.1093,6.1093,0.0,0.0,0.0,0.0,6.3234,6.3306,6.3341,6.3341,6.3377,6.3734,6.4519,6.4555,6.4912,6.5661,6.5732,6.5732,6.5732,6.5768,6.5804,6.5839,6.6589,6.691,6.6981,6.7659,6.798,6.7909,6.7231,6.691,6.7017,6.7695,6.798,6.798,6.8016,6.8016,6.8052,6.8088,6.8088,6.8088,6.8088,6.8623,6.9265,6.9265,6.9765,0.0,0.0,7.0371,7.0303,6.9849,6.9778,6.9707,6.9273,6.9165,6.9165,6.9165,6.92,6.8807,6.781,6.7219,6.7384,6.8461,0.0,6.86,6.8676,6.86,6.8482,6.8128,6.8083,6.8083,6.8083,6.8083,6.8083,6.8083,6.8083,6.8083,6.8083,6.8083,6.8083,6.8083,6.8083,6.7765,6.7112,6.644,0.0,0.0,0.0,0.0,0.0,0.0,0.0,0.0,0.0,0.0,0.0,0.0,0.0,0.0,0.0,0.0,0.0,0.0,0.0,0.0,0.0,0.0,0.0,0.0,0.0,0.0,0.0,0.0,6.1843,6.2271,0.0,6.2985,6.2985,6.3092,6.3377,6.3877,6.4162,6.4162,6.4662,6.509,6.5375,6.5375,6.5518,6.5804,6.5804,6.6053,6.6553,6.6553,6.6803,6.7302,6.7588,6.7695,6.7695,6.798,6.8088,6.8123,6.8373,6.8195,6.7731,6.798,6.8088,6.8159,6.8694,6.8873,6.8944,6.9479,6.9658,6.9658,6.9658,6.9836,7.0086,7.0086,7.0264,7.0514,7.0514,7.0272,7.0132,7.0272,6.9885,6.9452,6.9305,6.9525,6.9525,6.9008,6.9157,6.9087,6.8433,6.8211,6.8239,6.8635,6.8474,6.8397,6.8628,6.8474,6.8241,6.8083,6.8083,6.8083,6.8083,6.8083,6.8083,6.8083,6.8083,6.8083,6.8083,6.8083,6.8083,6.8083,6.8083,6.8004,6.7765,6.7523,6.6829,0.0,0.0,0.0,0.0,0.0,0.0,0.0,0.0,0.0,0.0,0.0,0.0,0.0,0.0,0.0,0.0,0.0,0.0,0.0,0.0,0.0,0.0,0.0,0.0,0.0,6.2164,6.2663,6.2663,6.3092,6.3484,6.377,6.3805,6.3912,6.4198,6.4697,6.5019,6.5019,6.5518,6.5804,6.5804,6.6053,6.6196,6.6196,6.6446,6.6839,6.7374,6.7374,6.7624,6.8088,6.8373,6.8516,6.8516,6.8801,6.8908,6.8944,6.9515,6.9408,6.8908,6.8908,6.8908,6.898,6.9515,6.9729,6.98,7.0336,7.0514,7.0514,7.0514,7.0514,7.0514,7.0514,7.0514,7.0514,7.0514,7.0202,6.9991,7.0202,6.9813,6.9305,6.9452,6.9525,6.9452,6.9157,6.9008,6.8857,6.8705,6.8628,6.8474,6.8474,6.8241,6.8162,6.8474,6.8241,6.8083,6.8083,6.8083,6.8083,6.8083,6.8083,6.8083,6.8083,6.8083,6.8083,6.8083,6.8083,6.8083,6.8083,6.8083,6.8004,6.7765,6.7325,6.6491,6.5392,0.0,0.0,0.0,0.0,0.0,0.0,0.0,0.0,0.0,0.0,0.0,0.0,0.0,0.0,0.0,0.0,0.0,0.0,0.0,0.0,0.0,0.0,0.0,6.2414,6.2949,6.3413,6.3413,6.3448,6.377,6.459,6.4662,6.4983,6.5732,6.5804,6.5804,6.5839,6.5839,6.5839,6.5875,6.6624,6.7017,6.7017,6.7731,6.8088,6.8123,6.8123,6.8159,6.8195,6.898,6.9372,6.9408,7.0157,7.0514,7.0514,7.0514,7.0514,7.0514,7.0514,7.0514,7.0514,7.0514,7.0514,7.0514,7.0514,7.0514,7.0514,7.0514,7.0514,7.0514,7.0514,7.0514,7.0514,7.0514,7.0202,6.9885,6.992,6.9598,6.9379,6.9742,6.9305,6.8932,6.967,6.8932,6.8241,6.8628,6.8397,6.8083,6.8083,6.8083,6.8083,6.8083,6.8083,0.0,6.8083,6.8083,6.8083,6.8083,6.8083,6.8083,6.8083,6.8083,6.8083,6.8083,6.8083,6.8083,6.8083,6.8083,6.7765,6.7112,6.5713,6.4669,6.3991,0.0,0.0,0.0,0.0,0.0,0.0,0.0,0.0,0.0,0.0,0.0,0.0,0.0,0.0,0.0,0.0,0.0,0.0,0.0,0.0,0.0,0.0,6.4019,6.3199,6.377,6.4269,6.4269,6.4804,6.5233,6.5447,6.5482,6.5554,6.5768,6.5804,6.6053,6.6624,6.666,6.691,6.7445,6.7659,6.7802,6.7802,6.798,6.8373,6.898,6.898,6.9301,6.9836,7.0086,7.0193,7.0193,7.0407,7.0514,7.0514,7.0514,7.0514,7.0514,7.0514,7.0514,7.0514,7.0514,7.0514,7.0514,7.0514,7.0514,7.0514,7.0514,7.0514,7.0514,7.0514,7.0514,7.0514,7.0514,7.0202,6.9991,7.0272,6.9598,6.9008,6.9379,6.9083,6.8705,6.8628,6.8551,6.8474,6.8319,6.8162,6.8083,6.8083,6.8083,6.8083,6.8083,6.8083,6.8083,6.8083,6.8083,6.8083,6.8083,6.8083,6.8083,6.8083,6.8083,6.8083,6.8083,6.8083,6.8083,6.8083,6.8083,6.7765,6.7112,6.5713,6.491,0.0,0.0,0.0,0.0,0.0,0.0,0.0,0.0,0.0,0.0,0.0,0.0,0.0,0.0,0.0,0.0,0.0,0.0,0.0,0.0,0.0,0.0,6.4804,6.4947,6.4448,6.4804,6.5126,6.5126,6.5518,6.5804,6.5804,6.6089,6.6303,6.6303,6.6589,6.6981,6.7445,6.7445,6.7659,6.8088,6.8444,6.8587,6.8587,6.8944,6.9337,6.98,6.98,7.005,7.0514,7.0514,7.0514,7.0514,7.0514,7.0514,7.0514,7.0514,7.0514,7.0514,0.0,0.0,0.0,0.0,7.0514,7.0514,7.0514,7.0514,7.0514,7.0514,7.0514,7.0514,7.0514,7.0514,7.0514,7.0514,7.0202,6.9956,7.0202,6.9598,6.9008,6.9231,6.9008,6.8628,6.8397,6.8397,6.8397,6.8162,6.8083,0.0,6.8083,6.8083,6.8083,6.8083,6.8083,6.8083,6.8083,6.8083,6.8083,6.8083,6.8083,6.8083,6.8083,6.8083,0.0,0.0,0.0,6.8083,6.8083,6.7604,0.0,0.0,0.0,6.4761,6.5,6.4333,0.0,0.0,6.3797,6.3764,0.0,0.0,0.0,0.0,0.0,0.0,0.0,0.0,0.0,0.0,0.0,0.0,0.0,0.0,0.0,0.0,6.5804,6.5804,6.5804,6.5875,6.5911,6.5804,6.5875,6.5946,6.5946,6.666,6.7124,6.7124,6.7731,6.8123,6.823,6.823,0.0,0.0,0.0,6.9444,6.9444,7.0157,7.0514,7.0514,7.0514,7.0514,7.0514,7.0514,7.0514,7.0514,7.0514,7.0514,7.0514,7.0514,7.0514,7.0514,7.0514,7.0514,7.0514,7.0514,7.0514,7.0514,7.0514,0.0,0.0,7.0514,7.0514,7.0514,7.0514,7.0514,7.0514,7.0445,7.0202,6.9991,6.9849,6.9598,6.9305,6.9231,6.8932,6.8628,6.8628,6.8319,6.8083,6.8083,6.8083,6.8083,6.8083,6.8083,6.8083,6.8083,6.8083,6.8083,6.8083,6.8083,6.8083,6.8083,6.8083,0.0,6.8083,6.8083,6.8083,6.8083,6.8187,6.8221,6.8221,6.715,6.6675,6.7217,6.5387,6.4561,6.514,6.45,6.425,6.425,6.4088,6.4024,0.0,0.0,0.0,0.0,0.0,0.0,0.0,0.0,0.0,0.0,0.0,0.0,0.0,0.0,0.0,6.5768,6.5804,6.5804,6.5804,6.6339,6.6517,6.5875,6.6375,6.6767,6.6767,6.7445,6.7873,6.7873,6.8016,6.8373,6.9051,6.9087,6.9372,7.0015,7.0193,7.0264,7.0264,7.0443,7.0514,7.0514,7.0514,0.0,7.0514,7.0514,7.0514,7.0514,7.0514,7.0514,7.0514,7.0514,7.0514,7.0514,7.0514,7.0514,7.0514,7.0514,7.0514,7.0514,7.0514,7.0514,7.0514,7.0514,7.0514,7.0514,7.0514,7.0514,0.0,7.0132,7.0202,7.0202,6.9598,6.9379,6.9231,6.8932,6.8474,6.8241,6.8241,6.8162,6.8083,6.8083,6.8083,6.8083,6.8083,6.8083,6.8083,6.8083,6.8083,6.8083,6.8083,6.8083,6.8083,6.8083,6.8083,6.8083,6.8083,6.8083,6.8083,6.8083,6.8704,6.9049,6.9049,6.8861,6.8571,6.8047,6.7115,6.6406,6.5868,6.5804,6.5708,6.5675,6.4542,6.4024,0.0,0.0,0.0,0.0,0.0,0.0,0.0,0.0,0.0,0.0,0.0,6.5804,0.0,0.0,6.5804,6.5804,6.6125,6.641,6.641,6.7053,6.7267,6.6482,6.7088,6.7552,6.7552,6.823,6.8694,6.8694,6.9087,6.9479,6.9907,6.9907,7.0086,7.0478,7.0514,7.0514,7.0514,7.0514,7.0514,7.0514,7.0514,7.0514,7.0514,7.0514,7.0514,7.0514,7.0514,7.0514,7.0514,7.0514,7.0514,7.0514,7.0514,7.0514,7.0514,7.0514,7.0514,7.0514,7.0514,7.0514,7.0514,7.0514,7.0514,7.0514,7.0514,7.0514,7.0445,7.0272,7.0202,7.0062,6.9452,6.9305,6.9157,6.8551,6.8397,6.8319,6.8162,6.8428,6.8704,6.8704,6.898,6.9256,6.9256,6.9256,6.898,6.8221,6.8428,6.8704,6.8704,6.9015,6.9256,6.9256,6.9256,6.9256,6.9256,6.9256,6.9256,6.9256,6.9601,6.9842,6.9842,6.9609,6.9356,6.9322,6.7969,6.7175,6.7208,6.6483,6.6096,6.6096,6.5384,6.506,0.0,0.0,0.0,0.0,0.0,0.0,0.0,0.0,6.5804,6.5804,6.5804,6.5839,6.6018,6.6018,6.6089,6.6232,6.6767,6.7195,6.7195,6.7838,6.8123,6.7517,6.798,6.8337,6.8337,6.9051,6.9551,6.9551,7.0157,7.0514,7.0514,7.0514,7.0514,7.0514,7.0514,7.0514,7.0514,7.0514,7.0514,7.0514,7.0514,7.0514,7.0514,7.0514,7.0514,7.0514,7.0514,7.0514,7.0514,7.0514,7.0514,7.0514,7.0514,7.0514,7.0514,7.0514,7.0514,7.0514,7.0514,7.0514,7.0514,7.0514,7.0514,7.0514,7.0514,7.0445,7.0376,7.0272,7.0062,6.9705,6.9407,6.9402,6.9287,6.8656,6.8769,6.8925,6.8611,6.9049,6.9497,6.9497,6.998,7.0394,7.0394,7.0394,6.998,6.8739,6.9084,6.9497,6.9497,7.0015,7.0394,7.0394,7.0394,7.0394,7.0394,7.0394,7.0394,7.0394,7.0532,7.0601,7.0601,7.0156,6.997,7.0393,6.8583,6.785,6.8253,6.7066,6.6517,6.6517,6.6517,6.6355,6.5804,6.5804,6.5804,6.5804,6.5804,6.5804,0.0,0.0,6.5804,6.5804,6.5804,6.6018,6.6731,6.6874,6.7053,6.7731,6.7909,6.798,6.798,6.8658,6.9158,6.9051,6.9122,6.9194,6.9194,6.9907,7.0371,7.0371,7.0443,7.0514,7.0514,7.0514,7.0514,7.0514,7.0514,7.0514,7.0514,7.0514,7.0514,7.0514,7.0514,7.0514,7.0514,7.0514,7.0514,7.0514,7.0514,7.0514,7.0514,7.0514,7.0514,7.0514,7.0514,7.0514,7.0514,7.0514,7.0514,7.0514,7.0514,7.0514,7.0514,7.0514,7.0514,7.0514,7.0514,7.0272,6.9885,6.9525,6.9379,6.9407,6.9341,6.9515,6.9845,7.0142,7.0199,7.0199,7.0118,7.0187,7.0256,7.0256,7.0325,7.0394,7.0394,7.0394,7.0325,7.0153,7.0222,7.0256,7.0256,7.0325,7.0394,7.0394,7.0394,7.0394,7.0394,7.0394,7.0394,7.0394,7.1015,7.136,7.136,7.1336,7.1063,7.0489,6.9561,6.8796,6.8241,6.8074,6.7974,6.7974,6.7974,6.7294,6.5804,6.5804,6.5804,0.0,6.5804,6.5804,6.5804,6.5804,6.5946,6.641,6.6482,6.6731,6.7481,6.7624,6.7731,0.0,6.848,6.8801,6.8801,6.9515,7.0015,7.0015,7.0015,7.0015,7.0015,7.03,7.0514,7.0514,7.0514,7.0514,7.0514,7.0514,7.0514,7.0514,7.0514,7.0514,7.0514,7.0514,7.0514,7.0514,7.0514,7.0514,7.0514,7.0978,7.1442,7.1834,7.1834,7.1834,7.1834,7.1834,7.1834,7.1834,7.1834,7.1834,7.1727,7.0835,7.0514,7.0514,7.0514,7.08,7.1192,7.1192,7.1478,7.1834,7.1834,7.1694,7.1517,7.1084,7.0789,7.0558,7.0367,7.0233,7.0222,7.0407,7.0394,7.0394,7.0394,7.0739,7.1015,7.1015,7.1394,7.1705,7.1705,7.1705,7.1705,7.1705,7.1325,7.1015,7.1015,7.1429,7.1705,7.1705,7.1705,7.1705,7.1705,7.1705,7.1705,7.1705,7.2015,7.2188,7.2188,7.2244,7.2124,7.1776,7.0632,6.9794,6.9541,6.8666,6.8201,6.8201,6.8201,6.7877,6.5804,0.0,0.0,6.5804,6.5804,6.5875,6.6089,6.6125,6.6339,6.7124,6.7302,6.7517,6.8302,6.8444,6.8516,6.873,6.9265,6.9658,6.9658,7.0157,7.0514,7.0514,7.0514,7.0514,7.0514,7.0514,7.0514,7.0514,7.0514,7.0514,7.0514,7.0514,7.0514,7.0514,7.0514,7.0514,7.0514,7.0514,7.0621,7.0835,7.0835,7.0942,7.1156,7.1727,7.2298,7.2798,7.2798,7.2798,7.2798,7.2798,7.2798,7.2798,7.2798,7.2798,7.2655,7.1549,7.1121,7.1121,7.1121,7.1513,7.1977,7.1977,7.237,7.2798,7.2798,7.2656,7.2405,7.2148,7.1663,7.1272,7.1166,7.0915,7.0739,7.0946,7.1015,7.1015,7.1015,7.1429,7.1808,7.1808,7.2291,7.2671,7.2671,7.2671,7.2671,7.2671,7.2188,7.1808,7.1808,7.2326,7.2671,7.2671,7.2671,7.2671,7.2671,7.2671,7.2671,7.2671,7.2671,7.2671,7.2671,7.2501,7.2296,7.2124,7.0849,7.0076,6.9888,6.8765,6.8201,6.8201,6.8201,6.8201,0.0,0.0,6.5804,6.5804,6.5804,6.6018,6.6767,6.6946,6.716,6.7909,6.8052,6.8302,6.9122,6.9265,6.9551,7.03,7.0443,7.0478,7.0478,7.0478,7.0514,7.0514,7.0514,7.0514,7.0514,7.0514,7.0514,7.0514,7.0514,7.0514,7.0514,7.0514,7.0514,7.0514,7.0514,7.0514,7.0514,7.0514,7.0907,7.1656,7.1656,7.2049,7.2727,7.2762,7.2762,7.2798,7.2798,7.2798,7.2798,7.2798,7.2798,7.2798,7.2798,7.2798,7.2798,7.2762,7.2727,7.2727,7.2727,7.2762,7.2762,7.2762,7.2762,7.2798,7.2798,7.2259,7.1663,7.1587,7.1081,7.0648,7.1256,7.1463,7.1636,7.2429,7.2602,7.2602,7.2602,7.2636,7.2636,7.2636,7.2671,7.2671,7.2671,7.2671,7.2671,7.2671,7.2671,7.2636,7.2636,7.2671,7.2671,7.2671,7.2671,7.2671,7.2671,7.2671,7.2671,7.2671,7.2671,7.2671,7.2671,7.2038,7.13,7.0574,6.9794,6.8961,6.8301,6.8201,6.8201,6.8201,6.8201,6.8201,0.0,0.0,6.5804,6.5804,6.6196,6.666,6.691,6.7374,6.7945,6.873,6.8908,6.9158,6.9943,7.0122,7.0193,7.0478,7.0514,7.0514,7.0514,7.0514,7.0514,7.0514,7.0514,0.0,0.0,7.0514,7.0514,7.0514,7.0514,7.0514,7.0514,7.0514,7.0514,7.0514,7.0514,7.0764,7.1299,7.1299,7.1692,7.2405,7.2405,7.2834,7.3619,7.3619,7.3904,7.4404,7.4404,7.4404,7.4404,7.4404,7.4404,7.4404,7.4404,7.4404,7.4404,7.4404,7.4404,7.4225,7.3155,7.3155,7.3619,7.3619,7.3976,7.4404,7.4404,7.4223,7.3854,7.3287,7.2897,7.2649,7.2354,7.2291,7.2326,7.2602,7.2671,7.2671,7.2671,7.2671,7.2671,7.2671,7.2671,7.2671,7.2671,7.2671,7.2843,7.3326,7.2981,7.2671,7.2671,7.2671,7.2671,7.2671,7.2671,7.2671,7.2671,7.2671,7.2671,7.2671,7.2671,7.2671,7.2671,7.1951,7.1688,7.1951,7.017,6.9412,6.9699,6.8666,6.8201,6.8201,6.8201,6.8201,0.0,6.5804,6.5875,6.6161,6.6624,6.7124,6.7695,6.8195,6.8766,6.9586,6.9729,6.9907,7.0407,7.0514,7.0514,7.0514,7.0514,7.0514,7.0514,7.0514,7.0514,7.0514,7.0514,7.0514,0.0,0.0,0.0,7.0514,7.0514,7.0514,7.0514,7.0514,7.0514,7.0514,7.08,7.1192,7.1692,7.1942,7.2477,7.3226,7.3512,7.394,7.444,7.444,7.4725,7.5225,7.5225,7.5225,7.5225,7.5225,7.5225,7.5225,7.5225,7.5225,7.5225,7.5225,7.5225,7.5046,7.4011,7.4011,7.444,7.444,7.4796,7.5189,7.5042,7.4894,7.4558,7.3861,7.3622,7.338,7.2838,7.2671,7.2671,7.2671,7.2671,7.2671,7.2671,7.2877,7.3084,7.3084,7.3291,7.3498,7.3498,7.3498,7.3636,7.4119,7.3774,7.3498,7.3498,7.3498,7.3498,7.3498,7.3498,7.3498,7.3498,7.3498,7.3498,7.3498,7.3498,7.3498,7.3498,7.3033,7.2737,7.2649,7.1252,7.0494,7.0431,6.9482,6.8978,6.8978,6.8978,6.8978,6.5804,6.5839,6.6053,6.6803,6.7053,6.7481,6.898,6.9337,6.9586,7.0336,7.0514,7.0514,0.0,0.0,7.0514,7.0514,7.0514,7.0514,7.0514,7.0514,7.0514,0.0,0.0,0.0,0.0,0.0,0.0,7.0514,7.0514,7.0514,7.0514,7.055,7.055,7.055,7.1335,7.1763,7.1799,7.2548,7.3298,7.4083,7.4868,7.5225,7.5225,7.5225,7.5225,7.5225,7.5225,7.5225,7.5225,7.5225,7.5151,7.5151,7.5116,7.5116,7.5151,7.5116,7.5116,7.5151,7.5116,7.5116,7.5151,7.5116,7.5116,7.5042,7.4669,7.4252,7.3861,7.338,7.3005,7.2755,7.2671,7.2671,7.2705,7.274,7.274,7.274,7.2774,7.336,7.3843,7.3843,7.443,7.4947,7.4947,7.4947,7.4981,7.4981,7.5016,7.5016,7.4947,7.4947,7.4947,7.4947,7.4947,7.4947,7.4947,7.4947,7.4947,7.4947,7.4947,7.4947,7.4947,7.4825,7.4172,7.2787,7.2692,7.1951,7.0507,7.0403,7.0403,7.0403,7.0403,7.0403,6.5804,6.6232,6.6731,6.6946,6.7873,6.8837,6.9229,6.9765,7.0264,7.0478,7.0514,7.0514,0.0,0.0,0.0,7.0514,7.0514,0.0,7.0514,7.0514,0.0,7.0514,0.0,7.0514,7.0514,7.0514,0.0,0.0,7.0514,7.0514,7.0514,7.1085,7.1371,7.1371,7.212,7.2798,7.344,7.419,7.4689,7.4903,7.5118,7.5225,7.5225,7.5225,7.5225,7.5225,7.5225,7.5225,7.5225,7.4894,7.4744,7.4744,7.4329,7.4405,7.4669,7.4329,7.4405,7.4669,7.4329,7.4482,7.4669,7.4329,7.4252,7.4252,7.4096,7.4018,7.3861,7.338,7.3252,7.3088,7.2755,7.2671,7.2809,7.336,7.3498,7.3671,7.4223,7.4499,7.4636,7.4636,7.4809,7.4947,7.4947,7.543,7.5809,7.5809,7.6292,7.6223,7.5085,7.4947,7.4947,7.4947,7.4947,7.4947,7.4947,7.4947,7.4947,7.4947,7.4947,7.4947,7.4947,7.435,7.4172,7.4385,7.2692,7.1951,7.2147,7.0986,7.0403,7.0403,7.0403,7.0403,6.6232,6.666,6.716,6.7838,6.8658,6.9408,6.9765,7.0193,7.0514,7.0514,7.0514,0.0,7.0514,0.0,0.0,0.0,0.0,0.0,7.0514,7.0514,7.0514,0.0,7.0514,0.0,7.0514,7.0514,7.0514,0.0,7.0514,7.0657,7.1014,7.1442,7.1834,7.2156,7.2941,7.3726,7.4547,7.4975,7.5225,7.5225,7.5225,7.5225,7.5225,7.5225,7.5225,7.5225,7.5225,7.5116,7.4894,7.4669,7.4441,7.4252,7.4018,7.4096,7.4252,7.4018,7.4096,7.4322,7.4167,7.4272,7.4475,7.4045,7.394,7.3861,7.3702,7.3622,7.3612,7.3552,7.349,7.3559,7.3652,7.3671,7.3774,7.4188,7.4292,7.4395,7.4843,7.5223,7.5533,7.5878,7.5947,7.5947,7.5947,7.6292,7.6602,7.6602,7.6947,7.6913,7.6051,7.5947,7.5947,7.5947,7.5947,7.5947,7.5947,7.5947,7.5947,7.5947,7.5947,7.5947,7.5947,7.5557,7.5344,7.5344,7.4202,7.3435,7.3175,7.2309,7.1727,7.131,7.131,7.131,6.6767,6.7053,6.7481,6.8944,6.9408,6.9658,7.0336,7.0514,7.0514,7.0514,0.0,7.0514,7.0514,7.0514,7.0514,7.0514,0.0,7.0514,7.0514,7.0514,7.0514,7.0514,7.0514,7.0514,7.0514,7.0514,7.055,7.0657,7.0657,7.0942,7.1656,7.187,7.2334,7.3083,7.3797,7.4511,7.5189,7.5225,7.5225,7.5225,7.5225,7.5225,7.5225,7.5225,7.5225,7.5225,7.5225,7.4968,7.4593,7.4517,7.4322,7.4001,7.3922,7.3992,7.4176,7.4062,7.4062,7.4167,7.4343,7.4504,7.4399,7.4147,7.4062,7.3982,7.3612,7.353,7.3587,7.3825,7.3947,7.4085,7.474,7.4947,7.4947,7.505,7.5085,7.5119,7.5223,7.5775,7.6464,7.7085,7.7223,7.7223,7.7223,7.7223,7.7223,7.7223,7.7223,7.7223,7.7223,7.7223,7.7223,7.7223,7.7223,7.7223,7.7223,7.7099,7.7133,7.7223,7.7133,7.7133,7.7223,7.7223,7.6918,7.6207,7.608,7.5321,7.397,7.3767,7.3389,7.2688,7.2615,7.2508,6.6767,6.7445,6.8123,6.9087,6.98,7.0336,7.0478,7.0514,0.0,0.0,7.0514,7.0514,7.0514,7.0514,0.0,7.0514,0.0,0.0,0.0,0.0,7.0514,0.0,0.0,0.0,0.0,7.0514,0.0,0.0,7.1478,7.1549,7.1692,7.2905,7.3976,7.4761,7.4939,7.5082,7.5225,7.5225,7.5225,7.5225,7.5225,7.5225,7.5225,7.5225,7.5225,7.5225,7.5225,7.4968,7.4593,7.4174,7.4132,7.4321,7.3906,7.4406,7.5213,7.4876,7.4961,7.5248,7.4929,7.4826,7.4792,7.474,7.4705,7.4705,7.4619,7.4619,7.4654,7.4705,7.474,7.4774,7.4912,7.4947,7.5085,7.574,7.5913,7.6085,7.6706,7.6947,7.7085,7.7189,7.7223,7.7223,7.7223,7.7223,7.7223,7.7223,7.7223,7.7223,7.7223,7.7223,7.7223,7.7223,7.7223,7.7223,7.7223,7.6611,7.6519,7.7133,7.6611,7.6519,7.7223,7.7223,7.7133,7.7009,7.63,7.5892,7.5608,7.4373,7.3665,7.3492,7.2794,7.2508,6.7231,6.7838,6.8373,6.9622,7.0229,7.0514,7.0514,0.0,0.0,0.0,7.0514,7.0514,7.0514,0.0,0.0,0.0,0.0,0.0,0.0,0.0,0.0,0.0,0.0,0.0,0.0,7.0514,7.0835,7.162,7.2049,7.2441,7.2869,7.4011,7.4796,7.5189,7.5225,7.5225,7.5225,7.5225,7.5225,7.5225,7.5225,7.5225,7.5225,7.5225,7.5439,7.5831,7.5573,7.5484,7.5372,7.4973,7.4726,7.4618,7.4447,7.4688,7.5206,7.5034,7.5034,7.5241,7.5483,7.5533,7.5602,7.5982,7.5568,7.4947,7.4947,7.4947,7.5016,7.543,7.5533,7.5637,7.6016,7.612,7.6223,7.6602,7.6671,7.6775,7.7154,7.7223,7.7223,7.7223,7.7223,7.7223,7.7223,7.7223,7.7223,7.7223,7.7223,7.7223,7.7223,7.7223,7.7223,7.7223,7.7223,7.7223,7.7223,7.6519,7.6207,7.6519,7.5832,7.5546,7.596,7.596,7.6148,7.6611,7.6207,7.5798,7.545,7.4671,7.3869,7.311,7.2688,7.2508,6.7659,6.8088,6.848,7.0086,7.0514,7.0514,7.0514,7.0514,0.0,0.0,7.0514,7.0514,7.0514,0.0,0.0,0.0,0.0,0.0,0.0,0.0,0.0,0.0,0.0,0.0,0.0,7.0514,0.0,7.187,7.2798,7.3583,7.4225,7.4868,7.5225,7.5225,7.5225,7.5225,7.5225,7.5225,7.5225,7.5225,7.5225,7.5296,7.5474,7.5474,7.5829,7.6502,7.6163,7.6014,7.6059,7.5715,7.5481,7.5188,7.5188,7.5292,7.543,7.543,7.543,7.5499,7.6154,7.6361,7.643,7.7016,7.6395,7.543,7.543,7.543,7.5533,7.6189,7.6361,7.6499,7.7085,7.7223,7.7223,7.7223,7.7223,7.7223,7.7223,7.7223,7.7223,7.7223,7.7223,7.7223,7.7223,7.7223,7.7223,7.7223,7.7223,7.7223,7.7223,7.7223,7.7133,7.6918,7.6918,7.6918,7.6918,7.602,7.5608,7.5737,7.5064,7.4704,7.4902,7.4902,7.5161,7.5737,7.5737,7.545,7.4902,7.4704,7.4003,7.2794,7.2615,7.2508,6.7659,6.8088,6.848,7.0086,7.0514,7.0514,7.0514,0.0,0.0,7.0514,7.0514,7.0514,7.0514,0.0,0.0,0.0,0.0,0.0,0.0,0.0,0.0,0.0,0.0,0.0,7.0514,7.0514,7.1121,7.2584,7.4118,7.501,7.5082,7.5153,7.5225,7.5225,7.5225,7.5225,7.5225,7.5225,7.5225,7.5225,7.5225,7.5581,7.6295,7.6295,7.6463,7.6902,7.6824,7.6383,7.5631,7.5631,7.5708,7.6016,7.6016,7.643,7.7016,7.7016,7.7016,7.7016,7.7085,7.712,7.712,7.7189,7.712,7.7016,7.7016,7.7016,7.7016,7.7085,7.712,7.712,7.7189,7.7223,7.7223,7.7223,7.7223,7.7223,7.7223,7.7223,7.7223,7.7223,7.7223,7.7223,7.7223,7.7223,7.7223,7.7223,7.7223,7.7223,7.7223,7.7223,7.6918,7.6207,7.6114,7.6114,7.6114,7.4736,7.4172,7.5,7.4273,7.4172,7.4902,7.4902,7.4902,7.5,7.5,7.5,7.4902,7.4172,7.3767,7.3562,7.2794,7.2508,6.7659,6.8088,6.848,7.0086,7.0514,7.0514,7.0514,0.0,0.0,7.0514,7.0514,7.0514,7.0514,0.0,0.0,0.0,0.0,0.0,0.0,0.0,0.0,0.0,0.0,0.0,0.0,0.0,7.187,7.3405,7.4582,7.5225,7.5225,7.5225,7.5225,7.5225,7.5225,7.5225,7.5225,7.5225,7.5225,7.5225,7.5688,7.6081,7.6402,7.664,7.705,7.7638,7.7041,7.6908,7.6988,7.6678,7.6676,7.6775,7.6775,7.6947,7.7223,7.7223,7.7223,7.7223,7.7223,7.7223,7.7223,7.7223,7.7223,7.7223,7.7223,7.7223,7.7223,7.7223,7.7223,7.7223,7.7223,7.7223,7.7223,7.7223,7.7223,7.7223,7.7223,7.7223,7.7223,7.7223,7.7223,7.7223,7.7223,7.7223,7.7223,7.7223,7.7223,7.7009,7.6519,7.6519,7.6207,7.545,7.5737,7.5832,7.5354,7.4373,7.3869,7.4172,7.3389,7.3077,7.3389,7.3492,7.3698,7.4172,7.4172,7.4172,7.4172,7.3869,7.3492,7.3005,7.2688,7.2508,6.741,6.7909,6.8409,6.98,7.0336,7.0514,0.0,0.0,0.0,7.0514,7.0514,7.0514,7.0514,7.0514,7.0514,7.0514,0.0,7.0514,0.0,0.0,0.0,0.0,0.0,0.0,0.0,7.1442,7.2584,7.3904,7.4761,7.5225,7.5225,7.5225,7.5225,7.5225,7.5225,7.5225,7.5225,7.5225,7.5332,7.5546,7.6117,7.6577,7.693,7.7192,7.7514,7.8013,7.7348,7.732,7.7667,7.7313,7.7223,7.7223,7.7223,7.7223,7.7223,7.7223,7.7223,7.7223,7.7223,7.7223,7.7223,7.7223,7.7223,7.7223,7.7223,7.7223,7.7223,7.7223,7.7223,7.7223,7.7223,7.7223,7.7223,7.7223,7.7223,7.7223,7.7223,7.7223,7.7223,7.7223,7.7223,7.7223,7.7223,7.7223,7.7223,7.7223,7.7223,7.6918,7.6114,7.5986,7.5642,7.4671,7.5064,7.5127,7.4572,7.38,7.3389,7.3389,7.2794,7.2508,7.2508,7.2508,7.2794,7.3285,7.3389,7.3389,7.3389,7.3389,7.3077,7.2508,7.2508,7.2508,6.6767,6.7517,6.8302,6.9122,6.9907,7.0514,0.0,0.0,0.0,7.0514,7.0514,7.0514,7.0514,7.0514,7.0514,7.0514,7.0514,7.0514,7.0514,0.0,0.0,0.0,0.0,0.0,7.0514,7.187,7.3119,7.3976,7.4761,7.5225,7.5225,7.5225,7.5225,7.5225,7.5225,7.5225,7.5225,7.5225,7.5617,7.6367,7.6402,7.6961,7.8063,7.8098,7.8002,7.7893,7.7893,7.7632,7.7223,7.7223,7.7223,7.7223,7.7223,7.7223,7.7223,7.7223,7.7223,7.7223,7.7223,7.7223,7.7223,7.7223,7.7223,7.7223,7.7223,7.7223,7.7223,7.7223,7.7223,7.7223,7.7223,7.7223,7.7223,7.7223,7.7223,7.7223,7.7223,7.7223,7.7223,7.7223,7.7223,7.7223,7.7223,7.7223,7.7223,7.7223,7.7223,7.6918,7.6114,7.5986,7.5417,7.3869,7.3665,7.3665,7.3665,7.3005,7.2508,7.2508,7.2508,7.2508,7.2508,7.2508,7.2508,7.2508,7.2508,7.2508,7.2508,7.2508,7.2508,7.2508,7.2508,7.2508,6.741,6.7909,6.8409,6.98,7.03,7.0514,7.0514,0.0,0.0,0.0,0.0,7.0514,7.0514,7.0514,7.0514,7.0514,7.0514,7.0514,7.0514,0.0,0.0,0.0,0.0,0.0,0.0,0.0,7.3369,7.4725,7.5082,7.5225,7.5225,7.5225,7.5225,7.5225,7.5225,7.5225,7.5225,7.5225,7.5617,7.6402,7.6902,7.7459,7.8098,7.8306,7.828,7.7893,7.7579,7.7313,7.7223,7.7223,7.7223,7.7223,7.7223,7.7223,7.7223,7.7223,7.7223,7.7223,7.7223,7.7223,7.7223,7.7223,7.7223,7.7223,7.7223,7.7223,7.7223,7.7223,7.7223,7.7223,7.7223,7.7223,7.7223,7.7223,7.7223,7.7223,7.7223,7.7223,7.7223,7.7223,7.7223,7.7223,7.7223,7.7223,7.7223,7.7223,7.6702,7.6114,7.5354,7.477,7.4072,7.3005,7.29,7.29,7.29,7.2582,7.2508,7.2508,7.2508,7.2508,7.2508,7.2508,7.2508,7.2508,7.2508,7.2508,7.2508,7.2508,7.2508,7.2508,7.2508,7.2767,0.0,6.7659,6.8337,6.9337,7.005,0.0,0.0,0.0,0.0,0.0,0.0,0.0,0.0,7.0514,7.0514,7.0514,7.0514,7.0514,7.0514,0.0,0.0,0.0,0.0,0.0,0.0,7.2798,7.3476,7.5082,7.5225,7.5225,7.5225,7.5225,7.5225,7.5225,7.5225,7.5225,7.5225,7.5225,7.576,7.683,7.7294,7.7773,7.8317,7.8529,7.8237,7.7632,7.7313,7.7223,0.0,7.7223,7.7223,7.7223,7.7223,7.7223,7.7223,7.7223,7.7223,7.7223,7.7223,7.7223,7.7223,7.7223,7.7223,7.7223,7.7223,7.7223,7.7223,7.7223,7.7223,7.7223,7.7223,7.7223,7.7223,7.7223,7.7223,7.7223,7.7223,7.7223,7.7223,7.7223,7.7223,7.7223,7.7223,7.7223,7.7133,7.6793,7.63,7.5608,7.4572,7.397,7.3389,7.2615,7.2508,7.2508,7.2508,7.2508,7.2508,7.2508,7.2508,7.2508,7.2508,7.2508,7.2508,7.2508,7.2508,7.2508,7.2508,7.2508,7.2638,7.2897,7.2897,7.3285,0.0,0.0,0.0,0.0,0.0,0.0,0.0,0.0,0.0,0.0,0.0,0.0,0.0,7.0514,7.0514,7.0514,7.0514,7.0514,7.0514,7.0514,0.0,0.0,0.0,0.0,7.2655,7.2798,7.3476,7.5082,7.5225,7.5225,7.5225,7.5225,7.5225,7.5225,7.5225,7.5225,7.5225,7.5225,7.5974,7.7508,7.7508,7.7866,7.8574,7.8574,7.8066,7.7223,7.7223,7.7223,7.7223,7.7223,7.7223,7.7223,7.7223,7.7223,7.7223,7.7223,7.7223,7.7223,7.7223,7.7223,7.7223,7.7223,7.7223,7.7223,7.7223,7.7223,7.7223,7.7223,7.7223,7.7223,7.7223,7.7223,7.7223,7.7223,7.7223,7.7223,7.7223,7.7223,7.7223,7.7223,7.7223,7.7223,7.7223,7.7133,7.6828,7.6114,7.5892,7.5321,7.3869,7.3665,7.3285,7.2615,7.2508,7.2508,7.2508,7.2508,7.2508,7.2508,7.2508,7.2508,7.2508,7.2508,7.2508,7.2508,7.2508,7.2508,7.2508,7.2541,7.2929,7.3577,7.3642,7.403,0.0,0.0,0.0,0.0,0.0,0.0,0.0,0.0,0.0,0.0,0.0,0.0,0.0,0.0,7.0514,7.0514,7.0514,7.0514,7.0514,0.0,0.0,0.0,0.0,7.1121,7.2655,7.2798,7.3476,7.5082,7.5225,7.5225,7.5225,7.5225,7.5225,7.5225,7.5225,7.5225,7.5225,7.5225,7.5974,7.7508,7.7508,7.7866,7.8574,7.8574,7.8066,7.7223,7.7223,7.7223,7.7223,7.7223,7.7223,7.7223,7.7223,7.7223,7.7223,7.7223,7.7223,7.7223,7.7223,7.7223,7.7223,7.7223,7.7223,7.7223,7.7223,7.7223,7.7223,7.7223,7.7223,7.7223,7.7223,7.7223,7.7223,7.7223,7.7223,7.7223,7.7223,7.7223,7.7223,7.7223,7.7223,7.7223,7.7223,7.6702,7.6207,7.5986,7.503,7.4072,7.3767,7.3181,7.2688,7.2508,7.2508,7.2508,7.2508,7.2508,7.2508,7.2508,7.2508,7.2508,7.2508,7.2508,7.2508,7.2508,7.2508,7.2508,7.2508,7.3059,7.3415,7.3577,7.4127,7.4743,0.0,0.0,0.0,0.0,0.0,0.0,0.0,0.0,0.0,0.0,0.0,0.0,0.0,0.0,0.0,7.0514,7.0514,7.0514,0.0,0.0,0.0,0.0,0.0,7.1121,0.0,7.2798,7.3476,7.5082,7.5225,7.5225,7.5225,7.5225,7.5225,7.5225,7.5225,7.5225,7.5225,7.5225,7.5974,7.7508,7.7508,7.7866,7.8574,7.8574,7.8066,7.7223,7.7223,7.7223,7.7223,7.7223,7.7223,7.7223,7.7223,7.7223,7.7223,7.7223,7.7223,7.7223,7.7223,7.7223,7.7223,7.7223,7.7223,7.7223,7.7223,7.7223,7.7223,7.7223,7.7223,7.7223,7.7223,7.7223,7.7223,7.7223,7.7223,7.7223,7.7223,7.7223,7.7223,7.7223,7.7223,7.7133,7.6702,7.63,7.5798,7.503,7.424,7.3595,7.3181,7.2794,7.2508,7.2508,7.2508,7.2508,7.2508,7.2508,7.2508,7.2508,7.2508,7.2508,7.2508,7.2508,7.2508,7.2508,7.2508,7.2508,7.2508,7.3221,7.3739,7.4063,7.4775,7.552,6.5804,6.6839,6.7945,6.8052,6.9229,7.0371,0.0,0.0,0.0,0.0,0.0,0.0,0.0,0.0,0.0,0.0,0.0,0.0,0.0,0.0,0.0,0.0,7.0514,0.0,7.2655,7.2798,7.3476,7.5082,7.5225,7.5225,7.5225,7.5225,7.5225,7.5225,7.5225,7.5225,7.5225,7.5225,7.5938,7.733,7.7437,7.7795,7.8399,7.8539,7.8066,7.7223,7.7223,7.7223,7.7223,7.7223,7.7223,7.7223,7.7223,7.7223,7.7223,7.7223,7.7223,7.7223,7.7223,7.7223,7.7223,7.7223,7.7223,7.7223,7.7223,7.7223,7.7223,7.7223,7.7223,7.7223,7.7223,7.7223,7.7223,7.7223,7.7223,7.7223,7.7223,7.7223,7.7223,7.7223,7.7133,7.6828,7.6114,7.5798,7.5224,7.3869,7.3595,7.3285,7.2582,7.2508,7.2508,7.2508,7.2508,7.2508,7.2508,7.2508,7.2508,7.2508,7.2508,7.2508,7.2508,7.2508,7.2508,7.2508,7.2508,7.2508,7.2508,7.3318,7.403,7.4613,7.5488,7.62,6.5804,6.6482,6.7302,6.7945,6.8801,6.9658,0.0,0.0,0.0,0.0,0.0,0.0,0.0,0.0,0.0,0.0,0.0,0.0,0.0,0.0,0.0,0.0,0.0,7.1121,7.2655,7.2798,7.3476,7.5082,7.5225,7.5225,7.5225,7.5225,7.5225,7.5225,7.5225,7.5225,7.5225,7.5225,7.5653,7.6581,7.7187,7.7511,7.7626,7.8293,7.8066,7.7223,7.7223,7.7223,7.7223,7.7223,7.7223,7.7223,7.7223,7.7223,7.7223,7.7223,7.7223,7.7223,7.7223,7.7223,7.7223,7.7223,7.7223,7.7223,7.7223,7.7223,7.7223,7.7223,7.7223,7.7223,7.7223,7.7223,7.7223,7.7223,7.7223,7.7223,7.7223,7.7223,7.7223,7.7223,7.6611,7.6114,7.5986,7.4932,7.397,7.3767,7.3077,7.2582,7.2508,7.2508,7.2508,7.2508,7.2508,7.2508,7.2508,7.2508,7.2508,7.2508,7.2508,7.2508,7.2508,7.2508,7.2508,7.2508,7.2508,7.2508,7.2508,7.3804,7.4484,7.4613,7.6006,7.6686,6.5804,6.6053,6.6624,6.7802,6.8694,6.9515,0.0,0.0,0.0,0.0,0.0,0.0,0.0,0.0,0.0,0.0,0.0,0.0,0.0,0.0,7.0514,0.0,0.0,7.1121,7.2655,7.2798,7.3476,7.5082,7.5225,7.5225,7.5225,7.5225,7.5225,7.5225,7.5225,7.5225,7.5225,7.5225,7.5617,7.6402,7.7152,7.744,7.7451,7.8223,7.8066,7.7223,7.7223,7.7223,7.7223,7.7223,7.7223,7.7223,7.7223,7.7223,7.7223,7.7223,7.7223,7.7223,7.7223,7.7223,7.7223,7.7223,7.7223,7.7223,7.7223,7.7223,7.7223,7.7223,7.7223,7.7223,7.7223,7.7223,7.7223,7.7223,7.7223,7.7223,7.7223,7.7223,7.7099,7.6611,7.6207,7.5703,7.4932,7.4172,7.3595,7.3077,7.2688,7.2508,7.2508,7.2508,7.2508,7.2508,7.2508,7.2508,7.2508,7.2508,7.2508,7.2508,7.2508,7.2508,7.2508,7.2508,7.2508,7.2508,7.2508,7.2508,7.2508,7.3901,7.4581,7.4613,7.6103,7.6783,6.5804,6.5946,6.641,0.0,0.0,0.0,0.0,0.0,0.0,0.0,0.0,0.0,0.0,0.0,0.0,0.0,0.0,0.0,7.0514,7.0514,7.0514,7.0514,7.0514,7.1121,7.2655,7.2798,7.3476,7.5082,7.5225,7.5225,7.5225,7.5225,7.5225,7.5225,7.5225,7.5225,7.5225,7.5225,7.551,7.6117,7.6866,7.7192,7.717,7.7942,7.7891,7.7223,7.7223,7.7223,7.7223,7.7223,7.7223,7.7223,7.7223,7.7223,7.7223,7.7223,7.7223,7.7223,7.7223,7.7223,7.7223,7.7223,7.7223,7.7223,7.7223,7.7223,7.7223,7.7223,7.7223,7.7223,7.7223,7.7223,7.7223,7.7223,7.7223,7.7223,7.7223,7.7009,7.6702,7.6114,7.5703,7.5127,7.3869,7.3562,7.3181,7.2582,7.2508,7.2508,7.2508,7.2508,7.2508,7.2508,7.2508,7.2508,7.2508,7.2508,7.2508,7.2508,7.2508,7.2508,7.2508,7.2508,7.2508,7.2508,7.2508,7.2508,7.2508,7.3901,7.4581,7.4613,7.6103,7.6783,6.5804,6.6339,6.7088,0.0,0.0,0.0,0.0,0.0,0.0,0.0,0.0,0.0,0.0,0.0,0.0,0.0,0.0,7.0514,7.0514,0.0,7.0514,7.0514,7.0514,7.1121,7.2655,7.2798,7.3476,7.5082,7.5225,7.5225,7.5225,7.5225,7.5225,7.5225,7.5225,7.5225,7.5225,7.5225,7.5225,7.5296,7.6117,7.6412,7.6281,7.7135,7.7403,7.7223,7.7223,7.7223,7.7223,7.7223,7.7223,7.7223,7.7223,7.7223,7.7223,7.7223,7.7223,7.7223,7.7223,7.7223,7.7223,7.7223,7.7223,7.7223,7.7223,7.7223,7.7223,7.7223,7.7223,7.7223,7.7223,7.7223,7.7223,7.7223,7.7223,7.7223,7.7223,7.6611,7.6114,7.5986,7.4835,7.3869,7.3665,7.3077,7.2615,7.2508,7.2508,7.2508,7.2508,7.2508,7.2508,7.2508,7.2508,7.2508,7.2508,7.2508,7.2508,7.2508,7.2508,7.2508,7.2508,7.2508,7.2508,7.2508,7.2508,7.2508,7.2508,7.3901,7.4581,7.4613,7.6103,7.6783,6.5804,6.6018,0.0,0.0,0.0,0.0,0.0,0.0,0.0,0.0,0.0,0.0,0.0,0.0,0.0,0.0,0.0,7.0514,7.0514,7.0514,7.0514,7.0514,7.0514,7.0942,7.2013,7.2513,7.3262,7.4368,7.4939,7.5225,7.5225,7.5225,7.5225,7.5225,7.5225,7.5225,7.5225,7.5225,7.5225,7.5225,7.601,7.6057,7.559,7.6854,7.7089,7.6568,7.7016,7.7223,7.7223,7.7223,7.7223,7.7223,7.7223,7.7223,7.7223,7.7223,7.7223,7.7223,7.7223,7.7223,7.7223,7.7223,7.7223,7.7223,7.7223,7.7223,7.7223,7.7223,7.7223,7.7223,7.7223,7.7223,7.7223,7.7223,7.7223,7.7009,7.6611,7.6207,7.5703,7.4736,7.4072,7.3562,7.3077,7.2688,7.2508,7.2508,7.2508,7.2508,7.2508,7.2508,7.2508,7.2508,7.2508,7.2508,7.2508,7.2508,7.2508,7.2508,7.2508,7.2508,7.2508,7.2508,7.2508,7.2508,7.2508,7.2508,7.2508,7.3901,7.4581,7.4613,7.6103,7.6783,6.5804,6.6161,0.0,0.0,0.0,0.0,0.0,0.0,0.0,0.0,0.0,0.0,0.0,0.0,0.0,0.0,7.0514,7.0514,7.0514,7.0514,7.0514,7.0514,7.0514,7.0835,7.162,7.237,7.3119,7.3976,7.4761,7.5225,7.5225,7.5225,7.5225,7.5225,7.5225,7.5225,7.5225,7.5225,7.5225,7.5225,7.576,7.5743,7.5328,7.663,7.6957,7.6557,7.7144,7.7402,7.7402,7.7223,7.7223,7.7223,7.7223,7.7223,7.7223,7.7223,7.7223,7.7223,7.7223,7.7223,7.7223,7.7223,7.7223,7.7223,7.7223,7.7223,7.7223,7.7223,7.7223,7.7223,7.7223,7.7223,7.7223,7.7223,7.7009,7.6702,7.6114,7.5608,7.4932,7.3869,7.3492,7.3181,7.2582,7.2508,7.2508,7.2508,7.2508,7.2508,7.2508,7.2508,7.2508,7.2508,7.2508,7.2508,7.2508,7.2508,7.2508,7.2508,7.2508,7.2508,7.2508,7.2508,7.2508,7.2508,7.2508,7.2508,7.2508,7.3901,7.4581,7.4613,7.6103,7.6783,6.5804,0.0,0.0,0.0,0.0,0.0,0.0,0.0,0.0,0.0,0.0,0.0,0.0,0.0,0.0,7.0514,7.0514,7.0514,7.0514,7.0514,7.0514,7.0514,7.0514,7.08,7.1585,7.237,7.3119,7.394,7.4761,7.5225,7.5225,7.5225,7.5225,7.5225,7.5225,7.5225,7.5225,7.5225,7.5225,7.5225,7.5225,7.5395,7.5684,7.654,7.7082,7.7368,7.7717,7.7893,7.7893,7.7402,7.7223,7.7223,7.7223,7.7223,7.7223,7.7223,7.7223,7.7223,7.7223,7.7223,7.7223,7.7223,7.7223,7.7223,7.7223,7.7223,7.7223,7.7223,7.7223,7.7223,7.7223,7.7223,7.7223,7.7223,7.6611,7.5986,7.5986,7.4736,7.3665,7.3665,7.311,7.2508,7.2508,7.2508,7.2508,7.2508,7.2508,7.2508,7.2508,7.2508,7.2508,7.2508,7.2508,7.2508,7.2508,7.2508,7.2508,7.2508,7.2508,7.2508,7.2508,7.2508,7.2508,7.2508,7.2508,7.2508,7.2508,7.3901,7.4581,7.4613,7.6103,7.6783,6.5804,0.0,0.0,0.0,0.0,0.0,0.0,0.0,0.0,0.0,0.0,0.0,0.0,0.0,0.0,7.0514,7.0514,7.0514,7.0514,7.0514,7.0514,7.0514,7.0514,7.0585,7.0835,7.2013,7.2905,7.3155,7.444,7.5225,7.5225,7.5225,7.5225,7.5225,7.5225,7.5225,7.5225,7.5225,7.5225,7.5225,7.5225,7.5111,7.4983,7.5726,7.627,7.6526,7.6915,7.7406,7.7893,7.7402,7.7223,7.7223,7.7223,7.7223,7.7223,7.7223,7.7223,7.7223,7.7223,7.7223,7.7223,7.7223,7.7223,7.7223,7.7223,7.7223,7.7223,7.7223,7.7223,7.7223,7.7223,7.7223,7.7223,7.7223,7.6611,7.5832,7.5354,7.4373,7.3595,7.3005,7.2688,7.2508,7.2508,7.2508,7.2508,7.2508,7.2508,7.2508,7.2508,7.2508,7.2508,7.2508,7.2508,7.2508,7.2508,7.2508,7.2508,7.2508,7.2508,7.2508,7.2508,7.2508,7.2508,7.2508,7.2508,7.2508,7.2508,7.3415,7.4127,7.4613,7.5585,7.6297,0.0,0.0,0.0,0.0,0.0,0.0,0.0,0.0,0.0,0.0,0.0,0.0,0.0,7.0514,0.0,7.0514,7.0514,7.0514,7.0514,7.0514,7.0514,7.0514,7.0514,7.0514,7.0514,7.162,7.2477,7.2762,7.4011,7.4868,7.5189,7.5225,7.5225,7.5225,7.5225,7.5225,7.5225,7.5225,7.5225,7.5225,7.5225,7.5042,7.4855,7.5636,7.5974,7.6076,7.651,7.7111,7.7544,7.7313,7.7223,7.7223,7.7223,7.7223,7.7223,7.7223,7.7223,7.7223,7.7223,7.7223,7.7223,7.7223,7.7223,7.7223,7.7223,7.7223,7.7223,7.7223,7.7223,7.7223,7.7223,7.7223,7.7223,7.7223,7.6334,7.545,7.5,7.4003,7.3077,7.2582,7.2508,7.2508,7.2508,7.2508,7.2508,7.2508,7.2508,7.2508,7.2508,7.2508,7.2508,7.2508,7.2508,7.2508,7.2508,7.2508,7.2508,7.2508,7.2508,7.2508,7.2508,7.2508,7.2508,7.2508,7.2508,7.2508,7.2508,7.3221,7.3933,7.4613,7.5358,7.5991,0.0,0.0,0.0,0.0,0.0,0.0,0.0,0.0,0.0,0.0,0.0,0.0,7.0514,7.0514,7.0514,7.0514,7.0514,7.0514,7.0514,7.0514,7.0514,7.0514,7.0514,7.0514,7.0514,7.1228,7.2013,7.2727,7.3547,7.4368,7.5153,7.5225,7.5225,7.5225,7.5225,7.5225,7.5225,7.5225,7.5225,7.5225,7.5225,7.5225,7.5225,7.5974,7.6107,7.5826,7.6454,7.6973,7.7223,7.7223,7.7223,7.7223,7.7223,7.7223,7.7223,7.7223,7.7223,7.7223,7.7223,7.7223,7.7223,7.7223,7.7223,7.7223,7.7223,7.7223,7.7223,7.7223,7.7223,7.7223,7.7223,7.7223,7.7223,7.7223,7.6054,7.5,7.4902,7.3698,7.2582,7.2508,7.2508,7.2508,7.2508,7.2508,7.2508,7.2508,7.2508,7.2508,7.2508,7.2508,7.2508,7.2508,7.2508,7.2508,7.2508,7.2508,7.2508,7.2508,7.2508,7.2508,7.2508,7.2508,7.2508,7.2508,7.2508,7.2508,7.2508,7.3156,7.3868,7.4503,7.5182,7.5555,0.0,0.0,0.0,0.0,0.0,0.0,0.0,0.0,0.0,0.0,0.0,0.0,7.0514,7.0514,7.0514,7.0514,7.0514,7.0514,7.0514,7.0514,7.0514,7.0514,7.0514,7.0514,7.0514,7.1228,7.2013,7.2727,7.3547,7.4368,7.5153,7.5225,7.5225,7.5225,7.5225,7.5225,7.5225,7.5225,7.5225,7.5225,7.5225,7.5225,7.5225,7.5367,7.5667,7.6127,7.6615,7.6973,7.7223,7.7223,7.7223,7.7223,7.7223,7.7223,7.7223,7.7223,7.7223,7.7223,7.7223,7.7223,7.7223,7.7223,7.7223,7.7223,7.7223,7.7223,7.7223,7.7223,7.7223,7.7223,7.7223,7.7223,7.7223,7.7223,7.6427,7.5642,7.5,7.4105,7.3285,7.2582,7.2508,7.2508,7.2508,7.2508,7.2508,7.2508,7.2508,7.2508,7.2508,7.2508,7.2508,7.2508,7.2508,7.2508,7.2508,7.2508,7.2508,7.2508,7.2508,7.2508,7.2508,7.2508,7.2508,7.2508,7.2508,7.2508,7.2508,7.267,7.3166,7.3916,7.4076,7.4505,0.0,0.0,0.0,0.0,0.0,0.0,0.0,0.0,0.0,0.0,0.0,7.0514,7.0514,7.0514,7.0514,7.0514,7.0514,7.0514,7.0514,7.0514,7.0514,7.0514,7.0514,7.0514,7.0514,7.0871,7.1442,7.2227,7.2976,7.3797,7.4582,7.501,7.5225,7.5225,7.5225,7.5225,7.5225,7.5225,7.5225,7.5225,7.5225,7.5116,7.4894,7.4633,7.4999,7.5685,7.579,7.6157,7.6706,7.7085,7.7223,7.7223,7.7223,7.7223,7.7223,7.7223,7.7223,7.7223,7.7223,7.7223,7.7223,7.7223,7.7223,7.7223,7.7223,7.7223,7.7223,7.7223,7.7223,7.7223,7.7223,7.7223,7.7223,7.7223,7.6611,7.5832,7.5097,7.4273,7.3492,7.2688,7.2508,7.2508,7.2508,7.2508,7.2508,7.2508,7.2508,7.2508,7.2508,7.2508,7.2508,7.2508,7.2508,7.2508,7.2508,7.2508,7.2508,7.2508,7.2508,7.2508,7.2508,7.2508,7.2508,7.2508,7.2508,7.2508,7.2508,7.2508,7.2735,7.3212,7.3564,7.3811,0.0,0.0,0.0,0.0,0.0,0.0,0.0,0.0,0.0,0.0,7.0514,7.0514,7.0514,7.0514,7.0514,7.0514,7.0514,7.0514,7.0514,7.0514,7.0514,7.0514,7.0514,7.0514,7.0514,7.0514,7.0835,7.162,7.237,7.3155,7.3976,7.4761,7.5225,7.5225,7.5225,7.5225,7.5225,7.5225,7.5225,7.5225,7.5116,7.4894,7.4441,7.4018,7.4202,7.5008,7.4807,7.5257,7.6154,7.6775,7.712,7.7223,7.7223,7.7223,7.7223,7.7223,7.7223,7.7223,7.7223,7.7223,7.7223,7.7223,7.7223,7.7223,7.7223,7.7223,7.7223,7.7223,7.7223,7.7223,7.7223,7.7223,7.7223,7.7223,7.6611,7.5832,7.5097,7.4273,7.3492,7.2688,7.2508,7.2508,7.2508,7.2508,7.2508,7.2508,7.2508,7.2508,7.2508,7.2508,7.2508,7.2508,7.2508,7.2508,7.2508,7.2508,7.2508,7.2508,7.2508,7.2508,7.2508,7.2508,7.2508,7.2508,7.2508,7.2508,7.2508,7.2401,7.2433,7.2588,7.3147,7.3159,0.0,0.0,0.0,0.0,0.0,0.0,0.0,0.0,0.0,0.0,7.0514,7.0514,7.0514,7.0514,7.0514,7.0514,7.0514,7.0514,7.0514,7.0514,7.0514,7.0514,7.0514,7.0514,7.0514,7.0514,7.0835,7.162,7.237,7.3155,7.3976,7.4761,7.5225,7.5225,7.5225,7.5225,7.5225,7.5225,7.5225,7.5225,7.4819,7.4441,7.4018,7.3542,7.3798,7.4448,7.4133,7.4774,7.612,7.6223,7.6637,7.7223,7.7223,7.7223,7.7223,7.7223,7.7223,7.7223,7.7223,7.7223,7.7223,7.7223,7.7223,7.7223,7.7223,7.7223,7.7223,7.7223,7.7223,7.7223,7.7223,7.7223,7.7223,7.7223,7.6611,7.5832,7.5097,7.4273,7.3492,7.2688,7.2508,7.2508,7.2508,7.2508,7.2508,7.2508,7.2508,7.2508,7.2508,7.2508,7.2508,7.2508,7.2508,7.2508,7.2508,7.2508,7.2508,7.2508,7.2508,7.2508,7.2508,7.2508,7.2508,7.2508,7.2508,7.2508,7.2508,7.1938,7.1743,7.1882,7.2002,7.2101,0.0,0.0,0.0,0.0,0.0,0.0,0.0,0.0,7.0514,7.0514,7.0514,7.0514,7.0514,7.0514,7.0514,7.0514,7.0514,7.0514,7.0514,7.0514,7.0514,7.0514,7.0514,7.0514,7.0514,7.0514,7.0657,7.1014,7.1727,7.2513,7.3298,7.4118,7.4761,7.5189,7.5225,7.5225,7.5225,7.5225,7.5078,7.4819,7.4669,7.4287,7.3542,7.338,7.3508,7.3739,7.3772,7.443,7.5499,7.5913,7.6533,7.7223,7.7223,7.7223,7.7223,7.7223,7.7223,7.7223,7.7223,7.7223,7.7223,7.7223,7.7223,7.7223,7.7223,7.7223,7.7223,7.7223,7.7223,7.7223,7.7223,7.7223,7.7223,7.7223,7.6611,7.5832,7.5097,7.4273,7.3492,7.2688,7.2508,7.2508,7.2508,7.2508,7.2508,7.2508,7.2508,7.2508,7.2508,7.2508,7.2508,7.2508,7.2508,7.2508,7.2508,7.2508,7.2508,7.2508,7.2508,7.2508,7.2508,7.2508,7.2508,7.2508,7.2154,7.2046,7.2046,7.136,7.0964,7.0631,7.1058,7.1304,0.0,0.0,0.0,0.0,0.0,0.0,0.0,0.0,7.0514,0.0,7.0514,7.0514,7.0514,7.0514,7.0514,7.0514,7.0514,7.0514,7.0514,7.0514,7.0514,7.0514,7.0514,7.0514,7.0514,7.0514,7.0514,7.0514,7.1228,7.1942,7.2477,7.3476,7.4297,7.4903,7.5118,7.5225,7.5225,7.5116,7.4819,7.4441,7.4287,7.3896,7.317,7.317,7.317,7.3205,7.3426,7.3947,7.4705,7.5499,7.6258,7.6947,7.7154,7.7223,7.7223,7.7223,7.7223,7.7223,7.7223,7.7223,7.7223,7.7223,7.7223,7.7223,7.7223,7.7223,7.7223,7.7223,7.7223,7.7223,7.7223,7.7223,7.7223,7.7223,7.6611,7.5703,7.477,7.397,7.3181,7.2615,7.2508,7.2508,7.2508,7.2508,7.2508,7.2508,7.2508,7.2508,7.2508,7.2508,7.2508,7.2508,7.2508,7.2508,7.2508,7.2508,7.2508,7.2508,7.2508,7.2508,7.2508,7.2508,7.2401,7.2262,7.1689,7.147,7.158,7.0806,7.0243,6.9818,7.0272,7.072,6.7659,0.0,0.0,0.0,0.0,0.0,0.0,0.0,7.0514,7.0514,7.0514,7.0514,7.0514,7.0514,7.0514,7.0514,7.0514,7.0514,7.0514,7.0514,7.0514,7.0514,7.0514,7.0514,7.0514,7.0514,7.0514,7.0514,7.1228,7.1727,7.1763,7.3191,7.4047,7.4083,7.4796,7.5225,7.5225,7.4819,7.4441,7.394,7.3542,7.317,7.2755,7.2755,7.2755,7.2755,7.2705,7.3153,7.3912,7.4671,7.5464,7.6258,7.6947,7.7223,7.7223,7.7223,7.7223,7.7223,7.7223,7.7223,7.7223,7.7223,7.7223,7.7223,7.7223,7.7223,7.7223,7.7223,7.7223,7.7223,7.7223,7.7223,7.7223,7.7223,7.6611,7.5608,7.4072,7.3077,7.2615,7.2508,7.2508,7.2508,7.2508,7.2508,7.2508,7.2508,7.2508,7.2508,7.2508,7.2508,7.2508,7.2508,7.2508,7.2508,7.2508,7.2508,7.2508,7.2508,7.2508,7.2508,7.2508,7.2508,7.2262,7.1689,7.1029,7.1029,7.158,7.0469,6.9787,6.9818,6.9921,7.0244,6.7802,0.0,0.0,0.0,0.0,0.0,0.0,7.0514,7.0514,7.0514,7.0514,7.0514,7.0514,7.0514,7.0514,7.0514,7.0514,7.0514,7.0514,7.0514,7.0514,7.0514,7.0514,7.0514,7.0514,7.0514,7.0514,7.0514,7.0764,7.1156,7.1656,7.2655,7.3476,7.4011,7.4796,7.5078,7.4819,7.4669,7.4209,7.3542,7.338,7.3088,7.2671,7.2671,7.2671,7.2671,7.2671,7.3084,7.3809,7.4085,7.4947,7.6154,7.6395,7.6809,7.7223,7.7223,7.7223,7.7223,7.7223,7.7223,7.7223,7.7223,7.7223,7.7223,7.7223,7.7223,7.7223,7.7223,7.7223,7.7223,7.7223,7.7223,7.7223,7.7223,7.6611,7.5703,7.4671,7.3389,7.2508,7.2508,7.2508,7.2508,7.2508,7.2508,7.2508,7.2508,7.2508,7.2508,7.2508,7.2508,7.2508,7.2508,7.2508,7.2508,7.2508,7.2508,7.2508,7.2508,7.2508,7.2508,7.2508,7.2508,7.2262,7.158,7.106,7.0613,7.0469,6.9557,6.924,6.924,6.9253,6.9843,6.7838,6.848,0.0,0.0,0.0,7.0514,7.0514,0.0,7.0514,7.0514,7.0514,7.0514,7.0514,7.0514,7.0514,7.0514,7.0514,7.0514,7.0514,7.0514,7.0514,7.0514,7.0514,7.0514,7.0514,7.0514,7.0514,7.0514,7.0514,7.0728,7.1264,7.2013,7.2905,7.3976,7.4796,7.4968,7.4593,7.4441,7.4018,7.3334,7.317,7.3005,7.2671,7.2671,7.2671,7.2671,7.2671,7.2946,7.3429,7.3671,7.4395,7.5395,7.5913,7.643,7.6878,7.712,7.7223,7.7223,7.7223,7.7223,7.7223,7.7223,7.7223,7.7223,7.7223,7.7223,7.7223,7.7223,7.7223,7.7223,7.7223,7.7223,7.7223,7.7223,7.6611,7.5926,7.5354,7.397,7.2794,7.2582,7.2508,7.2508,7.2508,7.2508,7.2508,7.2508,7.2508,7.2508,7.2508,7.2508,7.2508,7.2508,7.2508,7.2508,7.2508,7.2508,7.2508,7.2508,7.2508,7.2508,7.2508,7.2262,7.1938,7.125,7.0694,7.013,6.9472,6.9123,6.8889,6.8889,6.8889,6.9597,0.0,0.0,0.0,0.0,0.0,0.0,7.0514,0.0,7.0514,7.0514,7.0514,7.0514,7.0514,7.0514,7.0514,7.0514,7.0514,7.0514,7.0514,7.0514,7.0514,7.0514,7.0514,7.0514,7.0514,7.0514,7.0514,7.0514,7.0514,7.0514,7.0514,7.1264,7.2405,7.3976,7.4761,7.4968,7.4593,7.4096,7.3702,7.3252,7.2922,7.2671,7.2671,7.2671,7.2671,7.2671,7.2671,7.2671,7.274,7.3464,7.3774,7.3947,7.5464,7.6085,7.6223,7.6913,7.7189,7.7223,7.7223,7.7223,7.7223,7.7223,7.7223,7.7223,7.7223,7.7223,7.7223,7.7223,7.7223,7.7223,7.7223,7.7223,7.7223,7.7223,7.6611,7.5986,7.602,7.4835,7.3492,7.2688,7.2508,7.2508,7.2508,7.2508,7.2508,7.2508,7.2508,7.2508,7.2508,7.2508,7.2508,7.2508,7.2508,7.2508,7.2508,7.2508,7.2508,7.2508,7.2508,7.2508,7.2508,7.1938,7.136,7.0726,7.0161,6.9472,6.8889,6.8889,6.8889,6.8889,6.892,6.9628,6.8551,0.0,0.0,0.0,0.0,0.0,7.0514,0.0,7.0514,7.0514,7.0514,7.0514,7.0514,7.0514,7.0514,7.0514,7.0514,7.0514,7.0514,7.0514,7.0514,7.0514,7.0514,7.0514,7.0514,7.0514,7.0514,7.0514,7.0514,7.0514,7.0514,7.1264,7.2405,7.3976,7.4225,7.4251,7.4096,7.394,7.3542,7.2838,7.2755,7.2671,7.2671,7.2671,7.2671,7.2671,7.2671,7.2671,7.2705,7.2912,7.3291,7.3809,7.4257,7.5119,7.612,7.6361,7.6775,7.7223,7.7223,7.7223,7.7223,7.7223,7.7223,7.7223,7.7223,7.7223,7.7223,7.7223,7.7223,7.7223,7.7223,7.7223,7.7223,7.7223,7.7009,7.6702,7.6114,7.5258,7.4306,7.3492,7.29,7.2508,7.2508,7.2508,7.2508,7.2508,7.2508,7.2508,7.2508,7.2508,7.2508,7.2508,7.2508,7.2508,7.2508,7.2508,7.2508,7.2508,7.2508,7.2508,7.2508,7.1938,7.136,7.0726,7.0161,6.9472,6.8889,6.8889,6.8889,6.8889,6.9382,7.009,6.898,6.9301,6.9515,7.03,0.0,0.0,7.0514,7.0514,7.0514,7.0514,7.0514,7.0514,7.0514,7.0514,7.0514,7.0514,7.0514,7.0514,7.0514,7.0514,7.0514,7.0514,7.0514,7.0514,7.0514,7.0514,7.0514,7.0514,7.0514,7.0514,7.0514,7.1264,7.212,7.3012,7.369,7.386,7.3448,7.3764,7.3542,7.2671,7.2671,7.2671,7.2671,7.2671,7.2671,7.2671,7.2671,7.2671,7.2671,7.2671,7.2946,7.336,7.3671,7.4326,7.5223,7.5878,7.6395,7.6809,7.712,7.7223,7.7223,7.7223,7.7223,7.7223,7.7223,7.7223,7.7223,7.7223,7.7223,7.7223,7.7223,7.7223,7.7223,7.7223,7.7223,7.7009,7.6207,7.545,7.4704,7.3869,7.3077,7.2508,7.2508,7.2508,7.2508,7.2508,7.2508,7.2508,7.2508,7.2508,7.2508,7.2508,7.2508,7.2508,7.2508,7.2508,7.2508,7.2508,7.2508,7.2508,7.2508,7.1721,7.1029,7.0726,6.9901,6.924,6.8889,6.8889,6.8889,6.8889,6.9289,6.9843,6.9229,6.9444,6.9622,7.0336,7.0514,0.0,7.0514,7.0514,7.0514,7.0514,7.0514,7.0514,7.0514,7.0514,7.0514,7.0514,7.0514,7.0514,7.0514,7.0514,7.0514,7.0514,7.0514,7.0514,7.0514,7.0514,7.0514,7.0514,7.0514,7.0514,7.0514,7.1192,7.1585,7.1692,7.3048,7.3467,7.2781,7.3475,7.3461,7.2671,7.2671,7.2671,7.2671,7.2671,7.2671,7.2671,7.2671,7.2671,7.2671,7.2671,7.2671,7.274,7.3395,7.3705,7.3947,7.5361,7.5982,7.6223,7.6878,7.7154,7.7223,7.7223,7.7223,7.7223,7.7223,7.7223,7.7223,7.7223,7.7223,7.7223,7.7223,7.7223,7.7223,7.7133,7.7043,7.6828,7.602,7.5258,7.4605,7.3869,7.3077,7.2508,7.2508,7.2508,7.2508,7.2508,7.2508,7.2508,7.2508,7.2508,7.2508,7.2508,7.2508,7.2508,7.2508,7.2508,7.2508,7.2508,7.2508,7.2508,7.2508,7.1392,7.0726,7.0726,6.9441,6.8889,6.8889,6.8889,6.8889,6.8889,6.8889,6.9259,7.005,7.0264,7.03,7.0478,7.0514,0.0,7.0514,7.0514,7.0514,7.0514,7.0514,7.0514,7.0514,7.0514,7.0514,7.0514,7.0514,7.0514,7.0514,7.0514,7.0514,7.0514,7.0514,7.0514,7.0514,7.0514,7.0514,7.0514,7.0514,7.0514,7.0514,7.0657,7.1014,7.1656,7.2264,7.2604,7.2781,7.3238,7.317,7.2671,7.2671,7.2671,7.2671,7.2671,7.2671,7.2671,7.2671,7.2671,7.2671,7.2671,7.2671,7.2705,7.2843,7.3257,7.3809,7.4119,7.5016,7.612,7.6292,7.6706,7.7223,7.7223,7.7223,7.7223,7.7223,7.7223,7.7223,7.7223,7.7223,7.7223,7.7223,7.7223,7.7009,7.6427,7.6207,7.602,7.5258,7.4473,7.3869,7.3767,7.3077,7.2508,7.2508,7.2508,7.2508,7.2508,7.2508,7.2508,7.2508,7.2508,7.2508,7.2508,7.2508,7.2508,7.2508,7.2508,7.2508,7.2508,7.2508,7.2508,7.2508,7.1392,7.0726,7.0726,6.9441,6.8889,6.8889,6.8889,6.8889,6.8889,6.8889,6.9259,7.0407,7.0514,7.0514,7.0514,7.0514,0.0,0.0,7.0514,7.0514,7.0514,7.0514,7.0514,7.0514,7.0514,7.0514,7.0514,7.0514,7.0514,7.0514,7.0514,7.0514,7.0514,7.0514,7.0514,7.0514,7.0514,7.0514,7.0514,7.0514,7.0514,7.0514,7.0514,7.0693,7.1085,7.1624,7.2044,7.2219,7.2757,7.2951,7.2671,7.2671,7.2671,7.2671,7.2671,7.2671,7.2671,7.2671,7.2671,7.2671,7.2671,7.2671,7.2671,7.2671,7.2912,7.3291,7.3636,7.4292,7.505,7.5844,7.6361,7.674,7.7085,7.7223,7.7223,7.7223,7.7223,7.7223,7.7223,7.7223,7.7223,7.7223,7.7223,7.7009,7.6207,7.5986,7.5703,7.4572,7.397,7.3595,7.3181,7.2794,7.2508,7.2508,7.2508,7.2508,7.2508,7.2508,7.2508,7.2508,7.2508,7.2508,7.2508,7.2508,7.2508,7.2508,7.2508,7.2508,7.2508,7.2508,7.2508,7.2508,7.1612,7.0806,7.0243,6.9325,6.8889,6.8889,6.8889,6.8889,6.8889,6.8889,6.9074,7.0514,7.0514,7.0514,7.0514,7.0514,7.0514,0.0,0.0,0.0,7.0514,7.0514,7.0514,7.0514,7.0514,7.0336,6.9907,7.0229,7.0336,6.9907,7.0229,7.0514,7.0514,7.0514,7.0514,7.0514,7.0514,7.0514,7.0514,7.0514,7.0514,7.0514,7.0514,7.0514,7.0514,7.1194,7.1552,7.1412,7.2248,7.2624,7.2464,7.2602,7.2671,7.2671,7.2671,7.2671,7.2671,7.2671,7.2671,7.2671,7.2586,7.2501,7.2501,7.2501,7.2586,7.274,7.3155,7.3585,7.3981,7.5223,7.5775,7.6016,7.6775,7.712,7.7223,7.7223,7.7223,7.7223,7.7223,7.7223,7.7223,7.7223,7.7223,7.6918,7.602,7.5832,7.5321,7.3767,7.3492,7.3285,7.2582,7.2508,7.2508,7.2508,7.2508,7.2508,7.2508,7.2508,7.2508,7.2508,7.2508,7.2508,7.2508,7.2508,7.2508,7.2508,7.2508,7.2508,7.2508,7.2508,7.2508,7.2508,7.183,7.0917,6.9787,6.924,6.8889,6.8889,6.8889,6.8889,6.8889,6.8889,6.8889,7.0514,7.0514,7.0514,7.0514,7.0514,7.0514,7.0514,0.0,7.0514,7.0514,0.0,7.0514,7.0514,0.0,0.0,6.7731,6.9122,6.9765,6.7695,6.9194,7.0514,7.0514,7.0514,7.0514,7.0514,7.0514,7.0514,7.0514,7.0514,7.0514,7.0514,7.0514,7.0514,7.0514,7.0878,7.0943,7.0639,7.1656,7.2024,7.1636,7.2326,7.2671,7.2671,7.2671,7.2671,7.2671,7.2671,7.2671,7.2671,7.1951,7.1688,7.1688,7.1688,7.2124,7.2586,7.2053,7.2672,7.3809,7.3981,7.4499,7.5188,7.5982,7.6671,7.7223,7.7223,7.7223,7.7223,7.7223,7.7223,7.7223,7.7223,7.7223,7.6828,7.5388,7.5,7.4605,7.3005,7.2582,7.2582,7.2508,7.2508,7.2508,7.2508,7.2508,7.2508,7.2508,7.2508,7.2508,7.2508,7.2508,7.2508,7.2508,7.2508,7.2508,7.2508,7.2508,7.2508,7.2508,7.2508,7.2508,7.2508,7.1392,7.0501,6.9787,6.924,6.8889,6.8889,6.8889,6.8889,6.8889,6.8889,6.8889,7.0514,7.0514,7.0514,7.0514,7.0514,7.0514,7.0514,7.0514,7.0514,7.0514,0.0,0.0,0.0,0.0,0.0,0.0,6.9872,7.0157,6.9158,6.9872,7.0514,7.0514,7.0514,7.0514,7.0514,7.0514,7.0514,7.0514,7.0514,7.0514,7.0514,7.0514,7.0514,7.0514,7.0661,7.0771,7.0761,7.1476,7.1857,7.1827,7.2458,7.2671,7.2671,7.2671,7.2671,7.2671,7.2245,7.2038,7.2038,7.13,7.094,7.094,7.0448,7.0724,7.1389,7.103,7.1592,7.2551,7.2996,7.3635,7.4464,7.5706,7.6326,7.6671,7.7085,7.7223,7.7223,7.7223,7.7223,7.7223,7.7223,7.7223,7.6828,7.5291,7.4902,7.4506,7.2794,7.2508,7.2508,7.2508,7.2508,7.2508,7.2508,7.2508,7.2508,7.2508,7.2508,7.2508,7.2508,7.2508,7.2508,7.2508,7.2508,7.2508,7.2508,7.2508,7.2508,7.2508,7.2508,7.2508,7.2508,7.1676,7.0949,7.0361,6.9712,6.9222,6.8889,6.8889,6.8889,6.8889,6.8889,6.8889,7.0514,7.0514,7.0514,7.0514,7.0514,7.0514,7.0514,7.0514,7.0514,7.0514,7.0514,0.0,0.0,0.0,7.03,6.9658,0.0,7.03,6.9622,7.0086,7.0514,7.0514,7.0514,7.0514,7.0514,7.0514,7.0514,7.0514,7.0514,7.0514,7.0514,7.0514,7.0514,7.0514,7.041,7.0451,7.0734,7.0996,7.1385,7.1837,7.223,7.2464,7.2671,7.2671,7.2671,7.2671,7.1951,7.16,7.1512,7.0574,7.017,7.0076,6.9316,6.9349,6.9888,7.0076,7.0666,7.1401,7.1909,7.2696,7.3688,7.5032,7.5775,7.6223,7.6775,7.7051,7.7223,7.7223,7.7223,7.7223,7.7223,7.7009,7.6519,7.5194,7.4704,7.4206,7.2794,7.2508,7.2508,7.2508,7.2508,7.2508,7.2508,7.2508,7.2508,7.2508,7.2508,7.2508,7.2508,7.2508,7.2508,7.2508,7.2508,7.2508,7.2508,7.2508,7.2508,7.2508,7.2508,7.2508,7.2508,7.1926,7.1282,7.0664,7.0058,6.9457,6.8889,6.8889,6.8889,6.8889,6.8889,6.8889,7.0514,7.0514,7.0514,7.0514,7.0514,7.0514,7.0514,7.0514,7.0514,7.0514,7.0514,7.0514,7.0514,7.0514,6.9765,6.7481,6.9015,0.0,0.0,6.9087,7.0514,7.0514,7.0514,7.0514,7.0514,7.0514,7.0514,7.0514,7.0514,7.0514,7.0514,7.0514,7.0514,7.0514,7.0132,6.992,6.9955,6.9998,7.0306,7.1037,7.1399,7.1946,7.2671,7.2671,7.2671,7.2671,7.1951,7.16,7.1512,6.9982,6.9316,6.922,6.8468,6.8301,6.8401,6.9058,6.9794,7.0574,7.0608,7.1536,7.2867,7.3671,7.4878,7.612,7.6154,7.6637,7.7223,7.7223,7.7223,7.7223,7.7223,7.6611,7.5832,7.5097,7.4306,7.3492,7.2688,7.2508,7.2508,7.2508,7.2508,7.2508,7.2508,7.2508,7.2508,7.2508,7.2508,7.2508,7.2508,7.2508,7.2508,7.2508,7.2508,7.2508,7.2508,7.2508,7.2508,7.2508,7.2508,7.2508,7.2508,7.1938,7.136,7.0694,7.0149,6.9463,6.8889,6.8889,6.8889,6.8889,6.8889,6.8889,7.0514,7.0514,7.0514,7.0514,7.0514,7.0514,7.0514,7.0514,7.0514,7.0514,7.0514,7.0514,7.0514,7.0514,7.0229,6.9444,6.9979,7.0229,0.0,7.0015,7.0514,7.0514,7.0514,7.0514,7.0514,7.0514,7.0514,7.0514,7.0514,7.0514,7.0514,7.0514,7.0514,7.0514,7.0341,7.0272,7.0272,7.0335,7.0412,7.0657,7.1203,7.1636,7.1912,7.2429,7.2416,7.1951,7.121,7.0574,6.9982,6.8961,6.8567,6.8567,6.8301,6.8201,6.8201,6.8468,6.9026,6.9794,7.0296,7.0834,7.1469,7.2696,7.342,7.4124,7.5598,7.6292,7.6602,7.7085,7.6828,7.6427,7.6427,7.5832,7.5064,7.4273,7.3869,7.3492,7.2688,7.2508,7.2508,7.2508,7.2508,7.2508,7.2508,7.2508,7.2508,7.2508,7.2508,7.2508,7.2508,7.2508,7.2508,7.2508,7.2508,7.2508,7.2508,7.2508,7.2508,7.2508,7.2508,7.2508,7.2508,7.2262,7.1918,7.1336,7.0694,7.011,6.9432,6.9062,6.8889,6.8889,6.8889,6.8889,7.0514,7.0514,7.0514,7.0514,7.0514,7.0514,7.0514,7.0514,7.0514,7.0514,7.0514,7.0514,7.0514,7.0514,7.0514,7.0514,7.0514,7.0514,0.0,7.0514,7.0514,7.0514,7.0514,7.0514,7.0514,7.0514,7.0514,7.0514,7.0514,7.0514,7.0514,7.0514,7.0514,7.0514,7.0341,7.0341,7.0514,7.0199,7.0218,7.0534,7.1062,7.1387,7.1532,7.2326,7.2331,7.16,7.0849,7.0076,6.922,6.8468,6.8201,6.8201,6.8201,6.8201,6.8201,6.8201,6.8468,6.9058,6.9794,7.0076,7.027,7.1479,7.209,7.2587,7.4026,7.4923,7.5344,7.5822,7.585,7.5642,7.5642,7.5064,7.4373,7.3767,7.3492,7.3077,7.2582,7.2508,7.2508,7.2508,7.2508,7.2508,7.2508,7.2508,7.2508,7.2508,7.2508,7.2508,7.2508,7.2508,7.2508,7.2508,7.2508,7.2508,7.2508,7.2508,7.2508,7.2508,7.2508,7.2508,7.2508,7.2508,7.2272,7.166,7.1155,7.0582,6.9776,6.9449,6.913,6.8889,6.8889,6.8889]},{"header":{"parameterUnit":"m.s-1","parameterCategory":1,"la1":30.6,"la2":29.2853,"lo1":-89.7004,"lo2":-87.6739,"dy":0.0162,"dx":0.0183,"nx":112,"ny":82,"refTime":"2023-02-26T06:00:00:Z","depth":0,"parameterNumber":3,"parameterNumberName":"V-component_of_WINDS"},"data":[0.0,0.0,0.0,0.0,0.0,0.0,0.0,0.0,0.0,0.0,0.0,0.0,0.0,0.0,0.0,0.0,0.0,0.0,0.0,0.0,0.0,0.0,0.0,0.0,0.0,0.0,0.0,0.0,0.0,0.0,0.0,0.0,0.0,0.0,0.0,0.0,0.0,0.0,0.0,0.0,0.0,0.0,0.0,0.0,0.0,0.0,0.0,0.0,0.0,0.0,0.0,0.0,0.0,0.0,0.0,0.0,0.0,0.0,0.0,0.0,0.0,0.0,0.0,0.0,0.0,0.0,0.0,0.0,0.0,0.0,0.0,0.0,0.0,0.0,0.0,0.0,0.0,0.0,0.0,0.0,0.0,0.0,0.0,0.0,0.0,0.0,0.0,0.0,0.0,0.0,-2.6692,-2.6756,-2.7026,-2.72,-2.72,-2.72,-2.72,-2.72,0.0,0.0,0.0,0.0,0.0,0.0,0.0,0.0,0.0,0.0,0.0,0.0,0.0,0.0,0.0,0.0,0.0,0.0,0.0,0.0,0.0,0.0,0.0,0.0,0.0,0.0,0.0,0.0,0.0,0.0,0.0,0.0,0.0,0.0,0.0,0.0,0.0,0.0,0.0,0.0,0.0,0.0,0.0,0.0,0.0,0.0,0.0,0.0,0.0,0.0,0.0,0.0,0.0,0.0,0.0,0.0,0.0,0.0,0.0,0.0,0.0,0.0,0.0,0.0,0.0,0.0,0.0,0.0,0.0,0.0,0.0,0.0,0.0,0.0,0.0,0.0,0.0,0.0,0.0,0.0,0.0,0.0,0.0,0.0,0.0,0.0,0.0,0.0,0.0,0.0,0.0,0.0,0.0,0.0,0.0,0.0,0.0,0.0,0.0,0.0,0.0,0.0,0.0,0.0,-2.6787,-2.7089,-2.7169,-2.72,-2.72,-2.72,-2.72,-2.72,0.0,0.0,0.0,0.0,0.0,0.0,0.0,0.0,0.0,0.0,0.0,0.0,0.0,0.0,0.0,0.0,0.0,0.0,0.0,0.0,0.0,0.0,0.0,0.0,0.0,0.0,0.0,0.0,0.0,0.0,0.0,0.0,0.0,0.0,0.0,0.0,0.0,0.0,0.0,0.0,0.0,0.0,0.0,0.0,0.0,0.0,0.0,0.0,0.0,0.0,0.0,0.0,0.0,0.0,0.0,0.0,0.0,0.0,0.0,0.0,0.0,0.0,0.0,0.0,0.0,0.0,0.0,0.0,0.0,0.0,0.0,0.0,0.0,0.0,0.0,0.0,0.0,0.0,0.0,0.0,0.0,0.0,0.0,0.0,0.0,0.0,0.0,0.0,0.0,0.0,0.0,0.0,0.0,0.0,0.0,0.0,0.0,0.0,0.0,0.0,0.0,0.0,0.0,-2.6962,-2.7026,-2.7185,-2.72,-2.72,-2.72,-2.72,-2.72,-2.72,-2.72,0.0,0.0,0.0,0.0,0.0,0.0,0.0,0.0,0.0,0.0,0.0,0.0,0.0,0.0,0.0,0.0,0.0,0.0,0.0,0.0,0.0,0.0,0.0,0.0,0.0,0.0,0.0,0.0,0.0,0.0,0.0,0.0,0.0,0.0,0.0,0.0,0.0,0.0,0.0,0.0,0.0,0.0,0.0,0.0,0.0,0.0,0.0,0.0,0.0,0.0,0.0,0.0,0.0,0.0,0.0,0.0,0.0,0.0,0.0,0.0,0.0,0.0,0.0,0.0,0.0,0.0,0.0,0.0,0.0,0.0,0.0,0.0,0.0,0.0,0.0,0.0,0.0,0.0,0.0,0.0,0.0,0.0,0.0,0.0,0.0,0.0,0.0,0.0,0.0,0.0,0.0,0.0,0.0,0.0,0.0,0.0,0.0,0.0,0.0,0.0,0.0,0.0,-2.72,-2.72,-2.72,-2.72,-2.7232,-2.7328,-2.7328,-2.7359,-2.7439,-2.7439,0.0,0.0,0.0,0.0,0.0,0.0,0.0,0.0,0.0,0.0,0.0,0.0,0.0,0.0,0.0,0.0,0.0,0.0,0.0,0.0,0.0,0.0,0.0,0.0,0.0,0.0,0.0,0.0,0.0,0.0,0.0,0.0,0.0,0.0,0.0,0.0,0.0,0.0,0.0,0.0,0.0,0.0,0.0,0.0,0.0,0.0,0.0,0.0,0.0,0.0,0.0,0.0,0.0,0.0,0.0,0.0,0.0,0.0,0.0,0.0,0.0,0.0,0.0,0.0,0.0,0.0,0.0,0.0,0.0,0.0,0.0,0.0,0.0,0.0,0.0,0.0,0.0,0.0,0.0,0.0,0.0,0.0,0.0,0.0,0.0,0.0,0.0,0.0,0.0,0.0,0.0,0.0,0.0,0.0,0.0,0.0,0.0,0.0,0.0,0.0,0.0,0.0,-2.72,-2.72,-2.72,-2.72,-2.7343,-2.7661,-2.7693,-2.782,-2.8138,-2.8154,0.0,0.0,0.0,0.0,0.0,0.0,0.0,0.0,0.0,0.0,0.0,0.0,0.0,0.0,0.0,0.0,0.0,0.0,0.0,0.0,0.0,0.0,0.0,0.0,0.0,0.0,0.0,0.0,0.0,0.0,0.0,0.0,0.0,0.0,0.0,0.0,0.0,0.0,0.0,0.0,0.0,0.0,0.0,0.0,0.0,0.0,0.0,0.0,0.0,0.0,0.0,0.0,0.0,0.0,0.0,0.0,0.0,0.0,0.0,0.0,0.0,0.0,0.0,0.0,0.0,0.0,0.0,0.0,0.0,0.0,0.0,0.0,0.0,0.0,0.0,0.0,0.0,0.0,0.0,0.0,0.0,0.0,0.0,0.0,0.0,0.0,0.0,0.0,0.0,0.0,0.0,0.0,0.0,0.0,0.0,0.0,0.0,0.0,0.0,0.0,0.0,0.0,-2.7793,-2.8073,-2.7534,-2.7709,-2.79,-2.8027,-2.8043,-2.809,-2.8217,0.0,0.0,0.0,0.0,0.0,0.0,0.0,0.0,0.0,0.0,0.0,0.0,0.0,0.0,0.0,0.0,0.0,0.0,0.0,0.0,0.0,0.0,0.0,0.0,0.0,0.0,0.0,0.0,0.0,0.0,0.0,0.0,0.0,0.0,0.0,0.0,0.0,0.0,0.0,0.0,0.0,0.0,0.0,0.0,0.0,0.0,0.0,0.0,0.0,0.0,0.0,0.0,0.0,0.0,0.0,0.0,0.0,0.0,0.0,0.0,0.0,0.0,0.0,0.0,0.0,0.0,0.0,0.0,0.0,0.0,0.0,0.0,0.0,0.0,0.0,0.0,0.0,0.0,0.0,0.0,0.0,0.0,0.0,0.0,0.0,0.0,0.0,0.0,0.0,0.0,0.0,0.0,0.0,0.0,0.0,0.0,0.0,0.0,0.0,0.0,0.0,0.0,-2.7375,-2.8083,-2.8429,-2.7884,-2.809,-2.8265,-2.8392,-2.8392,-2.844,-2.8551,0.0,0.0,0.0,0.0,0.0,0.0,0.0,0.0,0.0,0.0,0.0,0.0,0.0,0.0,0.0,0.0,0.0,0.0,0.0,0.0,0.0,0.0,0.0,0.0,0.0,0.0,0.0,0.0,0.0,0.0,0.0,0.0,0.0,0.0,0.0,0.0,0.0,0.0,0.0,0.0,0.0,0.0,0.0,0.0,0.0,0.0,0.0,0.0,0.0,0.0,0.0,0.0,0.0,0.0,0.0,0.0,0.0,0.0,0.0,0.0,0.0,0.0,0.0,0.0,0.0,0.0,0.0,0.0,0.0,0.0,0.0,0.0,0.0,0.0,0.0,0.0,0.0,0.0,0.0,0.0,0.0,0.0,0.0,0.0,0.0,0.0,0.0,0.0,0.0,0.0,0.0,0.0,0.0,0.0,0.0,0.0,0.0,0.0,0.0,0.0,0.0,0.0,-2.7741,-2.8027,-2.8233,-2.8233,-2.8233,-2.8376,-2.8742,-2.8773,-2.8932,0.0,0.0,0.0,0.0,0.0,0.0,0.0,0.0,0.0,0.0,0.0,0.0,0.0,0.0,0.0,0.0,0.0,0.0,0.0,0.0,0.0,0.0,0.0,0.0,0.0,0.0,0.0,0.0,0.0,0.0,0.0,0.0,0.0,0.0,0.0,0.0,0.0,0.0,0.0,0.0,0.0,0.0,0.0,0.0,0.0,0.0,0.0,0.0,0.0,0.0,0.0,0.0,0.0,0.0,0.0,0.0,0.0,0.0,0.0,0.0,0.0,0.0,0.0,0.0,0.0,0.0,0.0,0.0,0.0,0.0,0.0,0.0,0.0,0.0,0.0,0.0,0.0,0.0,0.0,0.0,0.0,0.0,0.0,0.0,0.0,0.0,0.0,0.0,0.0,0.0,0.0,0.0,0.0,0.0,0.0,0.0,0.0,0.0,0.0,0.0,0.0,0.0,0.0,-2.8074,-2.8793,-2.9158,-2.8599,-2.8821,-2.9296,-2.9818,-2.996,-3.0009,-3.0124,0.0,0.0,0.0,0.0,0.0,0.0,0.0,0.0,0.0,0.0,0.0,0.0,0.0,0.0,0.0,0.0,0.0,0.0,0.0,0.0,0.0,0.0,0.0,0.0,0.0,0.0,0.0,0.0,0.0,0.0,0.0,0.0,0.0,0.0,0.0,0.0,0.0,0.0,0.0,0.0,0.0,0.0,0.0,0.0,0.0,0.0,0.0,0.0,0.0,0.0,0.0,0.0,0.0,0.0,0.0,0.0,0.0,0.0,0.0,0.0,0.0,0.0,0.0,0.0,0.0,0.0,0.0,0.0,0.0,0.0,0.0,0.0,0.0,0.0,0.0,0.0,0.0,0.0,0.0,0.0,0.0,0.0,0.0,0.0,0.0,0.0,0.0,0.0,0.0,0.0,0.0,0.0,0.0,0.0,0.0,0.0,0.0,0.0,0.0,0.0,0.0,0.0,-2.8996,-2.9864,-3.0376,-2.9954,-3.0151,-3.0425,-3.0835,-3.0835,-3.0835,-3.0835,0.0,0.0,0.0,0.0,0.0,0.0,0.0,0.0,0.0,0.0,0.0,0.0,0.0,0.0,0.0,0.0,0.0,0.0,0.0,0.0,0.0,0.0,0.0,0.0,0.0,0.0,0.0,0.0,0.0,0.0,0.0,0.0,0.0,0.0,0.0,0.0,0.0,0.0,0.0,0.0,0.0,0.0,0.0,0.0,0.0,0.0,0.0,0.0,0.0,0.0,0.0,0.0,0.0,0.0,0.0,0.0,0.0,0.0,0.0,0.0,0.0,0.0,0.0,0.0,0.0,0.0,0.0,0.0,0.0,0.0,0.0,0.0,0.0,0.0,0.0,0.0,0.0,0.0,0.0,0.0,0.0,0.0,0.0,0.0,0.0,0.0,0.0,0.0,0.0,0.0,0.0,0.0,0.0,0.0,0.0,0.0,0.0,0.0,0.0,0.0,0.0,0.0,-2.9946,-3.0932,-3.1559,-3.1559,-3.1593,-3.1611,-3.1752,-3.1786,-3.1804,-3.1804,0.0,0.0,0.0,0.0,0.0,0.0,0.0,0.0,0.0,0.0,0.0,0.0,0.0,0.0,0.0,0.0,0.0,0.0,0.0,0.0,0.0,0.0,0.0,0.0,0.0,0.0,0.0,0.0,0.0,0.0,0.0,0.0,0.0,0.0,0.0,0.0,0.0,0.0,0.0,0.0,0.0,0.0,0.0,0.0,0.0,0.0,0.0,0.0,0.0,0.0,0.0,0.0,0.0,0.0,0.0,0.0,0.0,0.0,0.0,0.0,-2.7741,-2.7455,0.0,0.0,0.0,0.0,0.0,0.0,0.0,0.0,0.0,0.0,0.0,0.0,0.0,0.0,0.0,0.0,0.0,0.0,0.0,0.0,0.0,0.0,0.0,0.0,0.0,0.0,0.0,0.0,0.0,0.0,0.0,0.0,0.0,0.0,0.0,0.0,0.0,0.0,0.0,0.0,-3.0293,-3.1084,-3.1559,-3.1559,-3.1816,-3.229,-3.2861,-3.3285,-3.3462,-3.3462,-3.3462,0.0,0.0,0.0,0.0,0.0,0.0,0.0,0.0,0.0,0.0,0.0,0.0,0.0,0.0,0.0,0.0,0.0,0.0,0.0,0.0,0.0,0.0,0.0,0.0,0.0,0.0,0.0,0.0,0.0,0.0,0.0,0.0,0.0,0.0,0.0,0.0,0.0,0.0,0.0,0.0,0.0,0.0,0.0,0.0,0.0,0.0,0.0,0.0,0.0,0.0,0.0,0.0,0.0,0.0,0.0,0.0,0.0,0.0,0.0,-2.8043,-2.7868,0.0,0.0,0.0,0.0,0.0,0.0,0.0,0.0,0.0,0.0,0.0,0.0,0.0,0.0,0.0,0.0,0.0,0.0,0.0,0.0,0.0,0.0,0.0,0.0,0.0,0.0,0.0,0.0,0.0,0.0,0.0,0.0,0.0,0.0,0.0,0.0,0.0,0.0,0.0,0.0,-3.1246,-3.2416,-3.3251,-3.3251,-3.3429,-3.3696,-3.4126,-3.4324,-3.4433,-3.4433,-3.4433,0.0,0.0,0.0,0.0,0.0,0.0,0.0,0.0,0.0,0.0,0.0,0.0,0.0,0.0,0.0,0.0,0.0,0.0,0.0,0.0,0.0,0.0,0.0,0.0,0.0,0.0,0.0,0.0,0.0,0.0,0.0,0.0,0.0,0.0,0.0,0.0,0.0,0.0,0.0,0.0,0.0,0.0,0.0,0.0,0.0,0.0,0.0,0.0,0.0,0.0,0.0,0.0,0.0,-2.809,-2.8249,-2.8313,-2.8313,-2.836,-2.8408,-2.8408,-2.8344,-2.8233,-2.836,0.0,0.0,0.0,0.0,0.0,0.0,0.0,0.0,0.0,0.0,0.0,0.0,0.0,0.0,0.0,0.0,0.0,0.0,0.0,0.0,0.0,0.0,-3.0876,-3.1019,-3.1463,-3.1537,-3.0808,0.0,0.0,0.0,0.0,0.0,0.0,0.0,0.0,0.0,0.0,0.0,-3.2498,-3.3947,-3.5027,-3.5027,-3.51,-3.5137,-3.5137,-3.5192,-3.5229,-3.5229,-3.5229,-3.5375,0.0,0.0,0.0,0.0,0.0,0.0,0.0,0.0,0.0,0.0,0.0,0.0,0.0,0.0,0.0,0.0,0.0,0.0,0.0,0.0,0.0,0.0,0.0,0.0,0.0,0.0,0.0,0.0,0.0,0.0,0.0,0.0,-2.6344,-2.6264,0.0,0.0,0.0,0.0,0.0,0.0,0.0,0.0,0.0,0.0,0.0,0.0,0.0,-2.7804,-2.809,-2.8138,-2.8154,-2.8154,-2.8201,-2.8392,-2.8694,-2.8694,-2.8869,-2.9155,-2.9155,0.0,-2.8265,-2.89,0.0,0.0,0.0,0.0,0.0,0.0,0.0,0.0,0.0,0.0,0.0,0.0,0.0,0.0,0.0,0.0,0.0,0.0,0.0,0.0,0.0,0.0,-3.2535,-3.3261,-3.2971,-3.2664,-3.3191,-3.2381,-3.1593,-3.1827,-3.1895,-3.1854,0.0,0.0,0.0,0.0,0.0,0.0,-3.3621,-3.4415,-3.5027,-3.5027,-3.5339,-3.554,-3.554,-3.5852,-3.6054,-3.6054,-3.6054,-3.6072,-3.6127,-3.6127,0.0,0.0,0.0,0.0,0.0,0.0,0.0,0.0,0.0,0.0,0.0,0.0,0.0,0.0,0.0,0.0,0.0,0.0,0.0,0.0,0.0,0.0,0.0,0.0,0.0,0.0,0.0,0.0,0.0,-2.6342,-2.6517,-2.6724,-2.6883,-2.6962,0.0,0.0,0.0,0.0,0.0,0.0,0.0,0.0,0.0,-2.8011,-2.8011,-2.8074,-2.8217,-2.8424,-2.8535,-2.8535,-2.8726,-2.8916,-2.9059,-2.9059,-2.9155,-2.9298,-2.9298,-2.9123,-2.8853,-2.9171,-2.9202,-2.9075,0.0,0.0,0.0,0.0,-2.96,-2.9615,-2.9806,-2.987,-2.987,-2.987,0.0,0.0,0.0,0.0,0.0,0.0,0.0,-3.1776,-3.1515,-3.1809,-3.225,-3.2982,-3.2964,-3.2818,-3.3127,-3.3012,-3.282,-3.256,-3.2578,-3.2339,-3.1645,-3.1973,0.0,0.0,0.0,-3.388,-3.4173,-3.5102,-3.5687,-3.5687,-3.5852,-3.5944,-3.5944,-3.6109,-3.6201,-3.6201,-3.6201,-3.6201,-3.6201,-3.6201,-3.6941,0.0,0.0,0.0,0.0,0.0,0.0,0.0,0.0,0.0,0.0,0.0,0.0,0.0,0.0,0.0,0.0,0.0,0.0,0.0,0.0,0.0,0.0,0.0,0.0,0.0,0.0,0.0,0.0,-2.6803,-2.6914,-2.7169,-2.72,-2.7232,0.0,0.0,0.0,0.0,0.0,0.0,-2.7852,-2.809,-2.8265,-2.836,-2.836,-2.8408,-2.8503,-2.8773,-2.89,-2.89,-2.9171,-2.9298,-2.9298,-2.9393,-2.9441,-2.9441,-2.952,-2.9552,-2.9552,-2.9457,-2.9441,-2.9441,-2.952,-2.9552,-2.9584,-2.9854,-2.9949,-2.9981,-3.0235,-3.0315,-3.0315,-3.0315,-3.0378,-3.0458,-3.0458,0.0,0.0,0.0,0.0,-3.0734,-3.1647,-3.1795,-3.1944,-3.2816,-3.2963,-3.2963,-3.2963,-3.3422,-3.3681,-3.3301,-3.3266,-3.3301,-3.252,-3.2981,0.0,-3.2537,-3.3648,-3.4711,-3.4859,-3.5721,-3.6201,-3.6201,-3.6201,-3.6201,-3.6201,-3.6201,-3.6201,-3.6201,-3.6201,-3.6201,-3.6201,-3.6201,-3.6793,-3.797,0.0,0.0,0.0,0.0,0.0,0.0,0.0,0.0,0.0,0.0,0.0,0.0,0.0,0.0,0.0,0.0,0.0,0.0,0.0,0.0,0.0,0.0,0.0,0.0,0.0,0.0,0.0,0.0,0.0,-2.72,-2.72,0.0,0.0,0.0,0.0,-2.8154,-2.8186,-2.8201,-2.8201,-2.8217,-2.8376,-2.8726,-2.8742,-2.89,-2.9234,-2.9266,-2.9266,-2.9266,-2.9282,-2.9298,-2.9314,-2.9647,-2.979,-2.9822,-3.0124,-3.0267,-3.0235,-2.9933,-2.979,-2.9838,-3.014,-3.0267,-3.0267,-3.0283,-3.0283,-3.0299,-3.0315,-3.0315,-3.0315,-3.0315,-3.0553,-3.0839,-3.0839,-3.1061,0.0,0.0,-3.1331,-3.1485,-3.2386,-3.2538,-3.269,-3.36,-3.3734,-3.3734,-3.3734,-3.3751,-3.3932,-3.4179,-3.4992,-3.5265,-3.4883,0.0,-3.4954,-3.4804,-3.4954,-3.5271,-3.6034,-3.6201,-3.6201,-3.6201,-3.6201,-3.6201,-3.6201,-3.6201,-3.6201,-3.6201,-3.6201,-3.6201,-3.6201,-3.6201,-3.6793,-3.797,-3.9136,0.0,0.0,0.0,0.0,0.0,0.0,0.0,0.0,0.0,0.0,0.0,0.0,0.0,0.0,0.0,0.0,0.0,0.0,0.0,0.0,0.0,0.0,0.0,0.0,0.0,0.0,0.0,0.0,-2.7534,-2.7725,0.0,-2.8043,-2.8043,-2.809,-2.8217,-2.844,-2.8567,-2.8567,-2.8789,-2.898,-2.9107,-2.9107,-2.9171,-2.9298,-2.9298,-2.9409,-2.9631,-2.9631,-2.9743,-2.9965,-3.0092,-3.014,-3.014,-3.0267,-3.0315,-3.033,-3.0442,-3.0362,-3.0156,-3.0267,-3.0315,-3.0346,-3.0585,-3.0664,-3.0696,-3.0934,-3.1014,-3.1014,-3.1014,-3.1093,-3.1204,-3.1204,-3.1284,-3.1395,-3.1395,-3.184,-3.2146,-3.184,-3.2588,-3.35,-3.3802,-3.3348,-3.3348,-3.4406,-3.4105,-3.407,-3.468,-3.4943,-3.5145,-3.4971,-3.5456,-3.5605,-3.5157,-3.5456,-3.5903,-3.6201,-3.6201,-3.6201,-3.6201,-3.6201,-3.6201,-3.6201,-3.6201,-3.6201,-3.6201,-3.6201,-3.6201,-3.6201,-3.6201,-3.6349,-3.6793,-3.7236,-3.8389,0.0,0.0,0.0,0.0,0.0,0.0,0.0,0.0,0.0,0.0,0.0,0.0,0.0,0.0,0.0,0.0,0.0,0.0,0.0,0.0,0.0,0.0,0.0,0.0,0.0,-2.7677,-2.79,-2.79,-2.809,-2.8265,-2.8392,-2.8408,-2.8456,-2.8583,-2.8805,-2.8948,-2.8948,-2.9171,-2.9298,-2.9298,-2.9409,-2.9472,-2.9472,-2.9584,-2.9758,-2.9997,-2.9997,-3.0108,-3.0315,-3.0442,-3.0505,-3.0505,-3.0632,-3.068,-3.0696,-3.095,-3.0902,-3.068,-3.068,-3.068,-3.0712,-3.095,-3.1045,-3.1077,-3.1315,-3.1395,-3.1395,-3.1395,-3.1395,-3.1395,-3.1395,-3.1395,-3.1395,-3.1395,-3.1993,-3.2452,-3.1993,-3.274,-3.3802,-3.35,-3.3348,-3.35,-3.4105,-3.4406,-3.4707,-3.5007,-3.5157,-3.5456,-3.5456,-3.5903,-3.6052,-3.5456,-3.5903,-3.6201,-3.6201,-3.6201,-3.6201,-3.6201,-3.6201,-3.6201,-3.6201,-3.6201,-3.6201,-3.6201,-3.6201,-3.6201,-3.6201,-3.6201,-3.6349,-3.6793,-3.7511,-3.8971,-4.0862,0.0,0.0,0.0,0.0,0.0,0.0,0.0,0.0,0.0,0.0,0.0,0.0,0.0,0.0,0.0,0.0,0.0,0.0,0.0,0.0,0.0,0.0,0.0,-2.7788,-2.8027,-2.8233,-2.8233,-2.8249,-2.8392,-2.8757,-2.8789,-2.8932,-2.9266,-2.9298,-2.9298,-2.9314,-2.9314,-2.9314,-2.9329,-2.9663,-2.9838,-2.9838,-3.0156,-3.0315,-3.033,-3.033,-3.0346,-3.0362,-3.0712,-3.0886,-3.0902,-3.1236,-3.1395,-3.1395,-3.1395,-3.1395,-3.1395,-3.1395,-3.1395,-3.1395,-3.1395,-3.1395,-3.1395,-3.1395,-3.1395,-3.1395,-3.1395,-3.1395,-3.1395,-3.1395,-3.1395,-3.1395,-3.1395,-3.1993,-3.2588,-3.2604,-3.3196,-3.3651,-3.2892,-3.3802,-3.4556,-3.3044,-3.4556,-3.5903,-3.5157,-3.5605,-3.6201,-3.6201,-3.6201,-3.6201,-3.6201,-3.6201,0.0,-3.6201,-3.6201,-3.6201,-3.6201,-3.6201,-3.6201,-3.6201,-3.6201,-3.6201,-3.6201,-3.6201,-3.6201,-3.6201,-3.6201,-3.6793,-3.797,-4.0269,-4.1997,-4.3163,0.0,0.0,0.0,0.0,0.0,0.0,0.0,0.0,0.0,0.0,0.0,0.0,0.0,0.0,0.0,0.0,0.0,0.0,0.0,0.0,0.0,0.0,-2.8503,-2.8138,-2.8392,-2.8614,-2.8614,-2.8853,-2.9043,-2.9139,-2.9155,-2.9186,-2.9282,-2.9298,-2.9409,-2.9663,-2.9679,-2.979,-3.0029,-3.0124,-3.0187,-3.0187,-3.0267,-3.0442,-3.0712,-3.0712,-3.0855,-3.1093,-3.1204,-3.1252,-3.1252,-3.1347,-3.1395,-3.1395,-3.1395,-3.1395,-3.1395,-3.1395,-3.1395,-3.1395,-3.1395,-3.1395,-3.1395,-3.1395,-3.1395,-3.1395,-3.1395,-3.1395,-3.1395,-3.1395,-3.1395,-3.1395,-3.1395,-3.1993,-3.2452,-3.184,-3.3196,-3.4406,-3.3651,-3.4255,-3.5007,-3.5157,-3.5306,-3.5456,-3.5754,-3.6052,-3.6201,-3.6201,-3.6201,-3.6201,-3.6201,-3.6201,-3.6201,-3.6201,-3.6201,-3.6201,-3.6201,-3.6201,-3.6201,-3.6201,-3.6201,-3.6201,-3.6201,-3.6201,-3.6201,-3.6201,-3.6201,-3.6793,-3.797,-4.0269,-4.1551,0.0,0.0,0.0,0.0,0.0,0.0,0.0,0.0,0.0,0.0,0.0,0.0,0.0,0.0,0.0,0.0,0.0,0.0,0.0,0.0,0.0,0.0,-2.8853,-2.8916,-2.8694,-2.8853,-2.8996,-2.8996,-2.9171,-2.9298,-2.9298,-2.9425,-2.952,-2.952,-2.9647,-2.9822,-3.0029,-3.0029,-3.0124,-3.0315,-3.0473,-3.0537,-3.0537,-3.0696,-3.0871,-3.1077,-3.1077,-3.1188,-3.1395,-3.1395,-3.1395,-3.1395,-3.1395,-3.1395,-3.1395,-3.1395,-3.1395,-3.1395,0.0,0.0,0.0,0.0,-3.1395,-3.1395,-3.1395,-3.1395,-3.1395,-3.1395,-3.1395,-3.1395,-3.1395,-3.1395,-3.1395,-3.1395,-3.1993,-3.2435,-3.1993,-3.3196,-3.4406,-3.3954,-3.4406,-3.5157,-3.5605,-3.5605,-3.5605,-3.6052,-3.6201,0.0,-3.6201,-3.6201,-3.6201,-3.6201,-3.6201,-3.6201,-3.6201,-3.6201,-3.6201,-3.6201,-3.6201,-3.6201,-3.6201,-3.6201,0.0,0.0,0.0,-3.6201,-3.6201,-3.7089,0.0,0.0,0.0,-4.1855,-4.141,-4.2581,0.0,0.0,-4.3032,-4.301,0.0,0.0,0.0,0.0,0.0,0.0,0.0,0.0,0.0,0.0,0.0,0.0,0.0,0.0,0.0,0.0,-2.9298,-2.9298,-2.9298,-2.9329,-2.9345,-2.9298,-2.9329,-2.9361,-2.9361,-2.9679,-2.9886,-2.9886,-3.0156,-3.033,-3.0378,-3.0378,0.0,0.0,0.0,-3.0918,-3.0918,-3.1236,-3.1395,-3.1395,-3.1395,-3.1395,-3.1395,-3.1395,-3.1395,-3.1395,-3.1395,-3.1395,-3.1395,-3.1395,-3.1395,-3.1395,-3.1395,-3.1395,-3.1395,-3.1395,-3.1395,-3.1395,-3.1395,0.0,0.0,-3.1395,-3.1395,-3.1395,-3.1395,-3.1395,-3.1395,-3.1549,-3.1993,-3.2452,-3.2757,-3.3196,-3.3802,-3.3954,-3.4556,-3.5157,-3.5157,-3.5754,-3.6201,-3.6201,-3.6201,-3.6201,-3.6201,-3.6201,-3.6201,-3.6201,-3.6201,-3.6201,-3.6201,-3.6201,-3.6201,-3.6201,-3.6201,0.0,-3.6201,-3.6201,-3.6201,-3.6201,-3.6256,-3.6274,-3.6274,-3.8379,-3.9275,-3.8418,-4.1456,-4.2732,-4.1699,-4.2894,-4.3337,-4.3337,-4.3228,-4.3184,0.0,0.0,0.0,0.0,0.0,0.0,0.0,0.0,0.0,0.0,0.0,0.0,0.0,0.0,0.0,-2.9282,-2.9298,-2.9298,-2.9298,-2.9536,-2.9615,-2.9329,-2.9552,-2.9727,-2.9727,-3.0029,-3.0219,-3.0219,-3.0283,-3.0442,-3.0743,-3.0759,-3.0886,-3.1172,-3.1252,-3.1284,-3.1284,-3.1363,-3.1395,-3.1395,-3.1395,0.0,-3.1395,-3.1395,-3.1395,-3.1395,-3.1395,-3.1395,-3.1395,-3.1395,-3.1395,-3.1395,-3.1395,-3.1395,-3.1395,-3.1395,-3.1395,-3.1395,-3.1395,-3.1395,-3.1395,-3.1395,-3.1395,-3.1395,-3.1395,-3.1395,0.0,-3.2146,-3.1993,-3.1993,-3.3196,-3.3651,-3.3954,-3.4556,-3.5456,-3.5903,-3.5903,-3.6052,-3.6201,-3.6201,-3.6201,-3.6201,-3.6201,-3.6201,-3.6201,-3.6201,-3.6201,-3.6201,-3.6201,-3.6201,-3.6201,-3.6201,-3.6201,-3.6201,-3.6201,-3.6201,-3.6201,-3.6201,-3.6531,-3.6714,-3.6714,-3.8367,-3.959,-4.0484,-4.1938,-4.3124,-4.4011,-4.4177,-4.432,-4.4298,-4.3534,-4.3184,0.0,0.0,0.0,0.0,0.0,0.0,0.0,0.0,0.0,0.0,0.0,-2.9298,0.0,0.0,-2.9298,-2.9298,-2.9441,-2.9568,-2.9568,-2.9854,-2.9949,-2.96,-2.987,-3.0076,-3.0076,-3.0378,-3.0585,-3.0585,-3.0759,-3.0934,-3.1125,-3.1125,-3.1204,-3.1379,-3.1395,-3.1395,-3.1395,-3.1395,-3.1395,-3.1395,-3.1395,-3.1395,-3.1395,-3.1395,-3.1395,-3.1395,-3.1395,-3.1395,-3.1395,-3.1395,-3.1395,-3.1395,-3.1395,-3.1395,-3.1395,-3.1395,-3.1395,-3.1395,-3.1395,-3.1395,-3.1395,-3.1395,-3.1395,-3.1395,-3.1395,-3.1395,-3.1549,-3.184,-3.1993,-3.2299,-3.35,-3.3802,-3.4105,-3.5306,-3.5605,-3.5754,-3.6052,-3.6384,-3.6531,-3.6531,-3.6677,-3.6824,-3.6824,-3.6824,-3.6677,-3.6274,-3.6384,-3.6531,-3.6531,-3.6696,-3.6824,-3.6824,-3.6824,-3.6824,-3.6824,-3.6824,-3.6824,-3.6824,-3.7007,-3.7136,-3.7136,-3.8387,-3.924,-3.9221,-4.1448,-4.2795,-4.2816,-4.4004,-4.4582,-4.4582,-4.4102,-4.3883,0.0,0.0,0.0,0.0,0.0,0.0,0.0,0.0,-2.9298,-2.9298,-2.9298,-2.9314,-2.9393,-2.9393,-2.9425,-2.9488,-2.9727,-2.9917,-2.9917,-3.0203,-3.033,-3.006,-3.0267,-3.0426,-3.0426,-3.0743,-3.0966,-3.0966,-3.1236,-3.1395,-3.1395,-3.1395,-3.1395,-3.1395,-3.1395,-3.1395,-3.1395,-3.1395,-3.1395,-3.1395,-3.1395,-3.1395,-3.1395,-3.1395,-3.1395,-3.1395,-3.1395,-3.1395,-3.1395,-3.1395,-3.1395,-3.1395,-3.1395,-3.1395,-3.1395,-3.1395,-3.1395,-3.1395,-3.1395,-3.1395,-3.1395,-3.1395,-3.1395,-3.1395,-3.1395,-3.1549,-3.1702,-3.184,-3.2299,-3.3061,-3.404,-3.4225,-3.4545,-3.6121,-3.599,-3.5689,-3.6289,-3.6714,-3.6952,-3.6952,-3.7209,-3.7429,-3.7429,-3.7429,-3.7209,-3.6549,-3.6732,-3.6952,-3.6952,-3.7228,-3.7429,-3.7429,-3.7429,-3.7429,-3.7429,-3.7429,-3.7429,-3.7429,-3.7503,-3.7539,-3.7539,-3.8689,-3.9185,-3.8419,-4.1413,-4.2604,-4.203,-4.397,-4.4866,-4.4866,-4.4866,-4.4757,-2.9298,-2.9298,-2.9298,-2.9298,-2.9298,-2.9298,0.0,0.0,-2.9298,-2.9298,-2.9298,-2.9393,-2.9711,-2.9774,-2.9854,-3.0156,-3.0235,-3.0267,-3.0267,-3.0569,-3.0791,-3.0743,-3.0775,-3.0807,-3.0807,-3.1125,-3.1331,-3.1331,-3.1363,-3.1395,-3.1395,-3.1395,-3.1395,-3.1395,-3.1395,-3.1395,-3.1395,-3.1395,-3.1395,-3.1395,-3.1395,-3.1395,-3.1395,-3.1395,-3.1395,-3.1395,-3.1395,-3.1395,-3.1395,-3.1395,-3.1395,-3.1395,-3.1395,-3.1395,-3.1395,-3.1395,-3.1395,-3.1395,-3.1395,-3.1395,-3.1395,-3.1395,-3.1395,-3.1395,-3.1395,-3.184,-3.2588,-3.3348,-3.3651,-3.404,-3.5905,-3.5995,-3.578,-3.6904,-3.7129,-3.7129,-3.7283,-3.7319,-3.7356,-3.7356,-3.7393,-3.7429,-3.7429,-3.7429,-3.7393,-3.7301,-3.7338,-3.7356,-3.7356,-3.7393,-3.7429,-3.7429,-3.7429,-3.7429,-3.7429,-3.7429,-3.7429,-3.7429,-3.7759,-3.7943,-3.7943,-3.9542,-4.0822,-4.1728,-4.3256,-4.4464,-4.5382,-4.5701,-4.5849,-4.5849,-4.5849,-4.5391,-2.9298,-2.9298,-2.9298,0.0,-2.9298,-2.9298,-2.9298,-2.9298,-2.9361,-2.9568,-2.96,-2.9711,-3.0044,-3.0108,-3.0156,0.0,-3.0489,-3.0632,-3.0632,-3.095,-3.1172,-3.1172,-3.1172,-3.1172,-3.1172,-3.13,-3.1395,-3.1395,-3.1395,-3.1395,-3.1395,-3.1395,-3.1395,-3.1395,-3.1395,-3.1395,-3.1395,-3.1395,-3.1395,-3.1395,-3.1395,-3.1395,-3.1395,-3.1601,-3.1808,-3.1983,-3.1983,-3.1983,-3.1983,-3.1983,-3.1983,-3.1983,-3.1983,-3.1983,-3.1935,-3.1538,-3.1395,-3.1395,-3.1395,-3.1522,-3.1697,-3.1697,-3.1824,-3.1983,-3.1983,-3.2296,-3.2592,-3.3526,-3.4145,-3.4796,-3.6047,-3.6561,-3.675,-3.7239,-3.7429,-3.7429,-3.7429,-3.7613,-3.7759,-3.7759,-3.7961,-3.8126,-3.8126,-3.8126,-3.8126,-3.8126,-3.7924,-3.7759,-3.7759,-3.7979,-3.8126,-3.8126,-3.8126,-3.8126,-3.8126,-3.8126,-3.8126,-3.8126,-3.8291,-3.8383,-3.8383,-3.9022,-3.9569,-4.0197,-4.2022,-4.34,-4.3877,-4.5234,-4.6002,-4.6002,-4.6002,-4.5784,-2.9298,0.0,0.0,-2.9298,-2.9298,-2.9329,-2.9425,-2.9441,-2.9536,-2.9886,-2.9965,-3.006,-3.041,-3.0473,-3.0505,-3.0601,-3.0839,-3.1014,-3.1014,-3.1236,-3.1395,-3.1395,-3.1395,-3.1395,-3.1395,-3.1395,-3.1395,-3.1395,-3.1395,-3.1395,-3.1395,-3.1395,-3.1395,-3.1395,-3.1395,-3.1395,-3.1395,-3.1395,-3.1443,-3.1538,-3.1538,-3.1586,-3.1681,-3.1935,-3.2189,-3.2412,-3.2412,-3.2412,-3.2412,-3.2412,-3.2412,-3.2412,-3.2412,-3.2412,-3.2348,-3.1856,-3.1665,-3.1665,-3.1665,-3.184,-3.2046,-3.2046,-3.2221,-3.2412,-3.2412,-3.2729,-3.3188,-3.3835,-3.4759,-3.5729,-3.6457,-3.7113,-3.7613,-3.7723,-3.7759,-3.7759,-3.7759,-3.7979,-3.8181,-3.8181,-3.8438,-3.864,-3.864,-3.864,-3.864,-3.864,-3.8383,-3.8181,-3.8181,-3.8456,-3.864,-3.864,-3.864,-3.864,-3.864,-3.864,-3.864,-3.864,-3.864,-3.864,-3.864,-3.8956,-3.9254,-3.9569,-4.1733,-4.2943,-4.3248,-4.5084,-4.6002,-4.6002,-4.6002,-4.6002,0.0,0.0,-2.9298,-2.9298,-2.9298,-2.9393,-2.9727,-2.9806,-2.9901,-3.0235,-3.0299,-3.041,-3.0775,-3.0839,-3.0966,-3.13,-3.1363,-3.1379,-3.1379,-3.1379,-3.1395,-3.1395,-3.1395,-3.1395,-3.1395,-3.1395,-3.1395,-3.1395,-3.1395,-3.1395,-3.1395,-3.1395,-3.1395,-3.1395,-3.1395,-3.1395,-3.1395,-3.1395,-3.157,-3.1903,-3.1903,-3.2078,-3.238,-3.2396,-3.2396,-3.2412,-3.2412,-3.2412,-3.2412,-3.2412,-3.2412,-3.2412,-3.2412,-3.2412,-3.2412,-3.2396,-3.238,-3.238,-3.238,-3.2396,-3.2396,-3.2396,-3.2396,-3.2412,-3.2412,-3.3503,-3.4759,-3.4915,-3.6022,-3.7367,-3.7888,-3.7998,-3.8089,-3.8511,-3.8603,-3.8603,-3.8603,-3.8621,-3.8621,-3.8621,-3.864,-3.864,-3.864,-3.864,-3.864,-3.864,-3.864,-3.8621,-3.8621,-3.864,-3.864,-3.864,-3.864,-3.864,-3.864,-3.864,-3.864,-3.864,-3.864,-3.864,-3.864,-3.9726,-4.0958,-4.2196,-4.34,-4.4784,-4.5853,-4.6002,-4.6002,-4.6002,-4.6002,-4.6002,0.0,0.0,-2.9298,-2.9298,-2.9472,-2.9679,-2.979,-2.9997,-3.0251,-3.0601,-3.068,-3.0791,-3.1141,-3.122,-3.1252,-3.1379,-3.1395,-3.1395,-3.1395,-3.1395,-3.1395,-3.1395,-3.1395,0.0,0.0,-3.1395,-3.1395,-3.1395,-3.1395,-3.1395,-3.1395,-3.1395,-3.1395,-3.1395,-3.1395,-3.1506,-3.1744,-3.1744,-3.1919,-3.2237,-3.2237,-3.2428,-3.2777,-3.2777,-3.2904,-3.3127,-3.3127,-3.3127,-3.3127,-3.3127,-3.3127,-3.3127,-3.3127,-3.3127,-3.3127,-3.3127,-3.3127,-3.3047,-3.2571,-3.2571,-3.2777,-3.2777,-3.2936,-3.3127,-3.3127,-3.3435,-3.4243,-3.535,-3.6147,-3.6817,-3.8068,-3.8438,-3.8456,-3.8603,-3.864,-3.864,-3.864,-3.864,-3.864,-3.864,-3.864,-3.864,-3.864,-3.864,-3.8731,-3.8988,-3.8805,-3.864,-3.864,-3.864,-3.864,-3.864,-3.864,-3.864,-3.864,-3.864,-3.864,-3.864,-3.864,-3.864,-3.864,-3.9883,-4.0353,-3.9883,-4.279,-4.4008,-4.3553,-4.5234,-4.6002,-4.6002,-4.6002,-4.6002,0.0,-2.9298,-2.9329,-2.9457,-2.9663,-2.9886,-3.014,-3.0362,-3.0616,-3.0982,-3.1045,-3.1125,-3.1347,-3.1395,-3.1395,-3.1395,-3.1395,-3.1395,-3.1395,-3.1395,-3.1395,-3.1395,-3.1395,-3.1395,0.0,0.0,0.0,-3.1395,-3.1395,-3.1395,-3.1395,-3.1395,-3.1395,-3.1395,-3.1522,-3.1697,-3.1919,-3.203,-3.2269,-3.2602,-3.273,-3.292,-3.3143,-3.3143,-3.327,-3.3492,-3.3492,-3.3492,-3.3492,-3.3492,-3.3492,-3.3492,-3.3492,-3.3492,-3.3492,-3.3492,-3.3492,-3.3413,-3.2952,-3.2952,-3.3143,-3.3143,-3.3301,-3.3476,-3.3804,-3.4131,-3.4767,-3.6224,-3.6707,-3.7188,-3.8322,-3.864,-3.864,-3.864,-3.864,-3.864,-3.864,-3.875,-3.886,-3.886,-3.897,-3.908,-3.908,-3.908,-3.9153,-3.941,-3.9226,-3.908,-3.908,-3.908,-3.908,-3.908,-3.908,-3.908,-3.908,-3.908,-3.908,-3.908,-3.908,-3.908,-3.908,-3.986,-4.0319,-4.0477,-4.2812,-4.4049,-4.4224,-4.5771,-4.6526,-4.6526,-4.6526,-4.6526,-2.9298,-2.9314,-2.9409,-2.9743,-2.9854,-3.0044,-3.0712,-3.0871,-3.0982,-3.1315,-3.1395,-3.1395,0.0,0.0,-3.1395,-3.1395,-3.1395,-3.1395,-3.1395,-3.1395,-3.1395,0.0,0.0,0.0,0.0,0.0,0.0,-3.1395,-3.1395,-3.1395,-3.1395,-3.1411,-3.1411,-3.1411,-3.176,-3.1951,-3.1967,-3.2301,-3.2634,-3.2984,-3.3333,-3.3492,-3.3492,-3.3492,-3.3492,-3.3492,-3.3492,-3.3492,-3.3492,-3.3492,-3.3656,-3.3656,-3.364,-3.364,-3.3656,-3.364,-3.364,-3.3656,-3.364,-3.364,-3.3656,-3.364,-3.364,-3.3804,-3.4621,-3.5416,-3.6224,-3.7188,-3.8004,-3.8481,-3.864,-3.864,-3.8658,-3.8676,-3.8676,-3.8676,-3.8695,-3.9006,-3.9263,-3.9263,-3.9575,-3.985,-3.985,-3.985,-3.9868,-3.9868,-3.9887,-3.9887,-3.985,-3.985,-3.985,-3.985,-3.985,-3.985,-3.985,-3.985,-3.985,-3.985,-3.985,-3.985,-3.985,-3.9995,-4.1114,-4.3519,-4.3678,-4.496,-4.7334,-4.7488,-4.7488,-4.7488,-4.7488,-4.7488,-2.9298,-2.9488,-2.9711,-2.9806,-3.0219,-3.0648,-3.0823,-3.1061,-3.1284,-3.1379,-3.1395,-3.1395,0.0,0.0,0.0,-3.1395,-3.1395,0.0,-3.1395,-3.1395,0.0,-3.1395,0.0,-3.1395,-3.1395,-3.1395,0.0,0.0,-3.1395,-3.1395,-3.1395,-3.1649,-3.1776,-3.1776,-3.211,-3.2412,-3.2698,-3.3031,-3.3254,-3.3349,-3.3444,-3.3492,-3.3492,-3.3492,-3.3492,-3.3492,-3.3492,-3.3492,-3.3492,-3.4131,-3.4458,-3.4458,-3.5254,-3.5092,-3.4621,-3.5254,-3.5092,-3.4621,-3.5254,-3.4929,-3.4621,-3.5254,-3.5416,-3.5416,-3.574,-3.5901,-3.6224,-3.7188,-3.7525,-3.7845,-3.8481,-3.864,-3.8713,-3.9006,-3.908,-3.9171,-3.9465,-3.9612,-3.9685,-3.9685,-3.9777,-3.985,-3.985,-4.0107,-4.0308,-4.0308,-4.0565,-4.0529,-3.9923,-3.985,-3.985,-3.985,-3.985,-3.985,-3.985,-3.985,-3.985,-3.985,-3.985,-3.985,-3.985,-4.079,-4.1114,-4.0809,-4.3678,-4.496,-4.4646,-4.6541,-4.7488,-4.7488,-4.7488,-4.7488,-2.9488,-2.9679,-2.9901,-3.0203,-3.0569,-3.0902,-3.1061,-3.1252,-3.1395,-3.1395,-3.1395,0.0,-3.1395,0.0,0.0,0.0,0.0,0.0,-3.1395,-3.1395,-3.1395,0.0,-3.1395,0.0,-3.1395,-3.1395,-3.1395,0.0,-3.1395,-3.1458,-3.1617,-3.1808,-3.1983,-3.2126,-3.2475,-3.2825,-3.319,-3.3381,-3.3492,-3.3492,-3.3492,-3.3492,-3.3492,-3.3492,-3.3492,-3.3492,-3.3492,-3.364,-3.4131,-3.4621,-3.5109,-3.5416,-3.5901,-3.574,-3.5416,-3.5901,-3.574,-3.545,-3.6575,-3.6627,-3.6123,-3.6114,-3.6063,-3.6224,-3.6546,-3.6707,-3.6902,-3.7882,-3.8257,-3.8293,-3.8956,-3.9171,-3.9226,-3.9447,-3.9502,-3.9557,-3.9795,-3.9997,-4.0162,-4.0345,-4.0382,-4.0382,-4.0382,-4.0565,-4.073,-4.073,-4.0914,-4.0895,-4.0437,-4.0382,-4.0382,-4.0382,-4.0382,-4.0382,-4.0382,-4.0382,-4.0382,-4.0382,-4.0382,-4.0382,-4.0382,-4.1024,-4.1335,-4.1335,-4.3273,-4.4562,-4.5062,-4.6511,-4.7475,-4.8099,-4.8099,-4.8099,-2.9727,-2.9854,-3.0044,-3.0696,-3.0902,-3.1014,-3.1315,-3.1395,-3.1395,-3.1395,0.0,-3.1395,-3.1395,-3.1395,-3.1395,-3.1395,0.0,-3.1395,-3.1395,-3.1395,-3.1395,-3.1395,-3.1395,-3.1395,-3.1395,-3.1395,-3.1411,-3.1458,-3.1458,-3.1586,-3.1903,-3.1999,-3.2205,-3.2539,-3.2857,-3.3174,-3.3476,-3.3492,-3.3492,-3.3492,-3.3492,-3.3492,-3.3492,-3.3492,-3.3492,-3.3492,-3.3492,-3.3968,-3.4783,-3.4946,-3.545,-3.6293,-3.6454,-3.6489,-3.6379,-3.6523,-3.6523,-3.6575,-3.788,-3.8167,-3.8113,-3.6968,-3.6523,-3.6685,-3.7507,-3.7668,-3.79,-3.9047,-3.9318,-3.9392,-3.974,-3.985,-3.985,-3.9905,-3.9923,-3.9942,-3.9997,-4.029,-4.0657,-4.0987,-4.106,-4.106,-4.106,-4.106,-4.106,-4.106,-4.106,-4.106,-4.106,-4.106,-4.106,-4.106,-4.106,-4.106,-4.106,-4.121,-4.1229,-4.106,-4.1229,-4.1229,-4.106,-4.106,-4.1546,-4.2678,-4.2825,-4.4146,-4.6447,-4.6769,-4.7432,-4.8569,-4.8749,-4.8907,-2.9727,-3.0029,-3.033,-3.0759,-3.1077,-3.1315,-3.1379,-3.1395,0.0,0.0,-3.1395,-3.1395,-3.1395,-3.1395,0.0,-3.1395,0.0,0.0,0.0,0.0,-3.1395,0.0,0.0,0.0,0.0,-3.1395,0.0,0.0,-3.1824,-3.1856,-3.1919,-3.2459,-3.2936,-3.3286,-3.3365,-3.3429,-3.3492,-3.3492,-3.3492,-3.3492,-3.3492,-3.3492,-3.3492,-3.3492,-3.3492,-3.3492,-3.3492,-3.3968,-3.4783,-3.5578,-3.6558,-3.7664,-3.8473,-3.8527,-3.8323,-3.8978,-3.8815,-3.8341,-3.9214,-3.9577,-3.9559,-3.9323,-3.9304,-3.9304,-3.9467,-3.9467,-3.9485,-3.9722,-3.974,-3.9758,-3.9832,-3.985,-3.9923,-4.0272,-4.0363,-4.0455,-4.0785,-4.0914,-4.0987,-4.1042,-4.106,-4.106,-4.106,-4.106,-4.106,-4.106,-4.106,-4.106,-4.106,-4.106,-4.106,-4.106,-4.106,-4.106,-4.106,-4.203,-4.2197,-4.1229,-4.203,-4.2197,-4.106,-4.106,-4.1229,-4.1378,-4.2512,-4.3156,-4.3652,-4.5799,-4.693,-4.7272,-4.841,-4.8907,-2.9933,-3.0203,-3.0442,-3.0998,-3.1268,-3.1395,-3.1395,0.0,0.0,0.0,-3.1395,-3.1395,-3.1395,0.0,0.0,0.0,0.0,0.0,0.0,0.0,0.0,0.0,0.0,0.0,0.0,-3.1395,-3.1538,-3.1887,-3.2078,-3.2253,-3.2444,-3.2952,-3.3301,-3.3476,-3.3492,-3.3492,-3.3492,-3.3492,-3.3492,-3.3492,-3.3492,-3.3492,-3.3492,-3.3492,-3.3587,-3.3762,-3.4242,-3.4998,-3.6152,-3.6972,-3.8075,-3.9051,-3.9376,-3.9504,-3.9359,-3.9686,-3.9686,-3.9377,-3.9924,-4.0162,-4.0198,-4.04,-4.018,-3.985,-3.985,-3.985,-3.9887,-4.0107,-4.0162,-4.0217,-4.0418,-4.0473,-4.0529,-4.073,-4.0767,-4.0822,-4.1024,-4.106,-4.106,-4.106,-4.106,-4.106,-4.106,-4.106,-4.106,-4.106,-4.106,-4.106,-4.106,-4.106,-4.106,-4.106,-4.106,-4.106,-4.106,-4.2197,-4.2678,-4.2197,-4.3341,-4.3837,-4.3195,-4.3195,-4.2863,-4.203,-4.2678,-4.3322,-4.4001,-4.5311,-4.6608,-4.7933,-4.8569,-4.8907,-3.0124,-3.0315,-3.0489,-3.1204,-3.1395,-3.1395,-3.1395,-3.1395,0.0,0.0,-3.1395,-3.1395,-3.1395,0.0,0.0,0.0,0.0,0.0,0.0,0.0,0.0,0.0,0.0,0.0,0.0,-3.1395,0.0,-3.1999,-3.2412,-3.2761,-3.3047,-3.3333,-3.3492,-3.3492,-3.3492,-3.3492,-3.3492,-3.3492,-3.3492,-3.3492,-3.3492,-3.3524,-3.3603,-3.3603,-3.396,-3.4462,-3.5112,-3.6257,-3.7508,-3.8371,-3.9084,-3.9978,-3.9978,-4.0033,-4.0107,-4.0107,-4.0107,-4.0143,-4.0492,-4.0602,-4.0639,-4.095,-4.062,-4.0107,-4.0107,-4.0107,-4.0162,-4.051,-4.0602,-4.0675,-4.0987,-4.106,-4.106,-4.106,-4.106,-4.106,-4.106,-4.106,-4.106,-4.106,-4.106,-4.106,-4.106,-4.106,-4.106,-4.106,-4.106,-4.106,-4.106,-4.106,-4.1229,-4.1546,-4.1546,-4.1546,-4.1546,-4.301,-4.3652,-4.3507,-4.4658,-4.5332,-4.5005,-4.5005,-4.4494,-4.3507,-4.3507,-4.4001,-4.5005,-4.5332,-4.6467,-4.841,-4.8749,-4.8907,-3.0124,-3.0315,-3.0489,-3.1204,-3.1395,-3.1395,-3.1395,0.0,0.0,-3.1395,-3.1395,-3.1395,-3.1395,0.0,0.0,0.0,0.0,0.0,0.0,0.0,0.0,0.0,0.0,0.0,-3.1395,-3.1395,-3.1665,-3.2316,-3.3,-3.3397,-3.3429,-3.346,-3.3492,-3.3492,-3.3492,-3.3492,-3.3492,-3.3492,-3.3492,-3.3492,-3.3492,-3.3651,-3.3969,-3.3969,-3.4645,-3.5656,-3.5823,-3.6843,-3.8536,-3.8536,-3.9411,-4.0418,-4.0418,-4.0639,-4.095,-4.095,-4.095,-4.095,-4.0987,-4.1005,-4.1005,-4.1042,-4.1005,-4.095,-4.095,-4.095,-4.095,-4.0987,-4.1005,-4.1005,-4.1042,-4.106,-4.106,-4.106,-4.106,-4.106,-4.106,-4.106,-4.106,-4.106,-4.106,-4.106,-4.106,-4.106,-4.106,-4.106,-4.106,-4.106,-4.106,-4.106,-4.1546,-4.2678,-4.2844,-4.2844,-4.2844,-4.5128,-4.6123,-4.4842,-4.5961,-4.6123,-4.5005,-4.5005,-4.5005,-4.4842,-4.4842,-4.4842,-4.5005,-4.6123,-4.6769,-4.709,-4.841,-4.8907,-3.0124,-3.0315,-3.0489,-3.1204,-3.1395,-3.1395,-3.1395,0.0,0.0,-3.1395,-3.1395,-3.1395,-3.1395,0.0,0.0,0.0,0.0,0.0,0.0,0.0,0.0,0.0,0.0,0.0,0.0,0.0,-3.1999,-3.2682,-3.3206,-3.3492,-3.3492,-3.3492,-3.3492,-3.3492,-3.3492,-3.3492,-3.3492,-3.3492,-3.3492,-3.3492,-3.3699,-3.3873,-3.4016,-3.4725,-3.5521,-3.6203,-3.7367,-3.8345,-3.9228,-3.9916,-4.0341,-4.0822,-4.0822,-4.0914,-4.106,-4.106,-4.106,-4.106,-4.106,-4.106,-4.106,-4.106,-4.106,-4.106,-4.106,-4.106,-4.106,-4.106,-4.106,-4.106,-4.106,-4.106,-4.106,-4.106,-4.106,-4.106,-4.106,-4.106,-4.106,-4.106,-4.106,-4.106,-4.106,-4.106,-4.106,-4.106,-4.106,-4.1378,-4.2197,-4.2197,-4.2678,-4.4001,-4.3507,-4.3341,-4.4166,-4.5799,-4.6608,-4.6123,-4.7432,-4.7911,-4.7432,-4.7272,-4.6951,-4.6123,-4.6123,-4.6123,-4.6123,-4.6608,-4.7272,-4.8092,-4.8569,-4.8907,-3.0013,-3.0235,-3.0458,-3.1077,-3.1315,-3.1395,0.0,0.0,0.0,-3.1395,-3.1395,-3.1395,-3.1395,-3.1395,-3.1395,-3.1395,0.0,-3.1395,0.0,0.0,0.0,0.0,0.0,0.0,0.0,-3.1808,-3.2316,-3.2904,-3.3286,-3.3492,-3.3492,-3.3492,-3.3492,-3.3492,-3.3492,-3.3492,-3.3492,-3.3492,-3.354,-3.3635,-3.3889,-3.4295,-3.4654,-3.5586,-3.6558,-3.7419,-3.8775,-3.9609,-4.0216,-4.0892,-4.106,-4.106,-4.106,-4.106,-4.106,-4.106,-4.106,-4.106,-4.106,-4.106,-4.106,-4.106,-4.106,-4.106,-4.106,-4.106,-4.106,-4.106,-4.106,-4.106,-4.106,-4.106,-4.106,-4.106,-4.106,-4.106,-4.106,-4.106,-4.106,-4.106,-4.106,-4.106,-4.106,-4.106,-4.106,-4.106,-4.106,-4.1546,-4.2844,-4.2991,-4.3672,-4.5311,-4.4658,-4.4474,-4.5474,-4.679,-4.7432,-4.7432,-4.841,-4.8907,-4.8907,-4.8907,-4.841,-4.7592,-4.7432,-4.7432,-4.7432,-4.7432,-4.7911,-4.8907,-4.8907,-4.8907,-2.9727,-3.006,-3.041,-3.0775,-3.1125,-3.1395,0.0,0.0,0.0,-3.1395,-3.1395,-3.1395,-3.1395,-3.1395,-3.1395,-3.1395,-3.1395,-3.1395,-3.1395,0.0,0.0,0.0,0.0,0.0,-3.1395,-3.1999,-3.2555,-3.2936,-3.3286,-3.3492,-3.3492,-3.3492,-3.3492,-3.3492,-3.3492,-3.3492,-3.3492,-3.3492,-3.3667,-3.4001,-3.4016,-3.487,-3.6401,-3.6418,-3.7624,-3.9689,-3.9689,-4.0198,-4.106,-4.106,-4.106,-4.106,-4.106,-4.106,-4.106,-4.106,-4.106,-4.106,-4.106,-4.106,-4.106,-4.106,-4.106,-4.106,-4.106,-4.106,-4.106,-4.106,-4.106,-4.106,-4.106,-4.106,-4.106,-4.106,-4.106,-4.106,-4.106,-4.106,-4.106,-4.106,-4.106,-4.106,-4.106,-4.106,-4.106,-4.106,-4.106,-4.1546,-4.2844,-4.2991,-4.3982,-4.6608,-4.693,-4.693,-4.693,-4.8092,-4.8907,-4.8907,-4.8907,-4.8907,-4.8907,-4.8907,-4.8907,-4.8907,-4.8907,-4.8907,-4.8907,-4.8907,-4.8907,-4.8907,-4.8907,-4.8907,-3.0013,-3.0235,-3.0458,-3.1077,-3.13,-3.1395,-3.1395,0.0,0.0,0.0,0.0,-3.1395,-3.1395,-3.1395,-3.1395,-3.1395,-3.1395,-3.1395,-3.1395,0.0,0.0,0.0,0.0,0.0,0.0,0.0,-3.2666,-3.327,-3.3429,-3.3492,-3.3492,-3.3492,-3.3492,-3.3492,-3.3492,-3.3492,-3.3492,-3.3492,-3.3667,-3.4016,-3.4239,-3.5096,-3.6418,-3.735,-3.8391,-3.9689,-4.0385,-4.0892,-4.106,-4.106,-4.106,-4.106,-4.106,-4.106,-4.106,-4.106,-4.106,-4.106,-4.106,-4.106,-4.106,-4.106,-4.106,-4.106,-4.106,-4.106,-4.106,-4.106,-4.106,-4.106,-4.106,-4.106,-4.106,-4.106,-4.106,-4.106,-4.106,-4.106,-4.106,-4.106,-4.106,-4.106,-4.106,-4.106,-4.106,-4.106,-4.1863,-4.2844,-4.4166,-4.5148,-4.6285,-4.8092,-4.8251,-4.8251,-4.8251,-4.8727,-4.8907,-4.8907,-4.8907,-4.8907,-4.8907,-4.8907,-4.8907,-4.8907,-4.8907,-4.8907,-4.8907,-4.8907,-4.8907,-4.8907,-4.8907,-4.9082,0.0,-3.0124,-3.0426,-3.0871,-3.1188,0.0,0.0,0.0,0.0,0.0,0.0,0.0,0.0,-3.1395,-3.1395,-3.1395,-3.1395,-3.1395,-3.1395,0.0,0.0,0.0,0.0,0.0,0.0,-3.2412,-3.2714,-3.3429,-3.3492,-3.3492,-3.3492,-3.3492,-3.3492,-3.3492,-3.3492,-3.3492,-3.3492,-3.3492,-3.373,-3.4207,-3.4414,-3.5443,-3.7146,-3.7878,-3.9007,-4.0198,-4.0892,-4.106,0.0,-4.106,-4.106,-4.106,-4.106,-4.106,-4.106,-4.106,-4.106,-4.106,-4.106,-4.106,-4.106,-4.106,-4.106,-4.106,-4.106,-4.106,-4.106,-4.106,-4.106,-4.106,-4.106,-4.106,-4.106,-4.106,-4.106,-4.106,-4.106,-4.106,-4.106,-4.106,-4.106,-4.106,-4.106,-4.106,-4.1229,-4.1695,-4.2512,-4.3652,-4.5474,-4.6447,-4.7432,-4.8749,-4.8907,-4.8907,-4.8907,-4.8907,-4.8907,-4.8907,-4.8907,-4.8907,-4.8907,-4.8907,-4.8907,-4.8907,-4.8907,-4.8907,-4.8907,-4.8907,-4.8995,-4.917,-4.917,-4.9432,0.0,0.0,0.0,0.0,0.0,0.0,0.0,0.0,0.0,0.0,0.0,0.0,0.0,-3.1395,-3.1395,-3.1395,-3.1395,-3.1395,-3.1395,-3.1395,0.0,0.0,0.0,0.0,-3.2348,-3.2412,-3.2714,-3.3429,-3.3492,-3.3492,-3.3492,-3.3492,-3.3492,-3.3492,-3.3492,-3.3492,-3.3492,-3.3492,-3.3826,-3.4509,-3.4509,-3.5897,-3.8323,-3.8323,-3.9348,-4.106,-4.106,-4.106,-4.106,-4.106,-4.106,-4.106,-4.106,-4.106,-4.106,-4.106,-4.106,-4.106,-4.106,-4.106,-4.106,-4.106,-4.106,-4.106,-4.106,-4.106,-4.106,-4.106,-4.106,-4.106,-4.106,-4.106,-4.106,-4.106,-4.106,-4.106,-4.106,-4.106,-4.106,-4.106,-4.106,-4.106,-4.106,-4.1229,-4.1714,-4.2844,-4.3156,-4.4146,-4.6608,-4.693,-4.7592,-4.8749,-4.8907,-4.8907,-4.8907,-4.8907,-4.8907,-4.8907,-4.8907,-4.8907,-4.8907,-4.8907,-4.8907,-4.8907,-4.8907,-4.8907,-4.8907,-4.8929,-4.9191,-4.9628,-4.9672,-4.9934,0.0,0.0,0.0,0.0,0.0,0.0,0.0,0.0,0.0,0.0,0.0,0.0,0.0,0.0,-3.1395,-3.1395,-3.1395,-3.1395,-3.1395,0.0,0.0,0.0,0.0,-3.1665,-3.2348,-3.2412,-3.2714,-3.3429,-3.3492,-3.3492,-3.3492,-3.3492,-3.3492,-3.3492,-3.3492,-3.3492,-3.3492,-3.3492,-3.3826,-3.4509,-3.4509,-3.5897,-3.8323,-3.8323,-3.9348,-4.106,-4.106,-4.106,-4.106,-4.106,-4.106,-4.106,-4.106,-4.106,-4.106,-4.106,-4.106,-4.106,-4.106,-4.106,-4.106,-4.106,-4.106,-4.106,-4.106,-4.106,-4.106,-4.106,-4.106,-4.106,-4.106,-4.106,-4.106,-4.106,-4.106,-4.106,-4.106,-4.106,-4.106,-4.106,-4.106,-4.106,-4.106,-4.1863,-4.2678,-4.2991,-4.4638,-4.6285,-4.6769,-4.7752,-4.8569,-4.8907,-4.8907,-4.8907,-4.8907,-4.8907,-4.8907,-4.8907,-4.8907,-4.8907,-4.8907,-4.8907,-4.8907,-4.8907,-4.8907,-4.8907,-4.8907,-4.9279,-4.9519,-4.9628,-5.0,-5.0415,0.0,0.0,0.0,0.0,0.0,0.0,0.0,0.0,0.0,0.0,0.0,0.0,0.0,0.0,0.0,-3.1395,-3.1395,-3.1395,0.0,0.0,0.0,0.0,0.0,-3.1665,0.0,-3.2412,-3.2714,-3.3429,-3.3492,-3.3492,-3.3492,-3.3492,-3.3492,-3.3492,-3.3492,-3.3492,-3.3492,-3.3492,-3.3826,-3.4509,-3.4509,-3.5897,-3.8323,-3.8323,-3.9348,-4.106,-4.106,-4.106,-4.106,-4.106,-4.106,-4.106,-4.106,-4.106,-4.106,-4.106,-4.106,-4.106,-4.106,-4.106,-4.106,-4.106,-4.106,-4.106,-4.106,-4.106,-4.106,-4.106,-4.106,-4.106,-4.106,-4.106,-4.106,-4.106,-4.106,-4.106,-4.106,-4.106,-4.106,-4.106,-4.106,-4.1229,-4.1863,-4.2512,-4.3322,-4.4638,-4.5941,-4.7111,-4.7752,-4.841,-4.8907,-4.8907,-4.8907,-4.8907,-4.8907,-4.8907,-4.8907,-4.8907,-4.8907,-4.8907,-4.8907,-4.8907,-4.8907,-4.8907,-4.8907,-4.8907,-4.8907,-4.9388,-4.9737,-4.9956,-5.0436,-5.0939,-2.9298,-2.9758,-3.0251,-3.0299,-3.0823,-3.1331,0.0,0.0,0.0,0.0,0.0,0.0,0.0,0.0,0.0,0.0,0.0,0.0,0.0,0.0,0.0,0.0,-3.1395,0.0,-3.2348,-3.2412,-3.2714,-3.3429,-3.3492,-3.3492,-3.3492,-3.3492,-3.3492,-3.3492,-3.3492,-3.3492,-3.3492,-3.3492,-3.381,-3.443,-3.4477,-3.5864,-3.8238,-3.8306,-3.9348,-4.106,-4.106,-4.106,-4.106,-4.106,-4.106,-4.106,-4.106,-4.106,-4.106,-4.106,-4.106,-4.106,-4.106,-4.106,-4.106,-4.106,-4.106,-4.106,-4.106,-4.106,-4.106,-4.106,-4.106,-4.106,-4.106,-4.106,-4.106,-4.106,-4.106,-4.106,-4.106,-4.106,-4.106,-4.106,-4.1229,-4.1714,-4.2844,-4.3322,-4.431,-4.6608,-4.7111,-4.7592,-4.8727,-4.8907,-4.8907,-4.8907,-4.8907,-4.8907,-4.8907,-4.8907,-4.8907,-4.8907,-4.8907,-4.8907,-4.8907,-4.8907,-4.8907,-4.8907,-4.8907,-4.8907,-4.8907,-4.9454,-4.9934,-5.0327,-5.0917,-5.1398,-2.9298,-2.96,-2.9965,-3.0251,-3.0632,-3.1014,0.0,0.0,0.0,0.0,0.0,0.0,0.0,0.0,0.0,0.0,0.0,0.0,0.0,0.0,0.0,0.0,0.0,-3.1665,-3.2348,-3.2412,-3.2714,-3.3429,-3.3492,-3.3492,-3.3492,-3.3492,-3.3492,-3.3492,-3.3492,-3.3492,-3.3492,-3.3492,-3.3683,-3.4096,-3.4366,-3.5733,-3.7861,-3.8186,-3.9348,-4.106,-4.106,-4.106,-4.106,-4.106,-4.106,-4.106,-4.106,-4.106,-4.106,-4.106,-4.106,-4.106,-4.106,-4.106,-4.106,-4.106,-4.106,-4.106,-4.106,-4.106,-4.106,-4.106,-4.106,-4.106,-4.106,-4.106,-4.106,-4.106,-4.106,-4.106,-4.106,-4.106,-4.106,-4.106,-4.203,-4.2844,-4.2991,-4.4802,-4.6447,-4.6769,-4.7911,-4.8727,-4.8907,-4.8907,-4.8907,-4.8907,-4.8907,-4.8907,-4.8907,-4.8907,-4.8907,-4.8907,-4.8907,-4.8907,-4.8907,-4.8907,-4.8907,-4.8907,-4.8907,-4.8907,-4.8907,-4.9781,-5.024,-5.0327,-5.1267,-5.1725,-2.9298,-2.9409,-2.9663,-3.0187,-3.0585,-3.095,0.0,0.0,0.0,0.0,0.0,0.0,0.0,0.0,0.0,0.0,0.0,0.0,0.0,0.0,-3.1395,0.0,0.0,-3.1665,-3.2348,-3.2412,-3.2714,-3.3429,-3.3492,-3.3492,-3.3492,-3.3492,-3.3492,-3.3492,-3.3492,-3.3492,-3.3492,-3.3492,-3.3667,-3.4016,-3.435,-3.57,-3.7775,-3.8152,-3.9348,-4.106,-4.106,-4.106,-4.106,-4.106,-4.106,-4.106,-4.106,-4.106,-4.106,-4.106,-4.106,-4.106,-4.106,-4.106,-4.106,-4.106,-4.106,-4.106,-4.106,-4.106,-4.106,-4.106,-4.106,-4.106,-4.106,-4.106,-4.106,-4.106,-4.106,-4.106,-4.106,-4.106,-4.121,-4.203,-4.2678,-4.3487,-4.4802,-4.6123,-4.7111,-4.7911,-4.8569,-4.8907,-4.8907,-4.8907,-4.8907,-4.8907,-4.8907,-4.8907,-4.8907,-4.8907,-4.8907,-4.8907,-4.8907,-4.8907,-4.8907,-4.8907,-4.8907,-4.8907,-4.8907,-4.8907,-4.8907,-4.9847,-5.0305,-5.0327,-5.1332,-5.1791,-2.9298,-2.9361,-2.9568,0.0,0.0,0.0,0.0,0.0,0.0,0.0,0.0,0.0,0.0,0.0,0.0,0.0,0.0,0.0,-3.1395,-3.1395,-3.1395,-3.1395,-3.1395,-3.1665,-3.2348,-3.2412,-3.2714,-3.3429,-3.3492,-3.3492,-3.3492,-3.3492,-3.3492,-3.3492,-3.3492,-3.3492,-3.3492,-3.3492,-3.3619,-3.3889,-3.4223,-3.5586,-3.7638,-3.8015,-3.926,-4.106,-4.106,-4.106,-4.106,-4.106,-4.106,-4.106,-4.106,-4.106,-4.106,-4.106,-4.106,-4.106,-4.106,-4.106,-4.106,-4.106,-4.106,-4.106,-4.106,-4.106,-4.106,-4.106,-4.106,-4.106,-4.106,-4.106,-4.106,-4.106,-4.106,-4.106,-4.106,-4.1378,-4.1863,-4.2844,-4.3487,-4.4474,-4.6608,-4.709,-4.7752,-4.8727,-4.8907,-4.8907,-4.8907,-4.8907,-4.8907,-4.8907,-4.8907,-4.8907,-4.8907,-4.8907,-4.8907,-4.8907,-4.8907,-4.8907,-4.8907,-4.8907,-4.8907,-4.8907,-4.8907,-4.8907,-4.8907,-4.9847,-5.0305,-5.0327,-5.1332,-5.1791,-2.9298,-2.9536,-2.987,0.0,0.0,0.0,0.0,0.0,0.0,0.0,0.0,0.0,0.0,0.0,0.0,0.0,0.0,-3.1395,-3.1395,0.0,-3.1395,-3.1395,-3.1395,-3.1665,-3.2348,-3.2412,-3.2714,-3.3429,-3.3492,-3.3492,-3.3492,-3.3492,-3.3492,-3.3492,-3.3492,-3.3492,-3.3492,-3.3492,-3.3492,-3.3524,-3.3889,-3.5226,-3.7411,-3.7621,-3.9014,-4.106,-4.106,-4.106,-4.106,-4.106,-4.106,-4.106,-4.106,-4.106,-4.106,-4.106,-4.106,-4.106,-4.106,-4.106,-4.106,-4.106,-4.106,-4.106,-4.106,-4.106,-4.106,-4.106,-4.106,-4.106,-4.106,-4.106,-4.106,-4.106,-4.106,-4.106,-4.106,-4.203,-4.2844,-4.2991,-4.4965,-4.6608,-4.693,-4.7911,-4.8749,-4.8907,-4.8907,-4.8907,-4.8907,-4.8907,-4.8907,-4.8907,-4.8907,-4.8907,-4.8907,-4.8907,-4.8907,-4.8907,-4.8907,-4.8907,-4.8907,-4.8907,-4.8907,-4.8907,-4.8907,-4.8907,-4.8907,-4.9847,-5.0305,-5.0327,-5.1332,-5.1791,-2.9298,-2.9393,0.0,0.0,0.0,0.0,0.0,0.0,0.0,0.0,0.0,0.0,0.0,0.0,0.0,0.0,0.0,-3.1395,-3.1395,-3.1395,-3.1395,-3.1395,-3.1395,-3.1586,-3.2062,-3.2285,-3.2618,-3.3111,-3.3365,-3.3492,-3.3492,-3.3492,-3.3492,-3.3492,-3.3492,-3.3492,-3.3492,-3.3492,-3.3492,-3.3492,-3.3842,-3.5063,-3.6868,-3.7484,-3.8856,-4.0712,-4.095,-4.106,-4.106,-4.106,-4.106,-4.106,-4.106,-4.106,-4.106,-4.106,-4.106,-4.106,-4.106,-4.106,-4.106,-4.106,-4.106,-4.106,-4.106,-4.106,-4.106,-4.106,-4.106,-4.106,-4.106,-4.106,-4.106,-4.106,-4.106,-4.1378,-4.203,-4.2678,-4.3487,-4.5128,-4.6285,-4.709,-4.7911,-4.8569,-4.8907,-4.8907,-4.8907,-4.8907,-4.8907,-4.8907,-4.8907,-4.8907,-4.8907,-4.8907,-4.8907,-4.8907,-4.8907,-4.8907,-4.8907,-4.8907,-4.8907,-4.8907,-4.8907,-4.8907,-4.8907,-4.8907,-4.8907,-4.9847,-5.0305,-5.0327,-5.1332,-5.1791,-2.9298,-2.9457,0.0,0.0,0.0,0.0,0.0,0.0,0.0,0.0,0.0,0.0,0.0,0.0,0.0,0.0,-3.1395,-3.1395,-3.1395,-3.1395,-3.1395,-3.1395,-3.1395,-3.1538,-3.1887,-3.2221,-3.2555,-3.2936,-3.3286,-3.3492,-3.3492,-3.3492,-3.3492,-3.3492,-3.3492,-3.3492,-3.3492,-3.3492,-3.3492,-3.3492,-3.373,-3.4718,-3.6334,-3.6962,-3.816,-3.9641,-4.0373,-4.0723,-4.0723,-4.106,-4.106,-4.106,-4.106,-4.106,-4.106,-4.106,-4.106,-4.106,-4.106,-4.106,-4.106,-4.106,-4.106,-4.106,-4.106,-4.106,-4.106,-4.106,-4.106,-4.106,-4.106,-4.106,-4.106,-4.106,-4.1378,-4.1863,-4.2844,-4.3652,-4.4802,-4.6608,-4.7272,-4.7752,-4.8727,-4.8907,-4.8907,-4.8907,-4.8907,-4.8907,-4.8907,-4.8907,-4.8907,-4.8907,-4.8907,-4.8907,-4.8907,-4.8907,-4.8907,-4.8907,-4.8907,-4.8907,-4.8907,-4.8907,-4.8907,-4.8907,-4.8907,-4.8907,-4.8907,-4.9847,-5.0305,-5.0327,-5.1332,-5.1791,-2.9298,0.0,0.0,0.0,0.0,0.0,0.0,0.0,0.0,0.0,0.0,0.0,0.0,0.0,0.0,-3.1395,-3.1395,-3.1395,-3.1395,-3.1395,-3.1395,-3.1395,-3.1395,-3.1522,-3.1872,-3.2221,-3.2555,-3.292,-3.3286,-3.3492,-3.3492,-3.3492,-3.3492,-3.3492,-3.3492,-3.3492,-3.3492,-3.3492,-3.3492,-3.3492,-3.3492,-3.4161,-3.5493,-3.5691,-3.656,-3.7944,-3.9173,-3.9689,-3.9689,-4.0723,-4.106,-4.106,-4.106,-4.106,-4.106,-4.106,-4.106,-4.106,-4.106,-4.106,-4.106,-4.106,-4.106,-4.106,-4.106,-4.106,-4.106,-4.106,-4.106,-4.106,-4.106,-4.106,-4.106,-4.106,-4.203,-4.2991,-4.2991,-4.5128,-4.693,-4.693,-4.7933,-4.8907,-4.8907,-4.8907,-4.8907,-4.8907,-4.8907,-4.8907,-4.8907,-4.8907,-4.8907,-4.8907,-4.8907,-4.8907,-4.8907,-4.8907,-4.8907,-4.8907,-4.8907,-4.8907,-4.8907,-4.8907,-4.8907,-4.8907,-4.8907,-4.8907,-4.8907,-4.9847,-5.0305,-5.0327,-5.1332,-5.1791,-2.9298,0.0,0.0,0.0,0.0,0.0,0.0,0.0,0.0,0.0,0.0,0.0,0.0,0.0,0.0,-3.1395,-3.1395,-3.1395,-3.1395,-3.1395,-3.1395,-3.1395,-3.1395,-3.1427,-3.1538,-3.2062,-3.2459,-3.2571,-3.3143,-3.3492,-3.3492,-3.3492,-3.3492,-3.3492,-3.3492,-3.3492,-3.3492,-3.3492,-3.3492,-3.3492,-3.3492,-3.4032,-3.4965,-3.5312,-3.6175,-3.7531,-3.8768,-3.944,-3.9689,-4.0723,-4.106,-4.106,-4.106,-4.106,-4.106,-4.106,-4.106,-4.106,-4.106,-4.106,-4.106,-4.106,-4.106,-4.106,-4.106,-4.106,-4.106,-4.106,-4.106,-4.106,-4.106,-4.106,-4.106,-4.106,-4.203,-4.3341,-4.4166,-4.5799,-4.7111,-4.8092,-4.8569,-4.8907,-4.8907,-4.8907,-4.8907,-4.8907,-4.8907,-4.8907,-4.8907,-4.8907,-4.8907,-4.8907,-4.8907,-4.8907,-4.8907,-4.8907,-4.8907,-4.8907,-4.8907,-4.8907,-4.8907,-4.8907,-4.8907,-4.8907,-4.8907,-4.8907,-4.8907,-4.9519,-5.0,-5.0327,-5.0983,-5.1463,0.0,0.0,0.0,0.0,0.0,0.0,0.0,0.0,0.0,0.0,0.0,0.0,0.0,-3.1395,0.0,-3.1395,-3.1395,-3.1395,-3.1395,-3.1395,-3.1395,-3.1395,-3.1395,-3.1395,-3.1395,-3.1887,-3.2269,-3.2396,-3.2952,-3.3333,-3.3476,-3.3492,-3.3492,-3.3492,-3.3492,-3.3492,-3.3492,-3.3492,-3.3492,-3.3492,-3.3492,-3.3804,-3.4311,-3.4669,-3.5427,-3.649,-3.8355,-3.9502,-4.0367,-4.0892,-4.106,-4.106,-4.106,-4.106,-4.106,-4.106,-4.106,-4.106,-4.106,-4.106,-4.106,-4.106,-4.106,-4.106,-4.106,-4.106,-4.106,-4.106,-4.106,-4.106,-4.106,-4.106,-4.106,-4.106,-4.2531,-4.4001,-4.4842,-4.6467,-4.7911,-4.8727,-4.8907,-4.8907,-4.8907,-4.8907,-4.8907,-4.8907,-4.8907,-4.8907,-4.8907,-4.8907,-4.8907,-4.8907,-4.8907,-4.8907,-4.8907,-4.8907,-4.8907,-4.8907,-4.8907,-4.8907,-4.8907,-4.8907,-4.8907,-4.8907,-4.8907,-4.8907,-4.8907,-4.9388,-4.9869,-5.0327,-5.083,-5.1498,0.0,0.0,0.0,0.0,0.0,0.0,0.0,0.0,0.0,0.0,0.0,0.0,-3.1395,-3.1395,-3.1395,-3.1395,-3.1395,-3.1395,-3.1395,-3.1395,-3.1395,-3.1395,-3.1395,-3.1395,-3.1395,-3.1713,-3.2062,-3.238,-3.2745,-3.3111,-3.346,-3.3492,-3.3492,-3.3492,-3.3492,-3.3492,-3.3492,-3.3492,-3.3492,-3.3492,-3.3492,-3.3492,-3.3492,-3.3826,-3.4484,-3.556,-3.8118,-3.9856,-4.106,-4.106,-4.106,-4.106,-4.106,-4.106,-4.106,-4.106,-4.106,-4.106,-4.106,-4.106,-4.106,-4.106,-4.106,-4.106,-4.106,-4.106,-4.106,-4.106,-4.106,-4.106,-4.106,-4.106,-4.106,-4.106,-4.3029,-4.4842,-4.5005,-4.6951,-4.8727,-4.8907,-4.8907,-4.8907,-4.8907,-4.8907,-4.8907,-4.8907,-4.8907,-4.8907,-4.8907,-4.8907,-4.8907,-4.8907,-4.8907,-4.8907,-4.8907,-4.8907,-4.8907,-4.8907,-4.8907,-4.8907,-4.8907,-4.8907,-4.8907,-4.8907,-4.8907,-4.8907,-4.8907,-4.9344,-4.9825,-5.049,-5.095,-5.1928,0.0,0.0,0.0,0.0,0.0,0.0,0.0,0.0,0.0,0.0,0.0,0.0,-3.1395,-3.1395,-3.1395,-3.1395,-3.1395,-3.1395,-3.1395,-3.1395,-3.1395,-3.1395,-3.1395,-3.1395,-3.1395,-3.1713,-3.2062,-3.238,-3.2745,-3.3111,-3.346,-3.3492,-3.3492,-3.3492,-3.3492,-3.3492,-3.3492,-3.3492,-3.3492,-3.3492,-3.3492,-3.3492,-3.3492,-3.3556,-3.4883,-3.6924,-3.8408,-3.9856,-4.106,-4.106,-4.106,-4.106,-4.106,-4.106,-4.106,-4.106,-4.106,-4.106,-4.106,-4.106,-4.106,-4.106,-4.106,-4.106,-4.106,-4.106,-4.106,-4.106,-4.106,-4.106,-4.106,-4.106,-4.106,-4.106,-4.2364,-4.3672,-4.4842,-4.6306,-4.7592,-4.8727,-4.8907,-4.8907,-4.8907,-4.8907,-4.8907,-4.8907,-4.8907,-4.8907,-4.8907,-4.8907,-4.8907,-4.8907,-4.8907,-4.8907,-4.8907,-4.8907,-4.8907,-4.8907,-4.8907,-4.8907,-4.8907,-4.8907,-4.8907,-4.8907,-4.8907,-4.8907,-4.8907,-4.9017,-4.9817,-5.1277,-5.1389,-5.2412,0.0,0.0,0.0,0.0,0.0,0.0,0.0,0.0,0.0,0.0,0.0,-3.1395,-3.1395,-3.1395,-3.1395,-3.1395,-3.1395,-3.1395,-3.1395,-3.1395,-3.1395,-3.1395,-3.1395,-3.1395,-3.1395,-3.1554,-3.1808,-3.2158,-3.2491,-3.2857,-3.3206,-3.3397,-3.3492,-3.3492,-3.3492,-3.3492,-3.3492,-3.3492,-3.3492,-3.3492,-3.3492,-3.364,-3.4131,-3.4604,-3.5572,-3.7118,-3.8825,-4.0068,-4.0785,-4.0987,-4.106,-4.106,-4.106,-4.106,-4.106,-4.106,-4.106,-4.106,-4.106,-4.106,-4.106,-4.106,-4.106,-4.106,-4.106,-4.106,-4.106,-4.106,-4.106,-4.106,-4.106,-4.106,-4.106,-4.106,-4.203,-4.3341,-4.4678,-4.5961,-4.7272,-4.8569,-4.8907,-4.8907,-4.8907,-4.8907,-4.8907,-4.8907,-4.8907,-4.8907,-4.8907,-4.8907,-4.8907,-4.8907,-4.8907,-4.8907,-4.8907,-4.8907,-4.8907,-4.8907,-4.8907,-4.8907,-4.8907,-4.8907,-4.8907,-4.8907,-4.8907,-4.8907,-4.8907,-4.8907,-4.9756,-5.1263,-5.151,-5.2649,0.0,0.0,0.0,0.0,0.0,0.0,0.0,0.0,0.0,0.0,-3.1395,-3.1395,-3.1395,-3.1395,-3.1395,-3.1395,-3.1395,-3.1395,-3.1395,-3.1395,-3.1395,-3.1395,-3.1395,-3.1395,-3.1395,-3.1395,-3.1538,-3.1887,-3.2221,-3.2571,-3.2936,-3.3286,-3.3492,-3.3492,-3.3492,-3.3492,-3.3492,-3.3492,-3.3492,-3.3492,-3.364,-3.4131,-3.5109,-3.5901,-3.6592,-3.699,-3.8942,-4.0015,-4.0492,-4.0822,-4.1005,-4.106,-4.106,-4.106,-4.106,-4.106,-4.106,-4.106,-4.106,-4.106,-4.106,-4.106,-4.106,-4.106,-4.106,-4.106,-4.106,-4.106,-4.106,-4.106,-4.106,-4.106,-4.106,-4.106,-4.203,-4.3341,-4.4678,-4.5961,-4.7272,-4.8569,-4.8907,-4.8907,-4.8907,-4.8907,-4.8907,-4.8907,-4.8907,-4.8907,-4.8907,-4.8907,-4.8907,-4.8907,-4.8907,-4.8907,-4.8907,-4.8907,-4.8907,-4.8907,-4.8907,-4.8907,-4.8907,-4.8907,-4.8907,-4.8907,-4.8907,-4.8907,-4.8907,-4.9065,-4.9782,-5.1063,-5.1695,-5.3153,0.0,0.0,0.0,0.0,0.0,0.0,0.0,0.0,0.0,0.0,-3.1395,-3.1395,-3.1395,-3.1395,-3.1395,-3.1395,-3.1395,-3.1395,-3.1395,-3.1395,-3.1395,-3.1395,-3.1395,-3.1395,-3.1395,-3.1395,-3.1538,-3.1887,-3.2221,-3.2571,-3.2936,-3.3286,-3.3492,-3.3492,-3.3492,-3.3492,-3.3492,-3.3492,-3.3492,-3.3492,-3.4294,-3.5109,-3.5901,-3.6867,-3.74,-3.7933,-3.8797,-3.9758,-4.0473,-4.0529,-4.0749,-4.106,-4.106,-4.106,-4.106,-4.106,-4.106,-4.106,-4.106,-4.106,-4.106,-4.106,-4.106,-4.106,-4.106,-4.106,-4.106,-4.106,-4.106,-4.106,-4.106,-4.106,-4.106,-4.106,-4.203,-4.3341,-4.4678,-4.5961,-4.7272,-4.8569,-4.8907,-4.8907,-4.8907,-4.8907,-4.8907,-4.8907,-4.8907,-4.8907,-4.8907,-4.8907,-4.8907,-4.8907,-4.8907,-4.8907,-4.8907,-4.8907,-4.8907,-4.8907,-4.8907,-4.8907,-4.8907,-4.8907,-4.8907,-4.8907,-4.8907,-4.8907,-4.8907,-4.9673,-5.0703,-5.1986,-5.3278,-5.4579,0.0,0.0,0.0,0.0,0.0,0.0,0.0,0.0,-3.1395,-3.1395,-3.1395,-3.1395,-3.1395,-3.1395,-3.1395,-3.1395,-3.1395,-3.1395,-3.1395,-3.1395,-3.1395,-3.1395,-3.1395,-3.1395,-3.1395,-3.1395,-3.1458,-3.1617,-3.1935,-3.2285,-3.2634,-3.3,-3.3286,-3.3476,-3.3492,-3.3492,-3.3492,-3.3492,-3.382,-3.4294,-3.4621,-3.5433,-3.6867,-3.7188,-3.7454,-3.7775,-3.8813,-3.9575,-4.0143,-4.0363,-4.0694,-4.106,-4.106,-4.106,-4.106,-4.106,-4.106,-4.106,-4.106,-4.106,-4.106,-4.106,-4.106,-4.106,-4.106,-4.106,-4.106,-4.106,-4.106,-4.106,-4.106,-4.106,-4.106,-4.106,-4.203,-4.3341,-4.4678,-4.5961,-4.7272,-4.8569,-4.8907,-4.8907,-4.8907,-4.8907,-4.8907,-4.8907,-4.8907,-4.8907,-4.8907,-4.8907,-4.8907,-4.8907,-4.8907,-4.8907,-4.8907,-4.8907,-4.8907,-4.8907,-4.8907,-4.8907,-4.8907,-4.8907,-4.8907,-4.8907,-4.9359,-4.9516,-4.9516,-5.0432,-5.1322,-5.2503,-5.3303,-5.4467,0.0,0.0,0.0,0.0,0.0,0.0,0.0,0.0,-3.1395,0.0,-3.1395,-3.1395,-3.1395,-3.1395,-3.1395,-3.1395,-3.1395,-3.1395,-3.1395,-3.1395,-3.1395,-3.1395,-3.1395,-3.1395,-3.1395,-3.1395,-3.1395,-3.1395,-3.1713,-3.203,-3.2269,-3.2714,-3.3079,-3.3349,-3.3444,-3.3492,-3.3492,-3.364,-3.4294,-3.5109,-3.5433,-3.6241,-3.7685,-3.7685,-3.7685,-3.7703,-3.8631,-3.9318,-3.9722,-4.0143,-4.0547,-4.0914,-4.1024,-4.106,-4.106,-4.106,-4.106,-4.106,-4.106,-4.106,-4.106,-4.106,-4.106,-4.106,-4.106,-4.106,-4.106,-4.106,-4.106,-4.106,-4.106,-4.106,-4.106,-4.106,-4.203,-4.3487,-4.5148,-4.6447,-4.7752,-4.8749,-4.8907,-4.8907,-4.8907,-4.8907,-4.8907,-4.8907,-4.8907,-4.8907,-4.8907,-4.8907,-4.8907,-4.8907,-4.8907,-4.8907,-4.8907,-4.8907,-4.8907,-4.8907,-4.8907,-4.8907,-4.8907,-4.8907,-4.9065,-4.9201,-4.9964,-5.0277,-5.0121,-5.1208,-5.1977,-5.2612,-5.3436,-5.4265,-3.0124,0.0,0.0,0.0,0.0,0.0,0.0,0.0,-3.1395,-3.1395,-3.1395,-3.1395,-3.1395,-3.1395,-3.1395,-3.1395,-3.1395,-3.1395,-3.1395,-3.1395,-3.1395,-3.1395,-3.1395,-3.1395,-3.1395,-3.1395,-3.1395,-3.1395,-3.1713,-3.1935,-3.1951,-3.2587,-3.2968,-3.2984,-3.3301,-3.3492,-3.3492,-3.4294,-3.5109,-3.6063,-3.6867,-3.7685,-3.8481,-3.8481,-3.8481,-3.8481,-3.8658,-3.8896,-3.93,-3.9703,-4.0125,-4.0547,-4.0914,-4.106,-4.106,-4.106,-4.106,-4.106,-4.106,-4.106,-4.106,-4.106,-4.106,-4.106,-4.106,-4.106,-4.106,-4.106,-4.106,-4.106,-4.106,-4.106,-4.106,-4.106,-4.203,-4.3652,-4.6285,-4.7911,-4.8749,-4.8907,-4.8907,-4.8907,-4.8907,-4.8907,-4.8907,-4.8907,-4.8907,-4.8907,-4.8907,-4.8907,-4.8907,-4.8907,-4.8907,-4.8907,-4.8907,-4.8907,-4.8907,-4.8907,-4.8907,-4.8907,-4.8907,-4.8907,-4.9201,-4.9964,-5.0898,-5.0898,-5.0121,-5.167,-5.2588,-5.2612,-5.3895,-5.488,-3.0187,0.0,0.0,0.0,0.0,0.0,0.0,-3.1395,-3.1395,-3.1395,-3.1395,-3.1395,-3.1395,-3.1395,-3.1395,-3.1395,-3.1395,-3.1395,-3.1395,-3.1395,-3.1395,-3.1395,-3.1395,-3.1395,-3.1395,-3.1395,-3.1395,-3.1395,-3.1506,-3.1681,-3.1903,-3.2348,-3.2714,-3.2952,-3.3301,-3.382,-3.4294,-3.4621,-3.5595,-3.6867,-3.7188,-3.7845,-3.864,-3.864,-3.864,-3.864,-3.864,-3.886,-3.9245,-3.9392,-3.985,-4.0492,-4.062,-4.084,-4.106,-4.106,-4.106,-4.106,-4.106,-4.106,-4.106,-4.106,-4.106,-4.106,-4.106,-4.106,-4.106,-4.106,-4.106,-4.106,-4.106,-4.106,-4.106,-4.106,-4.203,-4.3487,-4.5311,-4.7432,-4.8907,-4.8907,-4.8907,-4.8907,-4.8907,-4.8907,-4.8907,-4.8907,-4.8907,-4.8907,-4.8907,-4.8907,-4.8907,-4.8907,-4.8907,-4.8907,-4.8907,-4.8907,-4.8907,-4.8907,-4.8907,-4.8907,-4.8907,-4.8907,-4.9201,-5.0121,-5.0921,-5.1539,-5.167,-5.2892,-5.337,-5.337,-5.3864,-5.4568,-3.0203,-3.0489,0.0,0.0,0.0,-3.1395,-3.1395,0.0,-3.1395,-3.1395,-3.1395,-3.1395,-3.1395,-3.1395,-3.1395,-3.1395,-3.1395,-3.1395,-3.1395,-3.1395,-3.1395,-3.1395,-3.1395,-3.1395,-3.1395,-3.1395,-3.1395,-3.1395,-3.1395,-3.149,-3.1729,-3.2062,-3.2459,-3.2936,-3.3301,-3.3968,-3.4783,-3.5109,-3.5901,-3.7365,-3.7685,-3.8004,-3.864,-3.864,-3.864,-3.864,-3.864,-3.8786,-3.9043,-3.9171,-3.9557,-4.0088,-4.0363,-4.0639,-4.0877,-4.1005,-4.106,-4.106,-4.106,-4.106,-4.106,-4.106,-4.106,-4.106,-4.106,-4.106,-4.106,-4.106,-4.106,-4.106,-4.106,-4.106,-4.106,-4.106,-4.203,-4.3176,-4.4166,-4.6447,-4.841,-4.8727,-4.8907,-4.8907,-4.8907,-4.8907,-4.8907,-4.8907,-4.8907,-4.8907,-4.8907,-4.8907,-4.8907,-4.8907,-4.8907,-4.8907,-4.8907,-4.8907,-4.8907,-4.8907,-4.8907,-4.8907,-4.8907,-4.9201,-4.9673,-5.0588,-5.1362,-5.213,-5.3068,-5.3521,-5.3822,-5.3822,-5.3822,-5.4375,0.0,0.0,0.0,0.0,0.0,0.0,-3.1395,0.0,-3.1395,-3.1395,-3.1395,-3.1395,-3.1395,-3.1395,-3.1395,-3.1395,-3.1395,-3.1395,-3.1395,-3.1395,-3.1395,-3.1395,-3.1395,-3.1395,-3.1395,-3.1395,-3.1395,-3.1395,-3.1395,-3.1395,-3.1395,-3.1729,-3.2237,-3.2936,-3.3286,-3.3968,-3.4783,-3.574,-3.6546,-3.7525,-3.8163,-3.864,-3.864,-3.864,-3.864,-3.864,-3.864,-3.864,-3.8676,-3.9061,-3.9226,-3.9318,-4.0125,-4.0455,-4.0529,-4.0895,-4.1042,-4.106,-4.106,-4.106,-4.106,-4.106,-4.106,-4.106,-4.106,-4.106,-4.106,-4.106,-4.106,-4.106,-4.106,-4.106,-4.106,-4.106,-4.203,-4.2991,-4.301,-4.4965,-4.7272,-4.8569,-4.8907,-4.8907,-4.8907,-4.8907,-4.8907,-4.8907,-4.8907,-4.8907,-4.8907,-4.8907,-4.8907,-4.8907,-4.8907,-4.8907,-4.8907,-4.8907,-4.8907,-4.8907,-4.8907,-4.8907,-4.8907,-4.9673,-5.0432,-5.1385,-5.2154,-5.3068,-5.3822,-5.3822,-5.3822,-5.3822,-5.3846,-5.4399,-3.0521,0.0,0.0,0.0,0.0,0.0,-3.1395,0.0,-3.1395,-3.1395,-3.1395,-3.1395,-3.1395,-3.1395,-3.1395,-3.1395,-3.1395,-3.1395,-3.1395,-3.1395,-3.1395,-3.1395,-3.1395,-3.1395,-3.1395,-3.1395,-3.1395,-3.1395,-3.1395,-3.1395,-3.1395,-3.1729,-3.2237,-3.2936,-3.3047,-3.4034,-3.574,-3.6063,-3.6867,-3.8322,-3.8481,-3.864,-3.864,-3.864,-3.864,-3.864,-3.864,-3.864,-3.8658,-3.8768,-3.897,-3.9245,-3.9483,-3.9942,-4.0473,-4.0602,-4.0822,-4.106,-4.106,-4.106,-4.106,-4.106,-4.106,-4.106,-4.106,-4.106,-4.106,-4.106,-4.106,-4.106,-4.106,-4.106,-4.106,-4.106,-4.1378,-4.1863,-4.2844,-4.433,-4.5982,-4.7272,-4.8251,-4.8907,-4.8907,-4.8907,-4.8907,-4.8907,-4.8907,-4.8907,-4.8907,-4.8907,-4.8907,-4.8907,-4.8907,-4.8907,-4.8907,-4.8907,-4.8907,-4.8907,-4.8907,-4.8907,-4.8907,-4.9673,-5.0432,-5.1385,-5.2154,-5.3068,-5.3822,-5.3822,-5.3822,-5.3822,-5.4207,-5.476,-3.0712,-3.0855,-3.095,-3.13,0.0,0.0,-3.1395,-3.1395,-3.1395,-3.1395,-3.1395,-3.1395,-3.1395,-3.1395,-3.1395,-3.1395,-3.1395,-3.1395,-3.1395,-3.1395,-3.1395,-3.1395,-3.1395,-3.1395,-3.1395,-3.1395,-3.1395,-3.1395,-3.1395,-3.1395,-3.1395,-3.1729,-3.211,-3.2507,-3.2809,-3.3855,-3.5823,-3.5977,-3.6867,-3.864,-3.864,-3.864,-3.864,-3.864,-3.864,-3.864,-3.864,-3.864,-3.864,-3.864,-3.8786,-3.9006,-3.9171,-3.952,-3.9997,-4.0345,-4.062,-4.084,-4.1005,-4.106,-4.106,-4.106,-4.106,-4.106,-4.106,-4.106,-4.106,-4.106,-4.106,-4.106,-4.106,-4.106,-4.106,-4.106,-4.106,-4.1378,-4.2678,-4.4001,-4.5332,-4.6608,-4.7911,-4.8907,-4.8907,-4.8907,-4.8907,-4.8907,-4.8907,-4.8907,-4.8907,-4.8907,-4.8907,-4.8907,-4.8907,-4.8907,-4.8907,-4.8907,-4.8907,-4.8907,-4.8907,-4.8907,-4.8907,-4.9987,-5.0898,-5.1385,-5.2436,-5.337,-5.3822,-5.3822,-5.3822,-5.3822,-5.4135,-5.4568,-3.0823,-3.0918,-3.0998,-3.1315,-3.1395,0.0,-3.1395,-3.1395,-3.1395,-3.1395,-3.1395,-3.1395,-3.1395,-3.1395,-3.1395,-3.1395,-3.1395,-3.1395,-3.1395,-3.1395,-3.1395,-3.1395,-3.1395,-3.1395,-3.1395,-3.1395,-3.1395,-3.1395,-3.1395,-3.1395,-3.1395,-3.1697,-3.1872,-3.1919,-3.2714,-3.3869,-3.5498,-3.6035,-3.7028,-3.864,-3.864,-3.864,-3.864,-3.864,-3.864,-3.864,-3.864,-3.864,-3.864,-3.864,-3.864,-3.8676,-3.9025,-3.919,-3.9318,-4.007,-4.04,-4.0529,-4.0877,-4.1024,-4.106,-4.106,-4.106,-4.106,-4.106,-4.106,-4.106,-4.106,-4.106,-4.106,-4.106,-4.106,-4.106,-4.1229,-4.1397,-4.1714,-4.301,-4.433,-4.5495,-4.6608,-4.7911,-4.8907,-4.8907,-4.8907,-4.8907,-4.8907,-4.8907,-4.8907,-4.8907,-4.8907,-4.8907,-4.8907,-4.8907,-4.8907,-4.8907,-4.8907,-4.8907,-4.8907,-4.8907,-4.8907,-4.8907,-5.0455,-5.1385,-5.1385,-5.3044,-5.3822,-5.3822,-5.3822,-5.3822,-5.3822,-5.3822,-5.4111,-3.1188,-3.1284,-3.13,-3.1379,-3.1395,0.0,-3.1395,-3.1395,-3.1395,-3.1395,-3.1395,-3.1395,-3.1395,-3.1395,-3.1395,-3.1395,-3.1395,-3.1395,-3.1395,-3.1395,-3.1395,-3.1395,-3.1395,-3.1395,-3.1395,-3.1395,-3.1395,-3.1395,-3.1395,-3.1395,-3.1395,-3.1458,-3.1617,-3.1903,-3.2932,-3.4242,-3.5498,-3.6515,-3.7685,-3.864,-3.864,-3.864,-3.864,-3.864,-3.864,-3.864,-3.864,-3.864,-3.864,-3.864,-3.864,-3.8658,-3.8731,-3.8951,-3.9245,-3.941,-3.9887,-4.0473,-4.0565,-4.0785,-4.106,-4.106,-4.106,-4.106,-4.106,-4.106,-4.106,-4.106,-4.106,-4.106,-4.106,-4.106,-4.1378,-4.2364,-4.2678,-4.301,-4.433,-4.5637,-4.6608,-4.6769,-4.7911,-4.8907,-4.8907,-4.8907,-4.8907,-4.8907,-4.8907,-4.8907,-4.8907,-4.8907,-4.8907,-4.8907,-4.8907,-4.8907,-4.8907,-4.8907,-4.8907,-4.8907,-4.8907,-4.8907,-4.8907,-5.0455,-5.1385,-5.1385,-5.3044,-5.3822,-5.3822,-5.3822,-5.3822,-5.3822,-5.3822,-5.4111,-3.1347,-3.1395,-3.1395,-3.1395,-3.1395,0.0,0.0,-3.1395,-3.1395,-3.1395,-3.1395,-3.1395,-3.1395,-3.1395,-3.1395,-3.1395,-3.1395,-3.1395,-3.1395,-3.1395,-3.1395,-3.1395,-3.1395,-3.1395,-3.1395,-3.1395,-3.1395,-3.1395,-3.1395,-3.1395,-3.1395,-3.1395,-3.1474,-3.1649,-3.2452,-3.3595,-3.5224,-3.6077,-3.717,-3.864,-3.864,-3.864,-3.864,-3.864,-3.864,-3.864,-3.864,-3.864,-3.864,-3.864,-3.864,-3.864,-3.864,-3.8768,-3.897,-3.9153,-3.9502,-3.9905,-4.0327,-4.0602,-4.0804,-4.0987,-4.106,-4.106,-4.106,-4.106,-4.106,-4.106,-4.106,-4.106,-4.106,-4.106,-4.1378,-4.2678,-4.2991,-4.3487,-4.5474,-4.6447,-4.7111,-4.7752,-4.841,-4.8907,-4.8907,-4.8907,-4.8907,-4.8907,-4.8907,-4.8907,-4.8907,-4.8907,-4.8907,-4.8907,-4.8907,-4.8907,-4.8907,-4.8907,-4.8907,-4.8907,-4.8907,-4.8907,-4.8907,-5.0143,-5.1208,-5.1977,-5.3195,-5.3822,-5.3822,-5.3822,-5.3822,-5.3822,-5.3822,-5.3966,-3.1395,-3.1395,-3.1395,-3.1395,-3.1395,-3.1395,0.0,0.0,0.0,-3.1395,-3.1395,-3.1395,-3.1395,-3.1395,-3.1315,-3.1125,-3.1268,-3.1315,-3.1125,-3.1268,-3.1395,-3.1395,-3.1395,-3.1395,-3.1395,-3.1395,-3.1395,-3.1395,-3.1395,-3.1395,-3.1395,-3.1395,-3.1395,-3.1395,-3.1884,-3.2986,-3.483,-3.5433,-3.6606,-3.853,-3.8603,-3.864,-3.864,-3.864,-3.864,-3.864,-3.864,-3.864,-3.864,-3.8798,-3.8956,-3.8956,-3.8956,-3.8798,-3.8676,-3.9308,-3.9332,-3.9336,-3.9997,-4.029,-4.0418,-4.0822,-4.1005,-4.106,-4.106,-4.106,-4.106,-4.106,-4.106,-4.106,-4.106,-4.106,-4.1546,-4.301,-4.3341,-4.4146,-4.6769,-4.7272,-4.7592,-4.8727,-4.8907,-4.8907,-4.8907,-4.8907,-4.8907,-4.8907,-4.8907,-4.8907,-4.8907,-4.8907,-4.8907,-4.8907,-4.8907,-4.8907,-4.8907,-4.8907,-4.8907,-4.8907,-4.8907,-4.8907,-4.8907,-4.983,-5.1053,-5.2588,-5.337,-5.3822,-5.3822,-5.3822,-5.3822,-5.3822,-5.3822,-5.3822,-3.1395,-3.1395,-3.1395,-3.1395,-3.1395,-3.1395,-3.1395,0.0,-3.1395,-3.1395,0.0,-3.1395,-3.1395,0.0,0.0,-3.0156,-3.0775,-3.1061,-3.014,-3.0807,-3.1395,-3.1395,-3.1395,-3.1395,-3.1395,-3.1395,-3.1395,-3.1395,-3.1395,-3.1395,-3.1395,-3.1395,-3.1395,-3.1395,-3.2488,-3.3459,-3.4453,-3.5922,-3.7095,-3.8089,-3.8456,-3.864,-3.864,-3.864,-3.864,-3.864,-3.864,-3.864,-3.864,-3.9883,-4.0353,-4.0353,-4.0353,-3.9569,-3.8798,-3.994,-3.9869,-3.9245,-3.9336,-3.9612,-3.9978,-4.04,-4.0767,-4.106,-4.106,-4.106,-4.106,-4.106,-4.106,-4.106,-4.106,-4.106,-4.1714,-4.4186,-4.4842,-4.5495,-4.8092,-4.8727,-4.8727,-4.8907,-4.8907,-4.8907,-4.8907,-4.8907,-4.8907,-4.8907,-4.8907,-4.8907,-4.8907,-4.8907,-4.8907,-4.8907,-4.8907,-4.8907,-4.8907,-4.8907,-4.8907,-4.8907,-4.8907,-4.8907,-4.8907,-5.0455,-5.1693,-5.2588,-5.337,-5.3822,-5.3822,-5.3822,-5.3822,-5.3822,-5.3822,-5.3822,-3.1395,-3.1395,-3.1395,-3.1395,-3.1395,-3.1395,-3.1395,-3.1395,-3.1395,-3.1395,0.0,0.0,0.0,0.0,0.0,0.0,-3.1109,-3.1236,-3.0791,-3.1109,-3.1395,-3.1395,-3.1395,-3.1395,-3.1395,-3.1395,-3.1395,-3.1395,-3.1395,-3.1395,-3.1395,-3.1395,-3.1395,-3.1395,-3.1831,-3.2626,-3.3751,-3.5054,-3.6219,-3.7391,-3.8122,-3.864,-3.864,-3.864,-3.864,-3.864,-3.943,-3.9726,-3.9726,-4.0958,-4.1578,-4.1578,-4.233,-4.1868,-4.0802,-4.1424,-4.0918,-4.0009,-4.0254,-3.9981,-3.9593,-4.0253,-4.0584,-4.0767,-4.0987,-4.106,-4.106,-4.106,-4.106,-4.106,-4.106,-4.106,-4.1714,-4.435,-4.5005,-4.5657,-4.841,-4.8907,-4.8907,-4.8907,-4.8907,-4.8907,-4.8907,-4.8907,-4.8907,-4.8907,-4.8907,-4.8907,-4.8907,-4.8907,-4.8907,-4.8907,-4.8907,-4.8907,-4.8907,-4.8907,-4.8907,-4.8907,-4.8907,-4.8907,-4.8907,-5.0188,-5.1076,-5.1355,-5.301,-5.384,-5.3822,-5.3822,-5.3822,-5.3822,-5.3822,-5.3822,-3.1395,-3.1395,-3.1395,-3.1395,-3.1395,-3.1395,-3.1395,-3.1395,-3.1395,-3.1395,-3.1395,0.0,0.0,0.0,-3.13,-3.1014,0.0,-3.13,-3.0998,-3.1204,-3.1395,-3.1395,-3.1395,-3.1395,-3.1395,-3.1395,-3.1395,-3.1395,-3.1395,-3.1395,-3.1395,-3.1395,-3.1395,-3.1395,-3.1533,-3.2106,-3.2984,-3.4435,-3.5591,-3.6603,-3.7801,-3.853,-3.864,-3.864,-3.864,-3.864,-3.9883,-4.0509,-4.0666,-4.2196,-4.279,-4.2943,-4.4159,-4.418,-4.3248,-4.2943,-4.2042,-4.1016,-4.1308,-4.0712,-3.9801,-4.0105,-4.029,-4.0529,-4.0822,-4.0969,-4.106,-4.106,-4.106,-4.106,-4.106,-4.1378,-4.2197,-4.4514,-4.5332,-4.6144,-4.841,-4.8907,-4.8907,-4.8907,-4.8907,-4.8907,-4.8907,-4.8907,-4.8907,-4.8907,-4.8907,-4.8907,-4.8907,-4.8907,-4.8907,-4.8907,-4.8907,-4.8907,-4.8907,-4.8907,-4.8907,-4.8907,-4.8907,-4.8907,-4.8907,-4.9897,-5.0611,-5.0871,-5.2553,-5.3537,-5.3822,-5.3822,-5.3822,-5.3822,-5.3822,-5.3822,-3.1395,-3.1395,-3.1395,-3.1395,-3.1395,-3.1395,-3.1395,-3.1395,-3.1395,-3.1395,-3.1395,-3.1395,-3.1395,-3.1395,-3.1061,-3.0044,-3.0728,0.0,0.0,-3.0759,-3.1395,-3.1395,-3.1395,-3.1395,-3.1395,-3.1395,-3.1395,-3.1395,-3.1395,-3.1395,-3.1395,-3.1395,-3.1395,-3.1395,-3.2146,-3.2604,-3.2621,-3.4519,-3.5823,-3.6195,-3.7366,-3.8255,-3.864,-3.864,-3.864,-3.864,-3.9883,-4.0509,-4.0666,-4.3096,-4.4159,-4.431,-4.5533,-4.5853,-4.5704,-4.4633,-4.34,-4.2196,-4.2216,-4.1719,-4.0807,-3.9585,-3.9813,-4.0473,-4.0492,-4.0749,-4.106,-4.106,-4.106,-4.106,-4.106,-4.203,-4.3341,-4.4678,-4.5982,-4.7272,-4.8569,-4.8907,-4.8907,-4.8907,-4.8907,-4.8907,-4.8907,-4.8907,-4.8907,-4.8907,-4.8907,-4.8907,-4.8907,-4.8907,-4.8907,-4.8907,-4.8907,-4.8907,-4.8907,-4.8907,-4.8907,-4.8907,-4.8907,-4.8907,-4.8907,-4.9673,-5.0432,-5.1362,-5.1907,-5.2821,-5.3822,-5.3822,-5.3822,-5.3822,-5.3822,-5.3822,-3.1395,-3.1395,-3.1395,-3.1395,-3.1395,-3.1395,-3.1395,-3.1395,-3.1395,-3.1395,-3.1395,-3.1395,-3.1395,-3.1395,-3.1268,-3.0918,-3.1157,-3.1268,0.0,-3.1172,-3.1395,-3.1395,-3.1395,-3.1395,-3.1395,-3.1395,-3.1395,-3.1395,-3.1395,-3.1395,-3.1395,-3.1395,-3.1395,-3.1395,-3.1686,-3.184,-3.184,-3.3737,-3.4915,-3.5036,-3.7066,-3.8089,-3.8236,-3.8511,-3.9114,-3.9883,-4.1113,-4.2196,-4.3096,-4.4784,-4.5384,-4.5384,-4.5853,-4.6002,-4.6002,-4.5533,-4.4612,-4.34,-4.2657,-4.2142,-4.1679,-4.0712,-4.0697,-4.0877,-4.062,-4.0565,-4.073,-4.0987,-4.1714,-4.2364,-4.2364,-4.3341,-4.4658,-4.5961,-4.6608,-4.7272,-4.8569,-4.8907,-4.8907,-4.8907,-4.8907,-4.8907,-4.8907,-4.8907,-4.8907,-4.8907,-4.8907,-4.8907,-4.8907,-4.8907,-4.8907,-4.8907,-4.8907,-4.8907,-4.8907,-4.8907,-4.8907,-4.8907,-4.8907,-4.8907,-4.8907,-4.9201,-4.9428,-4.9719,-5.1362,-5.2353,-5.2798,-5.3473,-5.3822,-5.3822,-5.3822,-5.3822,-3.1395,-3.1395,-3.1395,-3.1395,-3.1395,-3.1395,-3.1395,-3.1395,-3.1395,-3.1395,-3.1395,-3.1395,-3.1395,-3.1395,-3.1395,-3.1395,-3.1395,-3.1395,0.0,-3.1395,-3.1395,-3.1395,-3.1395,-3.1395,-3.1395,-3.1395,-3.1395,-3.1395,-3.1395,-3.1395,-3.1395,-3.1395,-3.1395,-3.1395,-3.1686,-3.1686,-3.1395,-3.3296,-3.4248,-3.4402,-3.6403,-3.7558,-3.8034,-3.8456,-3.9272,-4.0509,-4.1733,-4.2943,-4.431,-4.5533,-4.6002,-4.6002,-4.6002,-4.6002,-4.6002,-4.6002,-4.5533,-4.4633,-4.34,-4.2943,-4.2851,-4.1894,-4.1621,-4.1697,-4.1456,-4.1531,-4.1979,-4.2245,-4.2914,-4.3672,-4.3672,-4.4658,-4.5799,-4.6769,-4.7272,-4.7911,-4.8727,-4.8907,-4.8907,-4.8907,-4.8907,-4.8907,-4.8907,-4.8907,-4.8907,-4.8907,-4.8907,-4.8907,-4.8907,-4.8907,-4.8907,-4.8907,-4.8907,-4.8907,-4.8907,-4.8907,-4.8907,-4.8907,-4.8907,-4.8907,-4.8907,-4.8907,-4.8978,-4.9251,-5.052,-5.1516,-5.2342,-5.329,-5.3768,-5.3822,-5.3822,-5.3822]}]]